     2              OBSERVATION DATA    GPS                 RINEX VERSION / TYPE
ASRINEXO V2.4.4 UX USGS 24-FEB-96 16:20                     PGM / RUN BY / DATE
                                                            COMMENT
Contact: kwendt@isdmnl.wr.usgs.gov (Ph: 415-329-4866)       COMMENT
Contact: kwendt@isdmnl.wr.usgs.gov (Ph: 415-329-4866)       COMMENT
Contact: kwendt@isdmnl.wr.usgs.gov (Ph: 415-329-4866)       COMMENT
Contact: kwendt@isdmnl.wr.usgs.gov (Ph: 415-329-4866)       COMMENT
Contact: kwendt@isdmnl.wr.usgs.gov (Ph: 415-329-4866)       COMMENT
Contact: kwendt@isdmnl.wr.usgs.gov (Ph: 415-329-4866)       COMMENT
Original Marker Name: 3187 3187_JPL                         COMMENT
Campaign Name: USGS Yucca Profile                           COMMENT
4-Character Station Name: 3187                              COMMENT
6-Character Antenna Code: ASHP12                            COMMENT
Vertical Measurement Point: EGP                             COMMENT
Vertical Offset to Rinex Ref. Point: 0.0593                 COMMENT
Radial Measurement Point: EGP                               COMMENT
Radial Offset to Rinex Ref. Point: 0.1425                   COMMENT
Antenna Height from Field Measurement: 1.2190 m             COMMENT
Additional Antenna Identification Info.:                    COMMENT
Ashtech L1/L2 Revision B (700228DE)                         COMMENT
Original XYZ: -2435099.3300 -4554995.3400 3731026.4500      COMMENT
New XYZ position is based on association with SCEC monument COMMENT
E1F1W1J5+0011. Position of that monument is believed to be  COMMENT
valid to within 1 m horizontally; vertical accuracy         COMMENT
should be no worse than 3-times this value.                 COMMENT
                                                            COMMENT
Revised Rinex header created by UCSD GPS archive for        COMMENT
GSAC on 07-Aug-2000 (2000:220) 23:40:25 GMT                 COMMENT
For assistance contact dagnew@ucsd.edu                      COMMENT
or anderson@python.ucsd.edu                                 COMMENT
                                                            COMMENT
3189 S                                                      MARKER NAME
JMS US GEOLOGICAL SURVEY                                    OBSERVER / AGENCY
4600 ASHTECH Z-XII3 1F00                                    REC # / TYPE / VERS
1036 ASHTECH GEODETIC P                                     ANT # / TYPE
 -2436056.5893 -4555502.9878  3731342.1307                  APPROX POSITION XYZ
        1.1513        0.0000        0.0000                  ANTENNA: DELTA H/E/N
     1     1     0                                          WAVELENGTH FACT L1/2
     5    C1    L1    L2    P1    P2                        # / TYPES OF OBSERV
    30                                                      INTERVAL
  1996     2    19    17    12   30.000000                  TIME OF FIRST OBS
  1996     2    19    23    30   60.000000                  TIME OF LAST OBS
                                                            END OF HEADER
 96  2 19 17 12 30.0000000  0  6  4 22 19 14 18 29
  17822130.699       68422.27619
  14852609.503       80021.20819     42312.00259                  14852618.2354
  16350086.828       -9483.83719
  14166813.290       88671.65019     47586.34359                  14166821.0454
  14871627.723       -3214.48819     -1715.37359                  14871633.8604
  13793918.225       34634.54819     18354.48359                  13793925.8534
 96  2 19 17 13  0.0000000  0  6  4 22 19 14 18 29
  17837894.722      151242.012 9
  14874067.279      192768.60459    130167.11349  14874067.1974   14874073.7714
  16347251.977      -24361.657 9
  14190956.245      215532.12059    146438.63649  14190954.7114   14190961.4954
  14870507.304       -9111.18859     -6310.19449  14870505.7094   14870511.9744
  13803074.965       82740.35659     55839.53049  13803074.8604   13803080.2784
 96  2 19 17 13 29.9980000  0  6  4 22 19 14 18 29
  24148974.511      232420.641 9    172282.39759                  24148987.4304
  21190872.835      303981.11349    216826.18749  21190871.6704   21190878.4234
  22639737.821      -41005.708 9
  20510438.155      340825.57849    244069.88649  20510439.3274   20510445.5784
  21164673.175      -16832.04149    -12326.43249  21164678.0404   21164684.1274
  20107534.687      129089.89249     91956.04849  20107536.6624   20107542.1964
 96  2 19 17 13 59.9980000  0  6  4 22 19 14 18 29
  24164133.927      312073.12059    234349.18749  24164136.4724   24164145.0334
  21211771.336      413799.72059    302399.12459  21211769.4574   21211775.8054
  22636219.975      -59461.137 9
  20534009.143      464713.87059    340606.20459  20534014.3714   20534021.3044
  21162861.064      -26417.34159    -19795.48859  21162854.1184   21162860.5334
  20116029.954      173733.20559    126743.04659  20116032.0144   20116037.7454
 96  2 19 17 14 29.9980000  0  6  4 22 19 14 18 29
  24179004.896      390192.20759    295221.17659  24179003.3774   24179010.7894
  21232391.839      522169.91949    386843.42349  21232392.0964   21232398.0824
  22632378.794      -79683.508 9    -21576.72159                  22632385.8944
  20557306.190      587115.96049    435984.43449  20557306.8504   20557313.3054
  21160677.235      -37843.04049    -28698.63149  21160679.6234   21160686.2714
  20124198.404      216659.48149    160192.08549  20124200.5594   20124206.3024
 96  2 19 17 14 59.9980000  0  6  4 22 19 14 18 29
  24193597.008      466875.67349    354974.46449  24193595.6424   24193603.1024
  21252753.810      629180.47349    470228.25849  21252755.1044   21252761.7374
  22628210.355     -101590.16959    -38646.81949  22628209.2504   22628216.6314
  20580330.011      708113.15649    530267.94349  20580331.8964   20580338.1884
  21158168.982      -51025.06149    -38970.33549  21158171.0264   21158177.6634
  20132059.527      257964.73949    192378.00249  20132060.8294   20132066.2324
 96  2 19 17 15 29.9980000  0  6  4 22 19 14 18 29
  24207930.901      542217.76949    413682.56349  24207933.2744   24207937.5964
  21272871.828      734902.12949    552608.75749  21272873.3814   21272880.1004
  22623735.876     -125094.32049    -56961.70949  22623735.4724   22623744.2074
  20603102.331      827778.08349    623513.31949  20603103.5454   20603109.6354
  21155346.867      -65865.56149    -50534.34849  21155347.0634   21155353.6164
  20139628.525      297736.81849    223369.22649  20139629.3714   20139634.7254
 96  2 19 17 15 59.9980000  0  6  4 22 19 14 18 29
  24222030.605      616330.81149    471432.93849  24222033.0824   24222042.3064
  21292764.876      839437.97949    634065.25549  21292766.0004   21292772.4384
  22618979.211     -150098.41849    -76445.40749  22618978.5964   22618986.0794
  20625633.363      946183.35049    715777.14749  20625635.4254   20625641.6124
  21152228.637      -82250.75549    -63302.02149  21152229.2844   21152235.4404
  20146920.143      336060.18049    253231.58149  20146922.0544   20146927.3474
 96  2 19 17 16 29.9980000  0  6  4 22 19 14 18 29
  24235929.860      689327.23849    528313.22549  24235928.1454   24235933.8834
  21312452.880      942908.99149    714692.00249  21312455.8684   21312462.7794
  22613950.536     -176500.97949    -97018.78449  22613953.6414   22613961.7544
  20647946.923     1063440.26549    807146.15749  20647948.7864   20647955.1684
  21148839.918     -100053.05549    -77173.94149  21148841.2514   21148847.9824
  20153959.672      373055.25149    282058.90449  20153962.1414   20153967.3764
 96  2 19 17 16 59.9980000  0  6  4 22 19 14 18 29
  24249619.375      761277.11149    584378.05049  24249618.6704   24249626.6944
  21331961.436     1045412.10049    794564.55149  21331961.5124   21331968.0544
  22608678.156     -204211.23849   -118611.15449  22608681.0994   22608687.9024
  20670060.092     1179647.70949    897697.39249  20670061.8404   20670068.9614
  21145204.261     -119158.05549    -92060.96149  21145206.1134   21145212.9544
  20160768.716      408834.20249    309938.59949  20160770.5014   20160775.9824
 96  2 19 17 17 29.9980000  0  6  4 22 19 14 18 29
  24263120.965      832256.10049    639686.30249  24263124.3454   24263133.1394
  21351297.017     1147027.15749    873745.10349  21351297.7544   21351304.4854
  22603173.500     -233138.12749   -141151.54949  22603176.9224   22603183.5074
  20691991.448     1294902.41549    987506.23349  20691993.9854   20692000.9384
  21141338.641     -139473.75449   -107891.37149  21141339.8644   21141346.2294
  20167364.255      443495.04649    336947.04349  20167366.0724   20167371.5544
 96  2 19 17 17 59.9980000  0  6  4 22 19 14 18 29
  24276463.319      902349.95149    694304.85149  24276464.5954   24276470.3214
  21370481.970     1247847.67849    952306.54049  21370483.5294   21370490.2384
  22597453.815     -263196.49749   -164573.62549  22597457.6624   22597462.8984
  20713761.102     1409298.58849   1076646.08249  20713762.8314   20713770.3434
  21137260.613     -160904.84449   -124590.92449  21137261.6284   21137268.2164
  20173766.422      477137.76149    363162.14149  20173768.2064   20173773.5834
 96  2 19 17 18 29.9980000  0  6  4 22 19 14 18 29
  24289650.194      971647.77849    748303.13549  24289649.7644   24289658.2264
  21389533.969     1347978.05649   1030330.20649  21389537.6824   21389544.2174
  22591543.214     -294275.03849   -188790.63249  22591543.3374   22591549.7354
  20735390.245     1522970.11549   1165221.28049  20735394.0414   20735401.4124
  21132990.506     -183346.38649   -142077.83949  21132991.5064   21132997.9714
  20179998.126      509884.01349    388678.70149  20179999.7814   20180005.1294
 96  2 19 17 18 59.9980000  0  6  4 22 19 14 18 29
  24302699.148     1040232.90149    801746.05149  24302702.0024   24302709.7364
  21408476.289     1447508.43149   1107886.32949  21408478.0754   21408484.3334
  22585455.091     -326263.92149   -213717.01649  22585455.7114   22585462.5974
  20756903.268     1636012.41049   1253306.17249  20756905.5244   20756912.0834
  21128543.667     -206709.54449   -160282.88949  21128545.6574   21128552.1074
  20186075.071      541816.94849    413561.50649  20186076.0854   20186081.5274
 96  2 19 17 19 29.9980000  0  6  4 22 19 14 18 29
  24315651.665     1108284.54649    854773.27549  24315651.5814   24315658.0094
  21427338.463     1546613.22849   1185110.83949  21427336.8624   21427343.4004
  22579223.926     -358989.10749   -239217.13149  22579227.9394   22579234.7274
  20778327.045     1748590.43049   1341029.29849  20778328.1944   20778334.9994
  21123956.308     -230824.41649   -179073.68749  21123956.8464   21123963.1774
  20192025.028      573090.37849    437930.41149  20192027.4174   20192032.7064
 96  2 19 17 19 59.9980000  0  6  4 22 19 14 18 29
  24328536.141     1175995.63749    907535.15649  24328537.3414   24328544.9294
  21446151.853     1645493.20749   1262160.15949  21446153.3764   21446159.6654
  22572895.368     -392258.46549   -265141.29649  22572896.8314   22572904.5034
  20799694.760     1860884.93849   1428531.50149  20799696.9464   20799704.1424
  21119259.742     -255501.49249   -198302.56249  21119260.6364   21119267.5604
  20197884.827      603884.22049    461925.60549  20197887.2414   20197892.6834
 96  2 19 17 20 29.9980000  0  6  4 22 19 14 18 29
  24341355.872     1243378.29149    960041.08649  24341358.9204   24341367.7234
  21464927.747     1744153.68849   1339038.45649  21464927.8564   21464933.7174
  22566460.517     -426064.66549   -291483.76149  22566464.0664   22566470.8284
  20821013.052     1972905.43249   1515820.18849  20821013.9354   20821020.9594
  21114454.533     -280745.20249   -217972.97549  21114456.8784   21114463.5214
  20203654.568      634200.57849    485548.73849  20203656.3334   20203661.7584
 96  2 19 17 20 59.9980000  0  6  4 22 19 14 18 29
  24354118.676     1310447.38049   1012302.66049  24354122.4714   24354129.0764
  21483659.076     1842592.95849   1415744.36749  21483660.6624   21483666.8604
  22559925.170     -460416.77849   -318251.60649  22559927.0774   22559934.9744
  20842274.937     2084643.58349   1602888.85649  20842276.5284   20842283.6884
  21109544.702     -306557.32849   -238086.30749  21109545.1454   21109551.0904
  20209331.256      664038.30149    508798.91249  20209334.2114   20209339.6394
 96  2 19 17 21 29.9980000  0  6  4 22 19 14 18 29
  24366821.419     1377199.71749   1064317.44049  24366825.0314   24366831.8674
  21502348.220     1940799.54849   1492268.96549  21502348.8954   21502354.6644
  22553280.007     -495332.11149   -345458.34049  22553282.2064   22553289.7444
  20863482.278     2196090.87349   1689730.88349  20863484.7404   20863492.0444
  21104520.143     -332948.74749   -258651.03749  21104523.3554   21104529.4304
  20214921.585      693413.60749    531688.75549  20214924.0854   20214929.8524
 96  2 19 17 21 59.9980000  0  6  4 22 19 14 18 29
  24379465.726     1443652.96549   1116099.11849  24379469.8624   24379476.8204
  21520991.869     2038777.46749   1568615.38149  21520993.1344   21520999.3394
  22546527.771     -530800.83649   -373096.29249  22546532.6004   22546540.4704
  20884638.150     2307259.58149   1776355.82749  20884639.4864   20884646.9804
  21099391.353     -359908.75849   -279658.83349  21099393.0784   21099399.2974
  20220429.212      722355.55949    554240.92349  20220431.5274   20220437.2844
 96  2 19 17 22 29.9980000  0  6  4 22 19 14 18 29
  24392055.222     1509817.58249   1167655.95049  24392061.0404   24392069.8284
  21539591.299     2136520.72649   1644778.94249  21539592.5194   21539599.4464
  22539677.149     -566823.66149   -401166.01849  22539677.0064   22539684.7394
  20905738.780     2418144.15349   1862759.36349  20905740.2364   20905747.2084
  21094155.108     -387428.47649   -301102.76349  21094156.1024   21094162.1904
  20225854.587      750867.74249    576458.20149  20225857.1774   20225862.8304
 96  2 19 17 22 59.9990000  0  6  4 22 19 14 18 29
  24404594.296     1575675.92649   1218974.05249  24404593.0744   24404601.4074
  21558144.340     2234017.84449   1720750.71249  21558146.2274   21558152.7174
  22532716.923     -603391.46449   -429660.39449  22532719.8374   22532726.5644
  20926782.796     2528732.78849   1948932.31249  20926784.5064   20926791.4394
  21088811.688     -415500.88949   -322977.36249  21088813.8474   21088820.5134
  20231198.163      778945.15749    598336.70649  20231200.0884   20231205.5584
 96  2 19 17 23 29.9990000  0  6  4 22 19 14 18 29
  24417064.953     1641200.93149   1270032.42549  24417062.6194   24417068.4874
  21576646.976     2331261.75249   1796525.17149  21576651.1904   21576657.3014
  22525658.155     -640489.78949   -458568.15749  22525659.3654   22525667.4814
  20947766.879     2639004.71849   2034858.47149  20947769.0584   20947775.7964
  21083365.652     -444129.35749   -345285.25149  21083366.2524   21083372.7364
  20236456.607      806579.15249    619869.68149  20236459.0434   20236464.2134
 96  2 19 17 23 59.9990000  0  6  4 22 19 14 18 29
  24429463.735     1706386.54149   1320826.42349  24429467.6744   24429473.4804
  21595106.390     2428259.77549   1872108.04549  21595109.2814   21595115.5954
  22518496.897     -678106.33049   -487879.72149  22518500.9414   22518508.2374
  20968690.416     2748963.48349   2120540.60049  20968693.1994   20968700.1244
  21077812.273     -473305.34249   -368019.77149  21077814.3734   21077820.8604
  20241628.112      833753.80449    641044.73149  20241629.9584   20241635.3634
 96  2 19 17 24 29.9990000  0  6  4 22 19 14 18 29
  24441795.355     1771222.85849   1371348.19449  24441805.0754   24441813.2164
  21613522.153     2525019.92749   1947505.55049  21613521.5174   21613528.8904
  22511248.546     -716223.69949   -517581.55849  22511247.5484   22511255.8594
  20989559.136     2858625.88949   2205991.80349  20989561.1814   20989568.1994
  21072159.340     -503024.85749   -391177.82649  21072159.0114   21072165.3974
  20246714.658      860486.18249    661875.15049  20246716.9014   20246722.5014
 96  2 19 17 24 59.9990000  0  6  4 22 19 14 18 29
  24454074.591     1835704.80949   1421593.82049  24454075.5814   24454083.4874
  21631888.014     2621552.50449   2022725.73449  21631891.7304   21631897.8094
  22503898.594     -754829.44949   -547663.93849  22503902.0414   22503909.2414
  21010374.166     2968008.98849   2291225.37149  21010376.2994   21010382.8784
  21066400.216     -533276.04249   -414750.17149  21066402.2604   21066408.9474
  20251722.138      886800.98549    682380.18649  20251724.5084   20251730.2374
 96  2 19 17 25 29.9990000  0  6  4 22 19 14 18 29
  24466281.423     1899873.14849   1471595.09649  24466286.8364   24466294.1914
  21650220.107     2717882.48849   2097788.05249  21650222.5094   21650228.5684
  22496459.334     -793905.61649   -578112.87749  22496465.8984   22496472.9424
  21031141.299     3077135.06149   2376258.64849  21031141.9424   21031149.1214
  21060548.238     -564031.50449   -438715.45749  21060549.5824   21060555.9234
  20256656.251      912729.40949    702584.14949  20256658.5184   20256664.4004
 96  2 19 17 25 59.9990000  0  6  4 22 19 14 18 29
  24478440.990     1963779.31049   1521392.02649  24478446.2984   24478455.2994
  21668517.005     2814021.05849   2172701.22049  21668517.5284   21668523.8334
  22488946.168     -833418.94449   -608902.48949  22488947.4104   22488954.2124
  21051863.119     3186041.30249   2461120.62949  21051866.0224   21051873.3094
  21054607.412     -595243.58349   -463036.55149  21054610.2334   21054616.6354
  20261526.476      938320.74649    722525.44449  20261528.6194   20261534.1694
 96  2 19 17 26 29.9990000  0  6  4 22 19 14 18 29
  24490570.232     2027478.18749   1571027.44449  24490569.8264   24490576.1604
  21686777.032     2909983.03149   2247476.77249  21686778.2104   21686784.7474
  22481345.654     -873351.02549   -640018.38049  22481347.7244   22481355.2464
  21072551.393     3294752.08649   2545830.30049  21072553.7704   21072560.6404
  21048590.091     -626868.28049   -487679.16249  21048591.8314   21048598.1894
  20266339.642      963612.25849    742233.11249  20266341.7434   20266346.8994
 96  2 19 17 26 59.9990000  0  6  4 22 19 14 18 29
  24502659.284     2091018.97949   1620539.76149  24502659.2204   24502667.7434
  21705014.032     3005817.43349   2322152.91849  21705015.0904   21705021.3584
  22473676.557     -913650.27049   -671420.38049  22473678.7684   22473686.3344
  21093208.637     3403302.46549   2630414.98749  21093209.9894   21093216.2274
  21042506.512     -658838.27649   -512590.84349  21042508.4334   21042514.6794
  20271102.361      988636.06149    761732.16649  20271103.7044   20271108.6924
 96  2 19 17 27 29.9990000  0  6  4 22 19 14 18 29
  24514712.286     2154402.31649   1669929.33749  24514720.8294   24514728.2624
  21723226.131     3101525.10449   2396730.31449  21723227.5724   21723233.8724
  22465938.086     -954313.24349   -703105.81449  22465941.6224   22465948.6924
  21113834.852     3511693.92549   2714875.83349  21113835.7444   21113842.5834
  21036357.046     -691153.07349   -537771.20349  21036359.1934   21036365.2074
  20275810.823     1013384.11149    781016.35449  20275812.9914   20275818.1544
 96  2 19 17 27 59.9990000  0  6  4 22 19 14 18 29
  24526747.913     2217623.81149   1719192.80749  24526751.9924   24526760.3784
  21741418.872     3197127.59049   2471225.75249  21741419.7094   21741426.5644
  22458128.904     -995350.07449   -735082.57149  22458132.8664   22458140.4124
  21134431.922     3619933.05749   2799217.99049  21134433.9144   21134440.5014
  21030142.696     -723808.91349   -563217.31349  21030144.9254   21030151.0574
  20280467.135     1037857.02449    800086.14949  20280469.7454   20280475.1614
 96  2 19 17 28 29.9990000  0  6  4 22 19 14 18 29
  24538740.710     2280651.57149   1768305.31649  24538744.8864   24538755.7114
  21759592.399     3292640.67149   2545651.52449  21759595.3774   21759601.7024
  22450243.664    -1036783.58649   -767368.41449  22450247.0534   22450254.6784
  21154996.557     3728007.39149   2883431.72949  21154999.5724   21155006.2634
  21023861.983     -756822.93649   -588942.51749  21023862.4014   21023868.7764
  20285067.160     1062031.09749    818923.08249  20285069.7684   20285075.6394
 96  2 19 17 28 59.9990000  0  6  4 22 19 14 18 29
  24550691.417     2343458.14449   1817245.45749  24550698.8264   24550705.2524
  21777756.195     3388079.87849   2620019.73849  21777756.9434   21777763.6744
  22442287.928    -1078610.05749   -799960.45349  22442287.7484   22442295.7794
  21175532.608     3835926.31749   2967524.36949  21175535.6204   21175542.5974
  21017504.132     -790217.02349   -614963.88049  21017507.8304   21017514.6424
  20289609.621     1085901.11049    837523.08849  20289612.2104   20289617.7874
 96  2 19 17 29 29.9990000  0  6  4 22 19 14 18 29
  24562607.830     2406053.52949   1866021.04049  24562608.8514   24562617.5314
  21795899.385     3483426.72049   2694315.97949  21795901.0174   21795907.4984
  22434250.088    -1120845.73049   -832871.36749  22434251.4264   22434258.8494
  21196040.078     3943684.35749   3051491.64549  21196041.3704   21196048.2224
  21011075.233     -824013.83549   -641299.05249  21011076.4564   21011083.2114
  20294094.925     1109467.23549    855886.29749  20294096.6904   20294102.4594
 96  2 19 17 29 59.9990000  0  6  4 22 19 14 18 29
  24574477.647     2468436.97649   1914631.46649  24574480.9394   24574488.7794
  21814025.145     3578675.57449   2768535.85149  21814026.2444   21814032.3004
  22426131.890    -1163491.53049   -866101.84549  22426135.9374   22426143.0654
  21216515.958     4051288.31049   3135338.86049  21216517.8334   21216524.7634
  21004566.179     -858212.02749   -667946.98949  21004568.9024   21004575.3994
  20298522.706     1132736.26349    874018.00549  20298524.5224   20298530.2434
 96  2 19 17 30 29.9990000  0  6  4 22 19 14 18 29
  24586309.739     2530627.44849   1963091.61249  24586315.9454   24586323.2714
  21832132.199     3673827.86549   2842680.48349  21832133.0144   21832138.9974
  22417949.973    -1206494.68149   -899610.79249  22417953.5284   22417959.0074
  21236967.635     4158759.88849   3219082.92349  21236968.9464   21236975.7854
  20997988.833     -892780.88349   -694883.75949  20997990.4094   20997996.8734
  20302898.350     1155734.29249    891938.54249  20302900.9774   20302906.5274
 96  2 19 17 30 59.9990000  0  6 22 19 14 18 29 28
  21850226.350     3768926.87549   2916783.61549  21850229.4604   21850235.9364
  22409709.066    -1249785.23849   -933343.65249  22409714.1124   22409722.2194
  21257402.354     4266146.26649   3302760.59549  21257403.7254   21257410.6884
  20991351.535     -927657.27649   -722060.16949  20991353.8674   20991360.0824
  20307233.942     1178524.35949    909697.03049  20307237.8634   20307243.1614
  24566864.342    -1262589.82719   -982112.81419  24566866.912    24566874.020
 96  2 19 17 31 29.9990000  0  6 22 19 14 18 29 28
  21868314.479     3863972.49649   2990845.13049  21868316.2004   21868322.8314
  22401420.688    -1293356.87749   -967295.55749  22401423.1754   22401429.4754
  21277819.496     4373440.95049   3386366.81449  21277821.3794   21277828.2364
  20984661.477     -962813.81549   -749454.86849  20984663.8704   20984669.6754
  20311536.048     1201123.24349    927306.54549  20311538.5024   20311543.6434
  24558042.324    -1308950.660 9  -1018238.079 9  24558043.187    24558051.269
 96  2 19 17 31 59.9990000  0  6 22 19 14 18 29 28
  21886386.101     3958940.08149   3064845.83849  21886388.4854   21886394.4294
  22393070.645    -1337244.12449  -1001493.38049  22393071.6494   22393078.6484
  21298211.932     4480608.82649   3469874.21649  21298214.6364   21298221.8384
  20977916.854     -998259.83149   -777075.13449  20977918.6704   20977924.7104
  20315794.991     1223499.74649    944742.78149  20315796.5914   20315801.6984
  24549142.596    -1355730.681 9  -1054690.097 9  24549141.555    24549148.784
 96  2 19 17 32 29.9990000  0  6 22 19 14 18 29 28
  21904428.223     4053740.63849   3138716.39349  21904428.2024   21904434.5194
  22384641.977    -1381545.64449  -1036014.01849  22384641.0554   22384649.4844
  21318560.384     4587540.40249   3553197.49049  21318563.0764   21318570.4984
  20971099.802    -1034081.40349   -804988.04749  20971102.3064   20971108.1624
  20319991.778     1245558.58449    961931.49049  20319993.9714   20319999.4774
  24540143.057    -1403017.403 9  -1091536.941 9  24540143.069    24540151.957
 96  2 19 17 32 59.9990000  0  6 22 19 14 18 29 28
  21922426.780     4148331.28249   3212423.37649  21922428.4614   21922434.4024
  22376117.370    -1426328.75549  -1070909.91549  22376119.4624   22376127.0234
  21338855.070     4694194.18149   3636304.29649  21338858.7164   21338865.9614
  20964202.759    -1070333.35349   -833236.31649  20964203.5814   20964209.8104
  20324120.063     1267255.11549    978837.87749  20324122.6144   20324128.2284
  24531038.896    -1450850.156 9  -1128809.147 9  24531039.118    24531048.722
 96  2 19 17 33 29.9990000  0  6 22 19 14 18 29 28
  21940398.459     4242760.41749   3286004.50849  21940397.3984   21940403.9104
  22367512.777    -1471543.35649  -1106142.03649  22367514.9434   22367523.1954
  21359113.166     4800639.65549   3719248.79349  21359114.3314   21359121.4954
  20957232.737    -1106956.14049   -861773.54949  20957234.4004   20957240.5574
  20328192.743     1288657.13949    995514.78249  20328195.4334   20328201.0554
  24521846.286    -1499160.045 9  -1166453.214 9  24521847.788    24521855.387
 96  2 19 17 33 59.9990000  0  6 22 19 14 18 29 28
  21958346.545     4337092.05449   3359509.64949  21958347.7154   21958354.4154
  22358839.087    -1517113.92749  -1141651.53649  22358843.3844   22358852.5714
  21379338.922     4906944.50049   3802083.70649  21379343.7394   21379350.7704
  20950203.684    -1143891.18449   -890554.09649  20950205.7894   20950212.3704
  20332224.775     1309846.18749   1012025.72349  20332227.8134   20332233.5274
  24512577.643    -1547874.312 9  -1204412.344 9  24512578.084    24512585.712
 96  2 19 17 34 29.9990000  0  6 22 19 14 18 29 28
  21976291.409     4431397.31349   3432994.25449  21976294.0584   21976300.2624
  22350120.811    -1562949.48549  -1177367.53349  22350121.0424   22350129.0474
  21399557.592     5013174.55949   3884860.34549  21399558.7404   21399565.7954
  20943127.615    -1181075.77149   -919529.09849  20943130.0674   20943136.2894
  20336233.369     1330904.89449   1028435.10149  20336235.3704   20336240.6694
  24503241.663    -1596915.958 9  -1242626.567 9  24503245.325    24503253.217
 96  2 19 17 34 59.9990000  0  6 22 19 14 18 29 28
  21994241.716     4525714.12249   3506487.86749  21994241.8734   21994248.3114
  22341358.606    -1608980.98849  -1213236.20849  22341361.6174   22341370.1454
  21419766.854     5119385.40849   3967622.02449  21419770.2054   21419777.0684
  20936014.935    -1218455.57249   -948656.20749  20936016.7504   20936022.9394
  20340228.214     1351898.49549   1044793.74849  20340230.3334   20340235.5404
  24493858.236    -1646228.395 9  -1281051.803 9  24493861.944    24493870.412
 96  2 19 17 35 29.9990000  0  6 22 19 14 18 29 28
  22012182.650     4620011.53449   3579966.34549  22012185.8134   22012193.1064
  22332557.851    -1655226.32949  -1249271.52149  22332561.7534   22332568.6344
  21439968.268     5225545.01449   4050343.76449  21439971.4284   21439979.0514
  20928860.873    -1256045.47849   -977947.02849  20928863.6874   20928869.9094
  20344207.045     1372813.07949   1061090.83049  20344210.1354   20344215.7194
  24484418.570    -1695836.079 9  -1319707.106 9  24484421.382    24484429.604
 96  2 19 17 35 59.9990000  0  6 22 19 14 18 29 28
  22030125.561     4714293.51349   3653432.79949  22030126.7864   22030133.3184
  22323718.530    -1701675.39849  -1285465.56749  22323722.2164   22323730.5454
  21460159.026     5331644.80849   4133018.89149  21460161.8574   21460168.9694
  20921668.498    -1293846.88549  -1007402.66749  20921670.2964   20921676.7774
  20348169.337     1393631.80249   1077313.20949  20348171.6014   20348177.2404
  24474925.161    -1745735.925 9  -1358590.119 9  24474926.181    24474934.309
 96  2 19 17 36 29.9990000  0  6 22 19 14 18 29 28
  22048056.619     4808521.35649   3726857.10049  22048057.6464   22048064.0814
  22314836.981    -1748362.28049  -1321844.91849  22314838.5254   22314845.9614
  21480330.165     5437654.92749   4215624.15649  21480334.4464   21480342.1044
  20914428.331    -1331886.59649  -1037043.98249  20914431.6194   20914437.9714
  20352101.607     1414299.07649   1093417.57749  20352104.4554   20352109.7894
  24465367.228    -1795961.200 9  -1397726.688 9  24465368.597    24465374.539
 96  2 19 17 36 59.9990000  0  6 22 19 14 18 29 28
  22065969.806     4902650.10949   3800204.16149  22065970.1394   22065976.8964
  22305894.350    -1795344.29349  -1358454.25649  22305897.9404   22305905.0194
  21500483.193     5543545.67749   4298136.40049  21500485.0594   21500492.6254
  20907136.736    -1370205.12749  -1066902.56849  20907139.8204   20907146.1744
  20355996.153     1434765.32749   1109365.30949  20355999.1274   20356004.5564
  24455739.037    -1846553.771 9  -1437149.482 9  24455739.131    24455749.500
 96  2 19 17 37 29.9990000  0  6 22 19 14 18 29 28
  22083882.189     4996788.13949   3873558.45049  22083884.0284   22083890.1704
  22296911.216    -1842539.43849  -1395229.68949  22296917.8724   22296923.6774
  21520628.229     5649407.47449   4380626.07749  21520630.1984   21520637.3324
  20899810.047    -1408714.44249  -1096909.81949  20899811.7924   20899818.0234
  20359867.528     1455110.78749   1125218.91349  20359870.7104   20359876.0004
  24446059.757    -1897421.515 9  -1476786.656 9  24446061.872    24446069.378
 96  2 19 17 37 59.9990000  0  6 22 19 14 18 29 28
  22101815.925     5091024.51449   3946989.37749  22101816.5564   22101822.9724
  22287906.958    -1889873.66049  -1432113.45849  22287909.5464   22287917.5164
  21540781.103     5755310.52649   4463147.90849  21540783.4574   21540790.0824
  20892458.505    -1447345.88849  -1127012.23449  20892460.7324   20892466.8084
  20363730.259     1475407.29249   1141034.37349  20363733.1184   20363738.4754
  24436340.880    -1948485.160 9  -1516576.518 9  24436343.714    24436352.697
 96  2 19 17 38 29.9990000  0  6 22 19 14 18 29 28
  22119761.976     5185335.84249   4020478.70249  22119763.3904   22119770.7804
  22278865.668    -1937386.51949  -1469136.44049  22278867.9754   22278876.3904
  21560936.419     5861230.95649   4545683.27949  21560939.2284   21560945.8764
  20885080.313    -1486118.27049  -1157224.46749  20885082.3654   20885088.7124
  20367583.837     1495652.68349   1156810.00249  20367585.7214   20367591.1444
  24426580.670    -1999771.765 9  -1556540.028 9  24426583.596    24426592.100
 96  2 19 17 38 59.9990000  0  6 22 19 14 18 29 28
  22137711.704     5279664.63249   4093981.64249  22137713.5774   22137720.4314
  22269776.790    -1985138.70149  -1506345.90649  22269781.3334   22269788.8254
  21581084.970     5967110.82449   4628187.04749  21581087.4364   21581094.4634
  20877665.088    -1525083.06649  -1187586.63349  20877667.6714   20877673.9464
  20371415.972     1515795.65549   1172505.82349  20371418.7374   20371424.3734
  24416770.584    -2051333.071 9  -1596717.606 9  24416771.530    24416779.572
 96  2 19 17 39 29.9990000  0  6 22 19 14 18 29 28
  22155677.651     5374078.83149   4167551.11749  22155679.9684   22155687.2744
  22260661.004    -2033059.21449  -1543686.54549  22260661.7904   22260669.5714
  21601234.677     6073002.43849   4710699.96949  21601237.7514   21601245.2224
  20870228.100    -1564168.57949  -1218042.85649  20870229.7744   20870236.4344
  20375242.309     1535901.95549   1188173.06849  20375244.8464   20375250.6014
  24406919.412    -2103095.095 9  -1637051.631 9  24406922.314    24406929.941
 96  2 19 17 39 59.9990000  0  6 22 19 14 18 29 28
  22173643.150     5468489.55949   4241117.88849  22173645.5144   22173653.1494
  22251491.973    -2081227.06949  -1581219.89849  22251495.8634   22251503.2914
  21621373.961     6178834.76749   4793166.68949  21621377.1854   21621384.1564
  20862753.990    -1603436.22449  -1248641.00849  20862757.7304   20862764.0374
  20379047.007     1555897.67949   1203754.15649  20379050.1474   20379055.5044
  24397020.335    -2155126.816 9  -1677595.719 9  24397020.568    24397028.320
 96  2 19 17 40 29.9990000  0  6 22 19 14 18 29 28
  22191607.168     5562887.39549   4314674.61849  22191609.6444   22191616.4384
  22242284.809    -2129627.33449  -1618934.37649  22242286.5704   22242293.4154
  21641504.198     6284610.01349   4875588.92849  21641504.9634   21641513.0154
  20855253.789    -1642859.82249  -1279360.68149  20855255.4064   20855261.6674
  20382830.540     1575779.47549   1219246.46049  20382833.0714   20382839.0364
  24387067.646    -2207413.549 9  -1718338.547 9  24387071.559    24387079.932
 96  2 19 17 40 59.9990000  0  6 22 19 14 18 29 28
  22209578.642     5657313.91349   4388253.69849  22209578.1454   22209584.5904
  22233041.132    -2178196.16049  -1656780.19249  22233043.6114   22233050.4594
  21661626.204     6390357.46849   4957989.50149  21661627.9944   21661635.5894
  20847729.545    -1682398.60649  -1310170.11749  20847731.8114   20847737.4054
  20386598.006     1595582.47349   1234677.36249  20386601.6204   20386607.3744
  24377083.415    -2259902.908 9  -1759239.272 9  24377083.073    24377091.583
 96  2 19 17 41 29.9990000  0  6 22 19 14 18 29 28
  22227550.816     5751761.45749   4461849.16249  22227551.0304   22227557.5644
  22223767.114    -2226933.35049  -1694757.19049  22223769.1234   22223776.9654
  21681741.932     6496058.17749   5040353.65849  21681742.5064   21681749.9604
  20840183.345    -1722060.89449  -1341075.78549  20840184.1674   20840190.2114
  20390356.109     1615327.97349   1250063.45949  20390359.2884   20390364.9004
  24367055.529    -2312596.559 9  -1800299.155 9  24367056.438    24367062.490
 96  2 19 17 41 59.9990000  0  6 22 19 14 18 29 28
  22245534.998     5846269.17049   4535491.51649  22245535.4724   22245542.3564
  22214469.161    -2275785.29749  -1732823.61449  22214472.9304   22214479.8874
  21701855.083     6601758.26849   5122717.33049  21701856.4034   21701864.0274
  20832619.149    -1761796.94849  -1372038.93449  20832622.5874   20832628.6644
  20394115.830     1635082.89549   1265456.89849  20394118.3964   20394124.0914
  24356998.549    -2365440.492 9  -1841476.264 9  24357001.256    24357004.416
 96  2 19 17 42 29.9990000  0  6 22 19 14 18 29 28
  22263522.873     5940801.40649   4609152.98149  22263524.5464   22263531.2454
  22205151.286    -2324763.98849  -1770988.79449  22205152.3894   22205159.0714
  21721960.805     6707415.22349   5205047.39649  21721962.6534   21721969.6954
  20825039.099    -1801644.14549  -1403088.69249  20825040.1954   20825046.1414
  20397874.576     1654835.54949   1280848.56949  20397877.1104   20397882.7734
  24346908.115    -2418459.190 9  -1882789.480 9  24346910.623    24346918.374
 96  2 19 17 42 59.9990000  0  6 22 19 14 18 29 28
  22281515.448     6035356.07749   4682831.92349  22281517.7294   22281524.2084
  22195803.150    -2373873.13749  -1809255.62649  22195806.9754   22195814.7694
  21742059.165     6813039.58649   5287352.07649  21742062.4624   21742069.4624
  20817433.214    -1841615.75549  -1434235.38749  20817433.4804   20817439.7484
  20401636.041     1674606.77549   1296254.71449  20401639.5974   20401645.2044
  24336788.095    -2471650.772 9  -1924237.286 9  24336789.138    24336796.855
 96  2 19 17 43 29.9990000  0  6 22 19 14 18 29 28
  22299516.082     6129939.50249   4756533.27349  22299516.3084   22299523.0164
  22186435.444    -2423105.41949  -1847618.42449  22186438.5394   22186444.9794
  21762161.529     6918670.28749   5369661.68549  21762163.0134   21762170.0894
  20809804.916    -1881693.21449  -1465464.57049  20809806.9614   20809813.1134
  20405405.813     1694409.16949   1311685.14449  20405407.9514   20405413.5354
  24326635.472    -2524996.056 9  -1965804.976 9  24326636.864    24326644.629
 96  2 19 17 43 59.9990000  0  6 22 19 14 18 29 28
  22317513.532     6224520.85149   4830233.01049  22317514.3484   22317521.1184
  22177038.466    -2472494.48449  -1886103.37349  22177039.7294   22177047.4754
  21782259.815     7024290.48949   5451963.11349  21782261.9444   21782269.2444
  20802151.223    -1921908.34849  -1496801.02849  20802154.4454   20802160.5744
  20409167.136     1714176.66649   1327088.38349  20409169.7384   20409175.1354
  24316451.987    -2578526.410 9  -2007516.850 9  24316451.384    24316459.759
 96  2 19 17 44 29.9990000  0  6 22 19 14 18 29 28
  22335527.925     6319207.91449   4904015.12249  22335532.1394   22335538.6214
  22167629.358    -2521944.01249  -1924635.44949  22167630.3694   22167637.7314
  21802375.081     7130008.27949   5534340.57649  21802379.4644   21802386.3694
  20794491.764    -1962164.40049  -1528169.36249  20794493.8014   20794500.0664
  20412937.402     1733990.11849   1342527.43449  20412939.8224   20412945.4094
  24306244.624    -2632143.908 9  -2049296.627 9  24306248.386    24306253.898
 96  2 19 17 44 59.9990000  0  6 22 19 14 18 29 28
  22353560.772     6413969.26549   4977855.13349  22353564.5054   22353572.3234
  22158196.270    -2571509.68149  -1963258.02549  22158198.9994   22158205.3284
  21822506.080     7235788.25149   5616766.49749  21822508.6184   21822515.5254
  20786816.497    -2002501.21349  -1559600.64549  20786817.9014   20786823.9964
  20416703.009     1753781.16449   1357949.02149  20416705.9784   20416711.4254
  24296017.424    -2685892.030 9  -2091178.238 9  24296019.663    24296026.865
 96  2 19 17 45 29.9990000  0  6 22 19 14 18 29 28
  22371620.843     6508868.35249   5051802.45749  22371623.5134   22371630.6154
  22148753.046    -2621135.46149  -2001927.43649  22148754.6594   22148762.6374
  21842653.190     7341662.28349   5699265.70749  21842656.2094   21842663.0094
  20779134.726    -2042860.41449  -1591049.36449  20779137.8994   20779144.2294
  20420473.320     1773596.97149   1373389.90449  20420476.6204   20420482.2684
  24285777.184    -2739711.998 9  -2133115.746 9  24285778.404    24285785.558
 96  2 19 17 45 59.9990000  0  6 22 19 14 18 29 28
  22389704.966     6603895.70049   5125849.71349  22389707.1774   22389713.6354
  22139292.604    -2670840.48449  -2040658.59449  22139296.6354   22139303.9734
  21862810.688     7447586.30249   5781803.87249  21862812.7844   21862819.8574
  20771451.873    -2083244.40249  -1622517.40649  20771453.0014   20771459.4494
  20424248.876     1793434.70449   1388847.87449  20424251.9984   20424257.5904
  24275519.257    -2793615.632 9  -2175118.462 9  24275520.934    24275524.915
 96  2 19 17 46 29.9990000  0  6 22 19 14 18 29 28
  22407810.431     6699035.34649   5199984.47549  22407811.5304   22407818.2884
  22129821.000    -2720628.79049  -2079454.66449  22129822.3804   22129829.8634
  21882970.678     7553528.98449   5864356.58249  21882973.2384   21882980.0574
  20763763.466    -2123647.70449  -1654000.49149  20763764.6464   20763770.9954
  20428031.496     1813310.46649   1404335.47849  20428034.0574   20428039.7154
  24265244.311    -2847605.391 9  -2217188.384 9  24265246.790    24265252.309
 96  2 19 17 46 59.9990000  0  6 22 19 14 18 29 28
  22425929.028     6794241.15149   5274170.78549  22425928.4754   22425934.9114
  22120323.041    -2770526.86849  -2118336.24949  22120326.6764   22120334.4924
  21903123.909     7659437.39949   5946882.58449  21903126.5844   21903133.5414
  20756067.495    -2164080.99349  -1685506.94149  20756070.2194   20756077.0714
  20431819.242     1833213.01649   1419843.95449  20431821.2364   20431827.1364
  24254948.890    -2901706.854 9  -2259345.268 9  24254950.979    24254958.680
 96  2 19 17 47 29.9990000  0  6 22 19 14 18 29 28
  22444058.919     6889523.01649   5348416.36249  22444060.5064   22444066.5654
  22110812.505    -2820501.96049  -2157277.85649  22110816.4824   22110823.7054
  21923277.286     7765333.93849   6029399.32549  21923278.6424   21923285.5404
  20748375.298    -2204505.10749  -1717006.23649  20748377.5354   20748384.2844
  20435620.634     1853195.46649   1435414.68849  20435623.7594   20435629.5554
  24244638.897    -2955884.971 9  -2301561.885 9  24244640.402    24244648.049
 96  2 19 17 47 59.9990000  0  6 22 19 14 18 29 28
  22462198.211     6984854.31149   5422700.45749  22462201.3984   22462207.4304
  22101287.097    -2870567.57749  -2196290.00849  22101290.2654   22101296.6814
  21943425.214     7871224.20649   6111911.19049  21943428.6594   21943436.1824
  20740686.559    -2244912.36449  -1748492.39549  20740688.4124   20740695.1774
  20439437.639     1873252.26549   1451043.35049  20439440.8164   20439446.1864
  24234316.991    -3010146.782 9  -2343843.726 9  24234315.800    24234323.798
 96  2 19 17 48 29.9990000  0  6 22 19 14 18 29 28
  22480346.963     7080222.65949   5497013.43849  22480349.5134   22480356.4354
  22091744.852    -2920722.71649  -2235371.89949  22091744.9014   22091752.6844
  21963577.131     7977122.70749   6194429.46349  21963580.3834   21963587.9704
  20732996.335    -2285315.28149  -1779975.17649  20733000.1864   20733006.6824
  20443268.358     1893377.00549   1466724.96049  20443270.4024   20443275.7754
  24223972.061    -3064491.468 9  -2386190.220 9  24223974.885    24223982.555
 96  2 19 17 48 59.9990000  0  6 22 19 14 18 29 28
  22498492.711     7175577.11949   5571315.59049  22498494.6744   22498500.7964
  22082169.051    -2971016.07749  -2274561.49949  22082174.3334   22082182.3644
  21983726.858     8083001.52649   6276932.40449  21983728.5064   21983735.8014
  20725297.113    -2325778.51849  -1811504.96549  20725300.4034   20725306.8194
  20447099.168     1913511.23249   1482413.96549  20447101.7124   20447107.0394
  24213605.675    -3118960.695 9  -2428633.702 9  24213609.691    24213617.330
 96  2 19 17 49 29.9990000  0  6 22 19 14 18 29 28
  22516631.339     7270905.26649   5645597.24149  22516634.8094   22516641.6804
  22072571.665    -3021478.65849  -2313882.96149  22072572.4614   22072579.4034
  22003869.352     8188860.46649   6359419.86049  22003872.7144   22003879.8914
  20717580.684    -2366337.93349  -1843109.69549  20717582.4054   20717588.0724
  20450925.369     1933621.11349   1498084.00249  20450928.2384   20450933.9384
  24203213.688    -3173571.144 9  -2471187.200 9  24203216.793    24203225.679
 96  2 19 17 49 59.9990000  0  6 22 19 14 18 29 28
  22534782.109     7366279.44149   5719914.76249  22534783.7944   22534790.4034
  22062944.575    -3072056.98149  -2353294.60649  22062947.2794   22062954.3714
  22024019.901     8294752.88549   6441933.40249  22024023.7024   22024030.5024
  20709850.214    -2406954.87949  -1874759.25649  20709853.1474   20709859.0624
  20454754.717     1953741.09649   1513761.91249  20454756.9874   20454762.5384
  24192804.157    -3228272.244 9  -2513811.340 9  24192808.000    24192813.424
 96  2 19 17 50 29.9990000  0  6 22 19 14 18 29 28
  22552957.600     7461782.42249   5794332.64249  22552957.8684   22552964.3644
  22053311.336    -3122674.39249  -2392736.72549  22053314.6994   22053322.7404
  22044189.743     8400744.16449   6524523.97149  22044193.0464   22044200.1984
  20702121.571    -2447574.88849  -1906411.20249  20702123.1584   20702129.2164
  20458596.115     1973931.70849   1529494.85849  20458599.1114   20458604.8574
  24182391.059    -3282993.497 9  -2556451.212 9  24182392.307    24182400.907
 96  2 19 17 50 59.9990000  0  6 22 19 14 18 29 28
  22571156.868     7557427.52149   5868861.25949  22571158.4224   22571164.7964
  22043674.583    -3173325.56149  -2432205.13849  22043675.9414   22043684.4174
  22064379.442     8506829.76949   6607188.02749  22064380.5054   22064387.5464
  20694394.671    -2488179.53449  -1938051.18449  20694396.6234   20694402.6914
  20462452.561     1994198.48549   1545287.14849  20462455.5254   20462461.6094
  24171977.829    -3337729.046 9  -2599102.196 9  24171979.120    24171987.212
 96  2 19 17 51 29.9990000  0  6 22 19 14 18 29 28
  22589379.437     7653203.35049   5943491.75449  22589383.9634   22589389.9264
  22034023.919    -3224032.91249  -2471717.34049  22034027.4064   22034034.4284
  22084574.962     8612966.29149   6689891.75549  22084577.8284   22084585.2344
  20686668.560    -2528773.48049  -1969682.82449  20686671.7114   20686677.6614
  20466321.988     2014530.84749   1561130.53849  20466325.0514   20466330.6494
  24161551.249    -3392500.097 9  -2641780.921 9  24161554.624    24161564.128
 96  2 19 17 51 59.9990000  0  6 22 19 14 18 29 28
  22607622.141     7749048.92249   6018176.61649  22607622.3914   22607628.7034
  22024354.626    -3274842.05549  -2511308.84549  22024358.3854   22024365.2804
  22104771.322     8719090.73749   6772586.08249  22104772.5464   22104780.0414
  20678938.468    -2569402.38849  -2001341.71149  20678940.3434   20678946.2594
  20470195.461     2034888.14049   1576993.36049  20470199.1574   20470204.8424
  24151115.467    -3447352.740 9  -2684523.110 9  24151118.363    24151124.988
 96  2 19 17 52 29.9990000  0  6 22 19 14 18 29 28
  22625876.734     7844980.07549   6092928.13749  22625877.7664   22625883.8704
  22014675.340    -3325711.81849  -2550947.58549  22014678.5134   22014685.3294
  22124969.536     8825236.57549   6855297.08849  22124971.5734   22124979.3144
  20671211.643    -2610003.91549  -2032979.26049  20671214.2354   20671220.2344
  20474087.586     2055338.03249   1592928.33249  20474090.3584   20474096.1944
  24140671.287    -3502233.917 9  -2727287.631 9  24140674.473    24140682.018
 96  2 19 17 52 59.9990000  0  6 22 19 14 18 29 28
  22644142.183     7940978.32849   6167731.97349  22644145.3724   22644152.0094
  22004980.755    -3376647.69049  -2590637.83849  22004985.0394   22004993.4224
  22145167.671     8931387.88049   6938012.35449  22145171.3804   22145178.4634
  20663492.485    -2650574.82549  -2064592.95249  20663493.7434   20663499.9114
  20477999.841     2075901.11249   1608951.51049  20478003.4434   20478009.3304
  24130227.551    -3557134.258 9  -2770067.081 9  24130228.357    24130236.764
 96  2 19 17 53 29.9990000  0  6 22 19 14 18 29 28
  22662406.791     8036951.43649   6242516.20049  22662409.1724   22662415.5434
  21995259.953    -3427728.89749  -2630441.35749  21995264.4944   21995272.3224
  22165355.799     9037461.45649   7020667.04349  22165356.5894   22165364.2734
  20655759.882    -2691206.42449  -2096253.93849  20655762.0244   20655768.1174
  20481918.511     2096495.15549   1624998.80949  20481922.2984   20481927.8964
  24119756.117    -3612133.441 9  -2812923.500 9  24119760.797    24119767.889
 96  2 19 17 53 59.9990000  0  6 22 19 14 18 29 28
  22680671.300     8132919.73049   6317296.67649  22680670.3994   22680677.8474
  21985523.057    -3478916.24049  -2670327.57149  21985524.2004   21985532.2414
  22185530.841     9143504.45949   7103297.91749  22185536.0774   22185543.1654
  20648025.949    -2731847.55849  -2127922.35149  20648027.8814   20648034.0084
  20485851.411     2117160.25749   1641101.47949  20485854.8364   20485860.5924
  24109276.334    -3667192.754 9  -2855826.831 9  24109281.478    24109292.831
 96  2 19 17 54 29.9990000  0  6 22 19 14 18 29 28
  22698937.868     8228911.09549   6392095.11649  22698937.0904   22698944.5974
  21975767.618    -3530173.71749  -2710268.42249  21975770.1004   21975777.6294
  22205713.646     9249545.08249   7185926.93249  22205714.4034   22205721.8984
  20640297.673    -2772461.26649  -2159569.39649  20640299.4714   20640305.2604
  20489805.750     2137933.40749   1657288.34349  20489807.7954   20489813.6754
  24098799.611    -3722279.945 9  -2898751.811 9  24098799.775    24098808.559
 96  2 19 17 54 59.9990000  0  6 22 19 14 18 29 28
  22717193.069     8324860.07849   6466860.52449  22717195.9854   22717203.0984
  21965986.934    -3581584.63649  -2750328.86449  21965987.0654   21965994.3494
  22225875.530     9355509.91649   7268496.88349  22225878.7414   22225886.5994
  20632555.906    -2813140.71049  -2191267.65849  20632558.1184   20632564.2894
  20493759.490     2158716.42449   1673482.89049  20493762.8754   20493768.6904
  24088294.756    -3777479.424 9  -2941764.424 9  24088296.554    24088304.135
 96  2 19 17 55 29.9990000  0  7 22 19 14 31 18 29 28
  22735468.999     8420901.42749   6541697.92149  22735472.0704   22735479.1264
  21956197.120    -3633015.00049  -2790404.43649  21956200.1514   21956207.7964
  22246052.564     9461538.10349   7351116.19849  22246055.9524   22246063.4694
  24458200.791    -3064792.35359  -2372852.98859  24458202.4844   24458210.5384
  20624826.760    -2853748.95849  -2222910.44549  20624830.8364   20624836.7234
  20497738.374     2179621.07349   1689772.21849  20497740.9324   20497746.6094
  24077793.876    -3832661.541 9  -2984763.411 9  24077795.833    24077802.584
 96  2 19 17 55 59.9990000  0  7 22 19 14 31 18 29 28
  22753762.042     8517025.20049   6616599.52649  22753763.1944   22753770.9884
  21946406.553    -3684470.80849  -2830499.84649  21946408.8034   21946416.1214
  22266239.636     9567617.90649   7433775.74149  22266242.6524   22266249.4344
  24442800.019    -3145720.62149  -2435913.78249  24442803.5434   24442812.3784
  20617113.900    -2894296.97049  -2254506.29149  20617114.8944   20617121.1454
  20501739.026     2200645.65249   1706155.00249  20501741.7784   20501747.4944
  24067297.439    -3887822.510 9  -3027746.020 9  24067298.688    24067304.187
 96  2 19 17 56 29.9990000  0  7 22 19 14 31 18 29 28
  22772071.140     8613242.04749   6691573.65249  22772073.4334   22772080.5574
  21936609.887    -3735958.26549  -2870619.90549  21936610.4434   21936617.1704
  22286433.836     9673735.58849   7516464.78849  22286435.2204   22286443.0844
  24427349.331    -3226920.41249  -2499186.24349  24427350.4444   24427357.6864
  20609401.980    -2934816.35049  -2286079.82949  20609404.0104   20609410.4074
  20505760.060     2221778.97849   1722622.52549  20505763.1614   20505769.0654
  24056805.076    -3942962.421 9  -3070712.163 9  24056807.640    24056814.013
 96  2 19 17 56 59.9990000  0  7 22 19 14 31 18 29 28
  22790391.361     8709510.13949   6766587.72149  22790392.5944   22790399.5184
  21926795.547    -3787524.95749  -2910801.72949  21926798.2284   21926804.8244
  22306626.193     9779847.68949   7599149.50049  22306628.0744   22306635.3714
  24411839.061    -3308420.39149  -2562692.52249  24411841.1854   24411848.8464
  20601690.701    -2975343.15449  -2317659.14949  20601692.3134   20601698.3854
  20509791.738     2242963.58249   1739130.00249  20509794.4884   20509799.9824
  24046308.727    -3998116.668 9  -3113689.501 9  24046310.214    24046316.985
 96  2 19 17 57 29.9990000  0  7 22 19 14 31 18 29 28
  22808718.999     8805818.74749   6841633.35949  22808718.9504   22808726.6304
  21916966.983    -3839164.30049  -2951040.14849  21916970.8344   21916978.6284
  22326816.595     9885945.27949   7681822.89349  22326817.6324   22326824.9724
  24396275.531    -3390210.28949  -2626424.72749  24396277.3984   24396284.4714
  20593981.987    -3015856.08149  -2349227.65949  20593983.1714   20593989.3644
  20513834.969     2264212.55349   1755687.63449  20513838.1774   20513843.6484
  24035811.620    -4053276.873 9  -3156671.462 9  24035814.132    24035821.889
 96  2 19 17 57 59.9990000  0  7 22 19 14 31 18 29 28
  22827047.986     8902150.11349   6916696.71549  22827050.6124   22827057.8124
  21907123.254    -3890908.88149  -2991360.59049  21907124.0054   21907131.8624
  22347000.124     9992008.03949   7764469.16649  22347000.4464   22347008.0144
  24380653.550    -3472304.17949  -2690393.97349  24380654.3164   24380663.1364
  20586269.692    -3056371.33349  -2380797.97649  20586273.4794   20586279.9334
  20517889.382     2285517.82649   1772289.14349  20517892.3094   20517897.7384
  24025310.159    -4108463.829 9  -3199674.280 9  24025311.545    24025319.222
 96  2 19 17 58 29.9990000  0  7 22 19 14 31 18 29 28
  22845388.200     8998521.14649   6991790.98349  22845389.7134   22845396.8524
  21897258.277    -3942743.79649  -3031751.41149  21897260.8984   21897268.2274
  22367179.948    10098055.69549   7847103.65049  22367180.6584   22367188.2634
  24364974.744    -3554682.60149  -2754584.80049  24364978.8474   24364987.4074
  20578569.150    -3096841.38349  -2412333.07649  20578571.9884   20578578.3374
  20521956.660     2306892.21749   1788944.50149  20521959.8214   20521965.0944
  24014803.852    -4163659.569 9  -3242683.907 9  24014808.188    24014818.154
 96  2 19 17 58 59.9990000  0  7 22 19 14 31 18 29 28
  22863730.436     9094919.34649   7066906.42949  22863733.5454   22863740.6904
  21887377.382    -3994661.33149  -3072206.61149  21887381.4494   21887388.3854
  22387356.680    10204097.38349   7929733.49649  22387359.9704   22387367.4884
  24349247.791    -3637339.59849  -2818992.75449  24349250.7824   24349257.3484
  20570882.140    -3137242.19549  -2443814.22149  20570883.9074   20570890.2574
  20526036.624     2328336.99849   1805654.71149  20526040.5504   20526046.1914
  24004303.390    -4218857.652 9  -3285695.459 9  24004304.144    24004312.882
 96  2 19 17 59 29.9990000  0  7 22 19 14 31 18 29 28
  22882093.969     9191416.29549   7142098.81949  22882096.8064   22882103.7064
  21877498.616    -4046588.41949  -3112669.25449  21877499.8534   21877507.2384
  22407544.810    10310185.63749   8012399.61849  22407548.2164   22407555.6444
  24333477.416    -3720224.49549  -2883578.32049  24333477.4744   24333485.4604
  20563217.049    -3177517.87449  -2475197.86949  20563219.8084   20563226.1684
  20530145.221     2349925.80949   1822477.15149  20530148.7824   20530154.6494
  23993809.472    -4273994.842 9  -3328659.463 9  23993813.476    23993819.454
 96  2 19 17 59 59.9990000  0  7 22 19 14 31 18 29 28
  22900470.273     9287978.61649   7217342.16049  22900471.5514   22900477.7174
  21867605.064    -4098567.77949  -3153172.64249  21867608.0784   21867616.0684
  22427733.518    10416271.72849   8095064.05249  22427735.6064   22427743.1864
  24317646.204    -3803375.80949  -2948371.49849  24317652.7374   24317661.5804
  20555566.426    -3217725.50049  -2506528.48549  20555568.3804   20555574.6824
  20534270.433     2371603.12749   1839368.55649  20534273.8894   20534279.4804
  23983320.729    -4329107.890 9  -3371604.668 9  23983325.394    23983331.016
 96  2 19 18  0 29.9990000  0  7 22 19 14 31 18 29 28
  22918847.123     9384547.09849   7292590.30649  22918847.3704   22918854.7254
  21857697.335    -4150630.32849  -3193740.83349  21857700.5204   21857708.5164
  22447904.620    10522293.26349   8177678.17949  22447910.4944   22447918.1974
  24301769.771    -3886844.80549  -3013412.25949  24301772.2194   24301776.3764
  20547916.637    -3257924.07849  -2537852.05549  20547919.0284   20547925.2614
  20538402.020     2393314.21549   1856286.27249  20538405.2644   20538411.2204
  23972830.700    -4384238.247 9  -3414563.377 9  23972833.681    23972839.931
 96  2 19 18  0 59.9990000  0  7 22 19 14 31 18 29 28
  22937246.414     9481250.13349   7367943.29849  22937249.7274   22937255.8214
  21847797.256    -4202645.37649  -3234272.01649  21847802.9484   21847810.1564
  22468094.584    10628372.08549   8260336.95149  22468097.1774   22468104.3944
  24285851.242    -3970502.07549  -3078599.65549  24285850.4374   24285857.8904
  20540288.215    -3298007.21249  -2569085.66349  20540291.3514   20540297.5404
  20542565.695     2415195.96649   1873336.98249  20542569.3904   20542575.1944
  23962362.178    -4439258.038 9  -3457435.965 9  23962365.432    23962370.902
 96  2 19 18  1 29.9990000  0  7 22 19 14 31 18 29 28
  22955668.816     9578062.00049   7443381.09849  22955673.1984   22955679.0254
  21837905.080    -4254653.03149  -3274797.43149  21837906.1304   21837913.9204
  22488282.112    10734467.70549   8343008.82249  22488286.2944   22488294.1154
  24269888.683    -4054353.46649  -3143938.37649  24269894.1794   24269902.3024
  20532678.001    -3338004.09549  -2600252.06549  20532680.1704   20532686.6024
  20546761.622     2437236.96149   1890511.77549  20546763.4994   20546769.1804
  23951909.884    -4494191.107 9  -3500240.955 9  23951911.593    23951917.379
 96  2 19 18  1 59.9990000  0  7 22 19 14 31 18 29 28
  22974124.108     9675040.86349   7518949.01049  22974127.2054   22974133.4644
  21828021.919    -4306587.46349  -3315265.79749  21828023.2914   21828030.6064
  22508490.298    10840662.15249   8425757.69049  22508494.7524   22508502.0114
  24253917.099    -4138301.52249  -3209352.46249  24253919.1254   24253924.5564
  20525100.794    -3377825.53149  -2631281.75849  20525102.3884   20525108.8034
  20551000.760     2459513.51649   1907870.12349  20551002.6704   20551008.3044
  23941484.683    -4548959.839 9  -3542917.841 9  23941487.317    23941496.198
 96  2 19 18  2 29.9990000  0  7 22 19 14 31 18 29 28
  22992600.089     9772103.14649   7594581.91949  22992597.7054   22992604.0474
  21818139.607    -4358507.05249  -3355722.59149  21818143.6144   21818150.7154
  22528708.652    10946901.65049   8508541.65449  22528711.4404   22528718.6934
  24237912.164    -4222408.18049  -3274890.01549  24237913.5284   24237923.4264
  20517548.317    -3417511.48549  -2662205.88249  20517550.1794   20517556.7004
  20555277.313     2481984.50649   1925379.97549  20555278.7984   20555284.0474
  23931079.764    -4603627.117 9  -3585515.697 9  23931085.508    23931094.295
 96  2 19 18  2 59.9990000  0  7 22 19 14 31 18 29 28
  23011073.902     9869213.98549   7670252.66349  23011077.4074   23011084.3764
  21808256.099    -4410456.20349  -3396202.41549  21808257.9084   21808264.9014
  22548926.489    11053153.23249   8591335.04549  22548930.6774   22548938.6394
  24221873.626    -4306690.19949  -3340564.33449  24221878.6364   24221885.0394
  20510017.869    -3457083.62849  -2693041.31849  20510020.0644   20510026.7974
  20559583.818     2504622.77149   1943020.17649  20559586.7904   20559592.3924
  23920693.401    -4658219.923 9  -3628055.559 9  23920696.094    23920706.374
 96  2 19 18  3 29.9990000  0  7 22 19 14 31 18 29 28
  23029558.273     9966345.27449   7745939.33849  23029561.3044   23029567.8614
  21798357.029    -4462452.33249  -3436718.85949  21798362.6084   21798370.0474
  22569145.943    11159401.69649   8674126.01949  22569148.6264   22569156.7994
  24205798.998    -4391166.06659  -3406389.59549  24205799.0174   24205809.4534
  20502507.536    -3496552.34749  -2723796.16349  20502509.2034   20502516.1074
  20563919.369     2527408.93349   1960775.62049  20563922.4324   20563928.5534
  23910319.475    -4712747.509 9  -3670544.566 9  23910321.668    23910331.732
 96  2 19 18  3 59.9990000  0  7 22 19 14 31 18 29 28
  23048038.787    10063479.41249   7821628.24749  23048045.1414   23048051.7034
  21788460.145    -4514478.06949  -3477258.36349  21788462.4404   21788470.3314
  22589363.659    11265655.66449   8756921.27549  22589368.1214   22589376.1444
  24189681.234    -4475853.88249  -3472380.12349  24189684.9304   24189695.0124
  20495014.403    -3535926.33749  -2754477.20049  20495016.7294   20495023.2814
  20568282.197     2550335.04749   1978640.11349  20568285.2494   20568291.1514
  23899954.562    -4767206.061 9  -3712979.822 9  23899957.937    23899965.026
 96  2 19 18  4 29.9990000  0  8 27 22 19 14 31 18 29 28
  24597626.571     -198477.97459   -136195.02659  24597634.6944   24597641.7114
  23066533.605    10160629.40849   7897329.51349  23066531.3644   23066539.1614
  21778556.103    -4566511.44749  -3517803.81949  21778560.3684   21778568.2684
  22609584.634    11371921.65249   8839725.89049  22609589.2664   22609597.7014
  24173531.649    -4560745.50849  -3538529.44449  24173532.4074   24173538.5454
  20487541.582    -3575200.55249  -2785080.48849  20487543.0314   20487549.4464
  20572674.593     2573414.25949   1996623.91049  20572677.2224   20572682.9384
  23889610.198    -4821573.491 9  -3755344.011 9  23889611.952    23889618.943
 96  2 19 18  4 59.9990000  0  8 27 22 19 14 31 18 29 28
  24582967.964     -275542.56159   -196245.28659  24582968.8274   24582978.0524
  23085022.602    10257797.35349   7973044.74849  23085022.2014   23085029.9634
  21768651.332    -4618574.14449  -3558372.13549  21768654.3184   21768660.8604
  22629807.231    11478172.57249   8922518.75949  22629808.0014   22629816.9494
  24157331.293    -4645859.06649  -3604851.64149  24157334.4924   24157342.8894
  20480078.065    -3614414.73749  -2815637.00249  20480081.0344   20480087.2124
  20577090.328     2596620.60649   2014706.76749  20577093.1684   20577098.7594
  23879276.404    -4875865.891 9  -3797649.797 9  23879279.482    23879288.316
 96  2 19 18  5 29.9990000  0  8 27 22 19 14 31 18 29 28
  24568288.891     -352674.95949   -256348.37749  24568291.6904   24568300.7734
  23103535.341    10355098.21849   8048863.56549  23103538.1334   23103545.5254
  21758759.914    -4670558.40949  -3598879.33149  21758761.8404   21758769.4184
  22650043.608    11584516.10949   9005383.78949  22650044.5184   22650052.8984
  24141114.061    -4731096.78849  -3671270.64449  24141115.7554   24141123.9924
  20472648.582    -3653458.30749  -2846060.56749  20472651.4524   20472657.7754
  20581551.331     2620065.54749   2032975.54849  20581554.7304   20581560.3144
  23868981.970    -4929978.593 9  -3839815.510 9  23868982.867    23868991.225
 96  2 19 18  5 59.9990000  0  8 27 22 19 14 31 18 29 28
  24553596.183     -429904.49449   -316527.15949  24553595.7684   24553602.9004
  23122072.043    10452516.63049   8124773.97449  23122076.0784   23122083.2434
  21748874.466    -4722491.62349  -3639346.74549  21748879.1734   21748886.9014
  22670288.114    11690908.38349   9088286.80549  22670291.0004   22670299.7824
  24124865.299    -4816479.63649  -3737802.72049  24124867.1894   24124875.6054
  20465248.467    -3692352.71549  -2876367.90249  20465249.8194   20465256.3474
  20586051.651     2643710.17349   2051399.93149  20586054.0804   20586059.4714
  23858701.243    -4983943.373 9  -3881865.935 9  23858711.936    23858720.524
 96  2 19 18  6 29.9990000  0  8 27 22 19 14 31 18 29 28
  24538866.392     -507276.64449   -376817.13649  24538872.3264   24538879.7044
  23140630.403    10550045.33149   8200770.32349  23140634.7034   23140642.2854
  21738996.954    -4774414.91449  -3679806.42549  21738998.2424   21739005.8814
  22690538.164    11797309.99649   9171197.10849  22690538.4214   22690546.6984
  24108589.018    -4902027.52049  -3804463.41349  24108588.7504   24108596.3384
  20457868.652    -3731124.04349  -2906579.32949  20457872.0674   20457878.4494
  20590581.227     2667518.68849   2069952.01049  20590584.8864   20590590.3074
  23848463.637    -5037793.496 9  -3923827.044 9  23848464.415    23848474.608
 96  2 19 18  6 59.9990000  0  8 27 22 19 14 31 18 29 28
  24524102.122     -584879.91549   -437287.19149  24524104.0024   24524112.9644
  23159192.456    10647568.91149   8276762.68949  23159193.4784   23159201.2714
  21729093.302    -4826452.53949  -3720355.21149  21729096.4084   21729103.5294
  22710768.244    11903615.24549   9254032.31949  22710767.9004   22710775.5694
  24092254.102    -4987847.47749  -3871336.13749  24092257.3414   24092264.2634
  20450493.795    -3769886.74949  -2936784.03849  20450495.9704   20450502.1124
  20595122.270     2691379.49249   2088544.84349  20595125.5544   20595131.2004
  23838217.319    -5091646.931 9  -3965790.742 9  23838219.130    23838226.152
 96  2 19 18  7 29.9990000  0  8 27 22 19 14 31 18 29 28
  24509298.595     -662665.95649   -497899.62049  24509302.0814   24509311.0584
  23177743.608    10745087.76249   8352751.34449  23177750.5764   23177757.3754
  21719174.679    -4878578.68749  -3760972.97149  21719176.7394   21719183.9494
  22730982.590    12009858.96749   9336819.60449  22730985.4214   22730992.5544
  24075876.403    -5073898.16449  -3938388.60049  24075879.8334   24075890.5884
  20443128.452    -3808588.37949  -2966941.15249  20443130.9044   20443137.3364
  20599676.837     2715314.55849   2107195.54149  20599680.1944   20599685.6964
  23827972.838    -5145467.099 9  -4007728.441 9  23827977.001    23827985.162
 96  2 19 18  7 59.9990000  0  8 27 22 19 14 31 18 29 28
  24494499.087     -740436.92649   -558500.31949  24494504.3474   24494512.2284
  23196345.105    10842793.33949   8428885.56449  23196343.2114   23196350.7164
  21709275.660    -4930580.65749  -3801493.97549  21709280.9034   21709288.7464
  22751225.425    12116244.58249   9419717.43549  22751230.6654   22751237.1714
  24059502.921    -5159958.90249  -4005448.93149  24059504.8324   24059512.0974
  20435816.623    -3847018.19649  -2996886.46549  20435818.2934   20435824.2574
  20604286.102     2739528.51049   2126063.54949  20604287.7924   20604293.4294
  23817777.152    -5199042.014 9  -4049475.051 9  23817780.821    23817790.326
 96  2 19 18  8 29.9990000  0  8 27 22 19 14 31 18 29 28
  24479685.530     -818276.44049   -619154.48849  24479688.6574   24479696.4254
  23214952.383    10940585.20549   8505086.98449  23214952.5774   23214959.4154
  21699387.542    -4982550.44549  -3841989.90249  21699391.7874   21699399.2054
  22771485.618    12222702.28549   9502671.45549  22771487.7804   22771496.1994
  24043109.382    -5246113.99149  -4072582.78449  24043111.3004   24043118.4284
  20428541.791    -3885250.47649  -3026677.85349  20428542.8784   20428548.9454
  20608933.436     2763955.95749   2145097.91449  20608936.3314   20608941.8364
  23807616.466    -5252443.634 9  -4091086.641 9  23807620.036    23807626.619
 96  2 19 18  8 59.9990000  0  8 27 22 19 14 31 18 29 28
  24464870.557     -896123.77949   -679814.70749  24464875.3134   24464884.0164
  23233583.991    11038495.28449   8581380.52449  23233584.0424   23233591.5904
  21689515.470    -5034430.34349  -3882415.78849  21689519.7374   21689526.2024
  22791768.096    12329281.32649   9585720.00349  22791769.6594   22791777.2914
  24026705.046    -5332305.12949  -4139744.70649  24026707.3294   24026715.3424
  20421316.658    -3923212.05049  -3056258.30849  20421319.2304   20421324.9644
  20613635.201     2788662.30249   2164349.59849  20613637.8724   20613643.3644
  23797501.690    -5305606.251 9  -4132512.004 9  23797504.260    23797511.517
 96  2 19 18  9 29.9990000  0  8 27 22 19 14 31 18 29 28
  24450042.350     -974057.42649   -740542.18649  24450045.9284   24450053.7674
  23252231.663    11136483.31849   8657734.80549  23252230.2634   23252237.3324
  21679651.472    -5086267.95249  -3922808.73349  21679655.1924   21679661.6814
  22812057.030    12435908.62049   9668806.15049  22812060.6354   22812068.2294
  24010289.614    -5418587.79349  -4206977.94049  24010289.9954   24010299.0894
  20414136.007    -3960949.44049  -3085664.07549  20414138.0454   20414144.0184
  20618379.232     2813591.55149   2183774.97649  20618381.5784   20618387.5274
  23787422.045    -5358576.963 9  -4173787.855 9  23787423.709    23787429.568
 96  2 19 18  9 59.9990000  0  8 27 22 19 14 31 18 29 28
  24435190.101    -1052107.82249   -801360.61749  24435192.4304   24435201.6944
  23270886.147    11234538.61849   8734141.48549  23270889.7494   23270897.6104
  21669793.548    -5138078.97349  -3963180.95649  21669796.1024   21669802.0534
  22832347.513    12542537.25649   9751893.35649  22832349.6824   22832359.5384
  23993843.718    -5504985.38949  -4274300.75349  23993847.8174   23993857.4514
  20406989.124    -3998506.33749  -3114929.19249  20406990.9394   20406997.1884
  20623160.917     2838723.43449   2203358.24349  20623164.3754   20623170.1224
  23777370.510    -5411383.739 9  -4214935.929 9  23777374.131    23777382.679
 96  2 19 18 10 29.9990000  0  8 27 22 19 14 31 18 29 28
  24420309.376    -1130315.81749   -862301.88949  24420311.9864   24420319.7844
  23289553.329    11332619.84349   8810568.39749  23289554.0404   23289561.8204
  21659926.908    -5189907.50949  -4003566.81249  21659932.7834   21659940.3224
  22852627.714    12649114.25749   9834940.31549  22852631.4724   22852641.0004
  23977374.509    -5591542.09649  -4341747.49449  23977376.7294   23977385.2154
  20399864.450    -4035940.73349  -3144098.85349  20399867.2694   20399873.8054
  20627971.623     2864006.67649   2223059.45049  20627975.4154   20627981.2724
  23767349.311    -5464072.610 9  -4255992.179 9  23767349.688    23767354.114
 96  2 19 18 10 59.9990000  0  8 27 22 19 14 31 18 29 28
  24405393.888    -1208694.06649   -923375.82149  24405397.2684   24405405.2334
  23308221.380    11430730.16749   8887017.96249  23308223.7724   23308231.8714
  21650062.633    -5241750.28349  -4043963.77049  21650067.7994   21650074.8804
  22872897.474    12755621.33349   9917932.78649  22872899.3834   22872908.5744
  23960872.563    -5678253.28749  -4409314.59949  23960875.1134   23960885.3264
  20392760.736    -4073276.73149  -3173191.83749  20392762.4444   20392769.2914
  20632807.313     2889417.69949   2242860.24049  20632810.8324   20632816.6774
  23757339.765    -5516655.697 9  -4296965.957 9  23757342.628    23757350.206
 96  2 19 18 11 29.9990000  0  8 27 22 19 14 31 18 29 28
  24390454.341    -1287205.85049   -984553.81149  24390456.1184   24390462.7764
  23326903.118    11528921.81649   8963530.91149  23326909.4034   23326916.4964
  21640204.430    -5293562.44949  -4084336.87149  21640207.9804   21640216.0414
  22893159.737    12862104.92549  10000906.95949  22893162.8644   22893171.2634
  23944347.806    -5765072.67749  -4476966.06849  23944352.6844   23944365.6794
  20385681.761    -4110474.00149  -3202176.72149  20385683.8164   20385690.7604
  20637675.321     2914999.37449   2262794.00049  20637678.7654   20637684.7084
  23747363.608    -5569089.871 9  -4337823.766 9  23747364.386    23747369.874
 96  2 19 18 11 59.9990000  0  8 27 22 19 14 31 18 29 28
  24375508.766    -1365732.93649  -1045743.70549  24375513.7304   24375519.5774
  23345625.062    11627284.57149   9040177.17049  23345627.1514   23345635.0084
  21630372.611    -5345237.47549  -4124603.12149  21630374.4764   21630381.3774
  22913440.268    12968685.59549  10083956.78649  22913444.4544   22913452.3574
  23927835.263    -5851886.39249  -4544613.09049  23927834.8814   23927842.9944
  20378650.860    -4147419.49249  -3230965.41949  20378653.6174   20378660.2644
  20642598.762     2940866.40849   2282950.11249  20642601.1024   20642607.0494
  23737436.639    -5621261.647 9  -4378477.050 9  23737436.550    23737442.536
 96  2 19 18 12 29.9990000  0  8 27 22 19 14 31 18 29 28
  24360540.961    -1444395.65049  -1107039.23849  24360543.2694   24360552.6234
  23364346.644    11725681.05149   9116849.71649  23364351.3554   23364358.9964
  21620537.993    -5396910.13549  -4164867.51049  21620541.5104   21620548.5654
  22933721.829    13075251.42149  10166995.06049  22933723.7214   22933731.9354
  23911284.406    -5938832.39749  -4612363.14149  23911289.3314   23911297.8644
  20371646.073    -4184232.45649  -3259650.84349  20371648.3264   20371654.8634
  20647547.786     2966887.56149   2303226.32249  20647552.9254   20647559.0374
  23727530.913    -5673294.477 9  -4419022.076 9  23727534.756    23727542.698
 96  2 19 18 12 59.9990000  0  8 27 22 19 14 31 18 29 28
  24345559.369    -1523115.84549  -1168379.60349  24345563.7104   24345572.5224
  23383089.939    11824159.82649   9193586.39049  23383091.8714   23383099.2004
  21610716.482    -5448528.82249  -4205089.86049  21610718.9314   21610725.9014
  22954011.680    13181870.76149  10250075.02249  22954013.3074   22954020.4004
  23894729.677    -6025852.07049  -4680170.71249  23894731.9284   23894740.2324
  20364679.254    -4220843.16749  -3288178.67549  20364681.6864   20364688.2164
  20652545.255     2993139.00549   2323681.97149  20652548.4904   20652554.3854
  23717671.211    -5725120.022 9  -4459405.577 9  23717671.791    23717679.287
 96  2 19 18 13 29.9990000  0  8 27 22 19 14 31 18 29 28
  24330542.116    -1602040.71249  -1229879.44249  24330544.9014   24330552.2644
  23401812.404    11922540.13449   9270246.34849  23401812.7164   23401819.7604
  21600869.978    -5500252.79249  -4245394.24149  21600875.9814   21600883.2664
  22974280.087    13288389.16449  10333076.31749  22974281.5134   22974289.7084
  23878125.521    -6113101.28649  -4748157.01949  23878126.8424   23878133.7494
  20357724.455    -4257395.91349  -3316661.33949  20357726.2194   20357732.2834
  20657558.426     3019480.70349   2344207.94949  20657561.1534   20657567.3644
  23707822.599    -5776887.147 9  -4499743.546 9  23707821.573    23707828.792
 96  2 19 18 13 59.9990000  0  8 27 22 19 14 31 18 29 28
  24315493.034    -1681113.35349  -1291494.38349  24315497.6904   24315506.0814
  23420521.204    12020857.47449   9346857.24149  23420521.7144   23420529.2484
  21591018.333    -5552038.63549  -4285746.82149  21591020.9634   21591028.6394
  22994537.147    13394846.65049  10416030.15849  22994540.6634   22994548.4374
  23861490.408    -6200525.43049  -4816279.67749  23861492.3274   23861500.2044
  20350785.975    -4293856.70949  -3345072.34549  20350787.9024   20350794.0914
  20662596.316     3045952.32649   2364835.17549  20662598.6704   20662604.8964
  23697988.380    -5828548.737 9  -4539999.297 9  23697989.834    23697997.445
 96  2 19 18 14 29.9990000  0  8 27 22 19 14 31 18 29 28
  24300424.836    -1760296.66749  -1353195.60649  24300430.3204   24300436.5234
  23439222.498    12119146.07749   9423445.71449  23439225.4314   23439233.1354
  21581157.901    -5603837.75949  -4326109.75149  21581163.8194   21581171.5754
  23014791.299    13501274.78149  10498961.12249  23014793.1154   23014800.4374
  23844830.028    -6288075.93759  -4884500.82349  23844830.4844   23844837.8664
  20343871.642    -4330187.36649  -3373381.94749  20343874.3214   20343880.6954
  20667667.323     3072603.27249   2385602.13449  20667670.0594   20667676.0384
  23688186.050    -5880063.777 9  -4580140.820 9  23688187.824    23688194.717
 96  2 19 18 14 59.9990000  0  8 27 22 19 14 31 18 29 28
  24285337.948    -1839590.54849  -1414983.03049  24285340.0914   24285347.2354
  23457921.741    12217430.98549   9500031.29849  23457928.7224   23457936.2394
  21571304.160    -5655632.25149  -4366469.07449  21571307.9724   21571314.7094
  23035039.482    13607682.82849  10581876.45249  23035041.3954   23035049.7224
  23828146.893    -6375717.55659  -4952792.87849  23828153.1594   23828157.3144
  20336987.356    -4366362.57549  -3401570.42549  20336990.3174   20336996.4654
  20672778.636     3099467.96449   2406535.64949  20672781.8164   20672787.8754
  23678412.387    -5931404.654 9  -4620146.659 9  23678417.120    23678424.274
 96  2 19 18 15 29.9990000  0  8 27 22 19 14 31 18 29 28
  24270226.283    -1918999.41649  -1476860.02049  24270230.0524   24270237.0774
  23476635.916    12315750.86649   9576644.15849  23476638.2684   23476645.7114
  21561455.649    -5707391.00949  -4406800.57349  21561458.5224   21561465.1564
  23055284.906    13714073.95749  10664778.57849  23055287.9954   23055295.7664
  23811461.674    -6463424.12149  -5021135.59149  23811462.0754   23811469.7744
  20330138.780    -4402356.41749  -3429617.57349  20330141.0364   20330147.3644
  20677933.213     3126557.64749   2427644.48649  20677937.0254   20677942.8414
  23668681.061    -5982550.609 9  -4660000.638 9  23668684.878    23668691.095
 96  2 19 18 15 59.9990000  0  8 27 22 19 14 31 18 29 28
  24255078.741    -1998612.24549  -1538895.95149  24255079.5874   24255087.2604
  23495341.614    12414038.78149   9653232.10749  23495342.8364   23495349.7724
  21551594.996    -5759197.18949  -4447169.00549  21551599.7254   21551607.9404
  23075509.561    13820348.84249  10747590.13349  23075511.6734   23075519.5364
  23794736.319    -6551281.65249  -5089595.91949  23794744.0344   23794752.4684
  20323307.805    -4438249.06949  -3457585.87949  20323310.9894   20323317.1934
  20683115.359     3153785.92749   2448861.31449  20683118.4324   20683124.4164
  23658970.167    -6033582.740 9  -4699765.878 9  23658973.588    23658979.993
 96  2 19 18 16 29.9990000  0  8 27 22 19 14 31 18 29 28
  24239897.706    -2078388.66449  -1601059.37049  24239899.4544   24239907.4374
  23514048.313    12512356.92849   9729843.63049  23514050.8344   23514058.1304
  21541740.387    -5811000.03049  -4487534.83249  21541742.3194   21541749.5984
  23095721.810    13926560.78649  10830352.62649  23095723.2224   23095731.0564
  23778006.188    -6639243.97959  -5158137.90149  23778008.2604   23778016.2804
  20316509.177    -4473978.52049  -3485427.00249  20316511.7574   20316518.0254
  20688332.496     3181204.74949   2470226.62549  20688336.1554   20688342.0684
  23649293.815    -6084446.642 9  -4739400.058 9  23649295.767    23649302.046
 96  2 19 18 16 59.9990000  0  8 27 22 19 14 31 18 29 28
  24224687.705    -2158303.24249  -1663330.47549  24224691.1434   24224698.1504
  23532771.431    12610728.60449   9806496.86049  23532771.3644   23532778.2134
  21531882.783    -5862796.45049  -4527895.66849  21531886.1854   21531893.3934
  23115922.067    14032729.16149  10913081.17749  23115926.2524   23115934.6974
  23761250.603    -6727289.06649  -5226744.36549  23761250.3804   23761258.8764
  20309746.284    -4509515.55949  -3513118.19749  20309749.1844   20309755.5234
  20693587.402     3208815.43849   2491741.43649  20693590.6544   20693596.4814
  23639646.176    -6135123.276 9  -4778888.277 9  23639651.021    23639656.421
 96  2 19 18 17 29.9990000  0  8 27 22 19 14 31 18 29 28
  24209443.542    -2238393.29349  -1725738.30149  24209450.3414   24209458.1974
  23551483.741    12709084.25449   9883137.58049  23551487.6184   23551494.0904
  21522017.270    -5914641.91449  -4568294.72349  21522020.1294   21522027.1964
  23136104.806    14138791.40049  10995727.02349  23136109.8704   23136117.5354
  23744465.836    -6815480.62249  -5295464.99749  23744467.4014   23744476.5584
  20303009.208    -4544918.07849  -3540704.57649  20303012.4794   20303018.6164
  20698863.429     3236540.38649   2513345.27549  20698866.6364   20698872.2144
  23630030.175    -6185674.173 9  -4818278.540 9  23630031.806    23630037.619
 96  2 19 18 17 59.9990000  0  8 27 22 19 14 31 18 29 28
  24194196.996    -2318542.66449  -1788192.33249  24194198.5274   24194208.1264
  23570213.626    12807505.41149   9959829.35149  23570216.1444   23570223.8704
  21512159.617    -5966441.69749  -4608658.17349  21512162.5344   21512169.9134
  23156293.169    14244871.32149  11078386.68949  23156295.4094   23156304.4564
  23727675.429    -6903712.03549  -5364216.68749  23727678.3354   23727687.5744
  20296318.301    -4580083.05449  -3568105.84249  20296320.8004   20296327.1514
  20704180.677     3264483.89749   2535119.43449  20704183.6404   20704189.6304
  23620455.255    -6235993.774 9  -4857488.592 9  23620456.276    23620462.690
 96  2 19 18 18 29.9990000  0  8 27 22 19 14 31 18 29 28
  24178940.875    -2398700.16349  -1850652.71249  24178944.5264   24178952.8904
  23588961.738    12906018.50149  10036592.76849  23588963.2434   23588969.9154
  21502318.492    -6018156.62149  -4648955.50149  21502321.7604   21502328.8284
  23176489.478    14351021.18649  11161100.81949  23176496.1534   23176502.9984
  23710889.177    -6991931.30249  -5432958.87749  23710889.9114   23710898.7374
  20289679.739    -4614970.34749  -3595290.74249  20289682.0474   20289688.3694
  20709546.182     3292680.78849   2557091.02549  20709549.2604   20709555.3724
  23610929.879    -6286037.353 9  -4896483.532 9  23610932.941    23610939.493
 96  2 19 18 18 59.9990000  0  8 27 22 19 14 31 18 29 28
  24163675.986    -2478914.73249  -1913157.52249  24163681.4054   24163689.3334
  23607706.080    13004538.58049  10113361.64749  23607710.9634   23607717.2954
  21492481.737    -6069845.64749  -4689232.65449  21492485.9704   21492492.9564
  23196692.240    14457172.43749  11243816.02349  23196695.1084   23196703.9124
  23694093.471    -7080186.65149  -5501729.20649  23694099.0734   23694103.9304
  20283081.923    -4649635.91949  -3622302.87449  20283085.0364   20283091.6244
  20714950.955     3321081.05149   2579221.09749  20714953.8914   20714959.9954
  23601449.190    -6335860.021 9  -4935306.372 9  23601452.247    23601459.591
 96  2 19 18 19 29.9990000  0  8 27 22 19 14 31 18 29 28
  24148394.548    -2559207.20149  -1975723.07749  24148400.8074   24148409.9574
  23626455.707    13103044.79149  10190119.72549  23626455.4564   23626462.8094
  21482649.231    -6121519.30049  -4729497.82949  21482653.4224   21482660.0044
  23216887.664    14563300.34149  11326513.03749  23216889.9804   23216899.2924
  23677290.236    -7168503.63049  -5570547.57849  23677291.2544   23677298.1574
  20276522.678    -4684107.82849  -3649164.09649  20276525.2604   20276531.8414
  20720392.237     3349681.07349   2601506.82549  20720396.3854   20720402.0734
  23592010.183    -6385474.903 9  -4973967.302 9  23592011.163    23592016.997
 96  2 19 18 19 59.9990000  0  8 27 22 19 14 31 18 29 28
  24133099.338    -2639608.77149  -2038373.66649  24133102.1754   24133110.2884
  23645186.802    13201504.75149  10266841.76249  23645191.6274   23645199.1934
  21472817.332    -6173203.35049  -4769771.10949  21472818.3454   21472824.9494
  23237075.334    14669379.95749  11409172.41549  23237076.8154   23237085.4574
  23660466.087    -7256889.16649  -5639419.33249  23660470.8964   23660478.4074
  20269995.902    -4718405.70349  -3675889.70549  20269998.6034   20270005.2344
  20725873.710     3378476.82649   2623945.07549  20725875.9284   20725881.8204
  23582603.960    -6434900.156 9  -5012480.440 9  23582605.239    23582611.837
 96  2 19 18 20 29.9990000  0  8 27 22 19 14 31 18 29 28
  24117772.178    -2720124.13749  -2101112.89349  24117780.3894   24117787.9174
  23663920.847    13299923.17749  10343531.43049  23663920.0144   23663927.4104
  21462978.205    -6224890.79849  -4810047.02949  21462981.7234   21462988.9834
  23257246.064    14775383.61049  11491772.61549  23257249.3684   23257256.8574
  23643638.771    -7345336.24949  -5708339.12849  23643640.9404   23643649.9724
  20263502.969    -4752529.22449  -3702479.45949  20263505.2274   20263512.0454
  20731390.544     3407473.02949   2646539.52049  20731393.8234   20731399.5164
  23573234.756    -6484133.628 9  -5050844.180 9  23573236.562    23573242.702
 96  2 19 18 20 59.9990000  0  8 27 22 19 14 31 18 29 28
  24102418.148    -2800836.97349  -2164005.96549  24102420.5194   24102430.0834
  23682625.712    13398245.89949  10420146.52149  23682630.4724   23682638.3904
  21453128.121    -6276650.93849  -4850379.58649  21453132.2404   21453139.5414
  23277388.500    14881227.72149  11574248.49249  23277391.2874   23277398.8994
  23626782.240    -7433918.67449  -5777364.31649  23626784.0074   23626791.8664
  20257030.557    -4786541.90649  -3728982.84249  20257032.8114   20257039.3334
  20736932.986     3436598.94449   2669235.03649  20736935.9814   20736942.1654
  23563888.044    -6533246.354 9  -5089113.823 9  23563890.253    23563897.005
 96  2 19 18 21 29.9990000  0  8 27 22 19 14 31 18 29 28
  24087043.488    -2881643.79449  -2226972.24949  24087041.7804   24087053.0794
  23701343.223    13496603.31749  10496788.61649  23701346.3154   23701353.8924
  21443286.897    -6328367.62749  -4890678.29349  21443291.0814   21443298.7354
  23297517.795    14987025.57349  11656688.33049  23297522.2924   23297530.6064
  23609918.688    -7522529.32649  -5846411.54249  23609922.4824   23609926.3484
  20250598.992    -4820339.04449  -3755318.27949  20250601.6484   20250607.7674
  20742519.244     3465953.55749   2692108.75949  20742522.4284   20742528.2734
  23554588.481    -6582127.880 9  -5127203.289 9  23554589.009    23554595.840
 96  2 19 18 21 59.9990000  0  8 27 22 19 14 31 18 29 28
  24071659.609    -2962481.99949  -2289963.03449  24071659.8904   24071667.7454
  23720079.613    13595060.66549  10573508.57049  23720082.9464   23720091.1164
  21433469.561    -6379970.05249  -4930887.95049  21433471.6784   21433478.3544
  23317659.553    15092849.01649  11739148.10149  23317661.5834   23317668.4444
  23593067.235    -7611086.87649  -5915417.37649  23593068.9064   23593075.6964
  20244223.676    -4853845.47749  -3781427.18949  20244225.7314   20244231.6324
  20748158.456     3495589.88349   2715201.99949  20748161.6774   20748167.8084
  23545341.587    -6630710.293 9  -5165059.702 9  23545344.413    23545351.359
 96  2 19 18 22 29.9990000  0  8 27 22 19 14 31 18 29 28
  24056256.627    -3043403.49849  -2353018.70049  24056261.9674   24056271.2034
  23738826.558    13693583.67049  10650279.69349  23738831.0304   23738838.8294
  21423661.826    -6431500.19549  -4971041.28649  21423665.5694   21423672.9084
  23337788.210    15198651.22549  11821591.31449  23337794.8534   23337801.7554
  23576215.428    -7699641.26449  -5984420.75549  23576217.6304   23576225.8924
  20237893.143    -4887112.27449  -3807349.36749  20237895.1944   20237901.1524
  20753839.439     3525447.41049   2738467.59849  20753843.0944   20753849.4874
  23536143.758    -6679037.763 9  -5202717.457 9  23536146.849    23536154.564
 96  2 19 18 22 59.9990000  0  8 27 22 19 14 31 18 29 28
  24040831.177    -3124475.41149  -2416191.57249  24040835.0094   24040844.3634
  23757584.566    13792110.16849  10727053.56949  23757580.4664   23757588.1624
  21413856.895    -6483022.64149  -5011188.61649  21413861.1344   21413868.2894
  23357912.168    15304378.46149  11903976.12549  23357913.4894   23357921.2374
  23559354.479    -7788253.82349  -6053469.46449  23559356.4014   23559364.0824
  20231595.659    -4920200.11249  -3833132.09849  20231598.8304   20231604.9124
  20759552.085     3555462.56449   2761856.03149  20759554.9974   20759561.1304
  23526986.745    -6727168.204 9  -5240221.668 9  23526988.382    23526996.026
 96  2 19 18 23 29.9990000  0  8 27 22 19 14 31 18 29 28
  24025372.352    -3205737.53849  -2479512.64549  24025370.8724   24025379.0254
  23776315.527    13890570.57149  10803775.92049  23776316.9334   23776324.5194
  21404046.594    -6534586.63049  -5051368.31249  21404048.5394   21404055.7614
  23378007.593    15409988.45449  11986269.56749  23378010.4334   23378018.4934
  23542471.620    -7876969.76349  -6122598.72949  23542475.4714   23542481.9494
  20225323.883    -4953160.09749  -3858815.20649  20225326.2714   20225332.6294
  20765287.852     3585599.63149   2785339.46949  20765290.1004   20765296.2754
  23517856.832    -6775143.492 9  -5277605.003 9  23517859.236    23517865.835
 96  2 19 18 23 59.9990000  0  8 27 22 19 14 31 18 29 28
  24009875.532    -3287159.29949  -2542958.14649  24009876.6364   24009884.3664
  23795042.253    13988986.96249  10880463.98049  23795044.9854   23795052.4234
  21394229.012    -6586164.18349  -5091558.59649  21394233.3144   21394240.6584
  23398084.022    15515504.77849  12068490.01649  23398089.2684   23398097.7414
  23525579.153    -7965746.89649  -6191775.67249  23525580.2044   23525587.7084
  20219084.095    -4985945.06249  -3884361.93649  20219087.7934   20219093.9614
  20771052.704     3615899.90249   2808950.06149  20771055.9234   20771062.0874
  23508760.711    -6822927.332 9  -5314839.147 9  23508764.774    23508772.607
 96  2 19 18 24 29.9990000  0  8 27 22 19 14 31 18 29 28
  23994344.013    -3368766.55249  -2606548.15249  23994348.3154   23994353.2064
  23813759.229    14087327.60949  10957093.01549  23813757.9364   23813765.8644
  21384406.249    -6637795.44649  -5131790.72349  21384408.7864   21384415.5464
  23418140.537    15620879.09849  12150599.82449  23418142.3284   23418150.3724
  23508667.749    -8054623.67749  -6261030.28449  23508667.7454   23508676.0414
  20212873.929    -5018590.35449  -3909799.82549  20212875.7304   20212882.0704
  20776845.498     3646343.78849   2832672.56549  20776848.8074   20776855.4624
  23499698.936    -6870548.963 9  -5351946.883 9  23499703.455    23499710.295
 96  2 19 18 24 59.9990000  0  8 27 22 19 14 31 18 29 28
  23978783.346    -3450518.79949  -2670251.12749  23978790.5034   23978798.3364
  23832459.965    14185611.96749  11033678.18049  23832461.3264   23832469.3724
  21374573.617    -6689463.91049  -5172051.83749  21374576.3834   21374583.6704
  23438165.463    15726123.39749  12232608.30949  23438169.8694   23438177.6414
  23491735.075    -8143587.12649  -6330352.38449  23491738.5434   23491745.5344
  20206694.983    -5051057.46649  -3935098.87149  20206697.4484   20206703.7914
  20782670.931     3676955.35449   2856525.72649  20782674.0284   20782680.3294
  23490675.397    -6917984.411 9  -5388909.555 9  23490676.917    23490683.898
 96  2 19 18 25 29.9990000  0  8 27 22 19 14 31 18 29 28
  23963209.787    -3532356.03849  -2734020.39449  23963217.8174   23963225.1134
  23851159.558    14283886.18949  11110255.44849  23851162.2334   23851169.8744
  21364743.264    -6741125.51549  -5212307.61349  21364745.4984   21364753.0414
  23458182.043    15831286.49749  12314553.53349  23458181.7274   23458189.9094
  23474797.157    -8232588.58849  -6399704.11049  23474801.7124   23474809.8564
  20200562.074    -5083287.42549  -3960213.12249  20200563.9784   20200570.6004
  20788536.646     3707772.55549   2880539.12249  20788538.6404   20788544.4894
  23481693.507    -6965182.754 9  -5425687.462 9  23481695.211    23481701.940
 96  2 19 18 25 59.9990000  0  8 27 22 19 14 31 18 29 28
  23947623.847    -3614305.39349  -2797877.00249  23947622.6314   23947631.4964
  23869855.409    14382135.00649  11186812.94049  23869858.6774   23869867.0624
  21354908.411    -6792799.97149  -5252573.39749  21354911.9084   21354919.4634
  23478167.928    15936329.91649  12396405.47549  23478169.8364   23478179.6064
  23457852.819    -8321645.84549  -6469099.37449  23457854.4464   23457864.3244
  20194467.912    -5115306.18249  -3985162.80549  20194471.1614   20194477.5224
  20794432.287     3738761.04549   2904685.98949  20794435.6184   20794441.4034
  23472754.008    -7012167.896 9  -5462299.244 9  23472755.140    23472761.905
 96  2 19 18 26 29.9990000  0  8 27 22 19 14 31 18 29 28
  23932015.163    -3696291.90849  -2861762.55349  23932021.5244   23932029.1134
  23888559.812    14480418.52149  11263397.45849  23888562.0324   23888569.2704
  21345087.319    -6844417.18649  -5292794.59649  21345089.9984   21345097.4384
  23498147.978    16041322.69449  12478217.96349  23498150.2794   23498158.5904
  23440905.632    -8410688.13649  -6538482.92249  23440909.6544   23440918.5934
  20188426.615    -5147058.39549  -4009904.79149  20188428.7764   20188435.2104
  20800375.471     3769991.24949   2929021.20049  20800378.4614   20800384.6734
  23463864.873    -7058870.270 9  -5498690.662 9  23463867.907    23463874.887
 96  2 19 18 26 59.9990000  0  8 27 22 19 14 31 18 29 28
  23916405.390    -3778353.43349  -2925706.57249  23916404.9674   23916412.8444
  23907265.092    14578693.02549  11339974.98049  23907261.9634   23907269.8204
  21335268.509    -6896005.30849  -5332993.11349  21335272.9974   21335280.2704
  23518111.061    16146229.60649  12559963.54449  23518113.7594   23518121.4394
  23423962.766    -8499735.58649  -6607870.51549  23423964.5424   23423970.8994
  20182428.159    -5178577.69849  -4034465.28549  20182430.8594   20182437.0844
  20806355.567     3801419.44849   2953510.68649  20806359.4024   20806365.0144
  23455024.444    -7105324.758 9  -5534888.929 9  23455026.947    23455034.316
 96  2 19 18 27 29.9990000  0  8 27 22 19 14 31 18 29 28
  23900760.866    -3860553.40549  -2989758.45649  23900764.3114   23900771.7464
  23925941.024    14676888.77149  11416491.05649  23925948.4474   23925955.8514
  21325453.353    -6947604.27949  -5373200.08049  21325453.7534   21325461.3564
  23538051.369    16251011.17049  12641611.45649  23538052.8784   23538061.0384
  23407014.171    -8588797.50349  -6677269.35549  23407018.6534   23407022.8114
  20176463.990    -5209921.38549  -4058888.93349  20176466.1494   20176472.5884
  20812368.279     3833018.37549   2978133.20649  20812372.5404   20812378.3374
  23446226.341    -7151571.943 9  -5570925.685 9  23446227.018    23446233.363
 96  2 19 18 27 59.9990000  0  8 27 22 19 14 31 18 29 28
  23885106.269    -3942821.39349  -3053863.32649  23885108.6804   23885116.2824
  23944626.988    14775057.24949  11492985.90349  23944628.9924   23944637.0784
  21315644.530    -6999137.30549  -5413355.67849  21315647.3994   21315654.7554
  23557979.739    16355726.85849  12723208.03349  23557978.6264   23557987.0434
  23390078.260    -8677792.76049  -6746616.24449  23390081.0484   23390088.1694
  20170544.183    -5241029.76849  -4083129.23449  20170546.4544   20170553.0744
  20818431.757     3864873.97649   3002955.73749  20818434.5474   20818440.1564
  23437474.638    -7197540.191 9  -5606745.057 9  23437479.418    23437486.729
 96  2 19 18 28 29.9990000  0  8 27 22 19 14 31 18 29 28
  23869436.439    -4025161.81649  -3118024.69449  23869439.4744   23869447.2744
  23963303.441    14873187.80449  11569451.28749  23963303.2634   23963310.8464
  21305848.484    -7050623.03749  -5453474.41149  21305850.0204   21305856.8924
  23577890.015    16460371.38249  12804749.14349  23577892.1204   23577900.6304
  23373155.754    -8766715.56849  -6815906.73149  23373158.4474   23373168.7874
  20164669.663    -5271900.33149  -4107184.22049  20164672.2724   20164678.9624
  20824541.581     3896989.36049   3027980.68449  20824545.5244   20824551.2614
  23428780.549    -7243232.433 9  -5642349.385 9  23428783.904    23428790.560
 96  2 19 18 28 59.9990000  0  8 27 22 19 14 31 18 29 28
  23853743.306    -4107636.16449  -3182290.41149  23853744.1854   23853753.6954
  23981954.482    14971223.43649  11645842.67049  23981959.0994   23981966.6674
  21296045.850    -7102118.70249  -5493600.89949  21296050.8984   21296057.6744
  23597775.728    16564884.16749  12886187.59049  23597779.9314   23597788.8804
  23356235.757    -8855620.65849  -6885183.36649  23356240.9524   23356250.5874
  20158832.353    -5302570.25749  -4131082.86049  20158835.8564   20158842.6554
  20830693.207     3929305.10849   3053161.76349  20830695.2894   20830701.4174
  23420130.232    -7288699.202 9  -5677778.015 9  23420132.046    23420139.899
 96  2 19 18 29 29.9990000  0  8 27 22 19 14 31 18 29 28
  23838016.152    -4190290.34049  -3246696.26649  23838015.7794   23838024.0644
  24000585.811    15069120.12249  11722125.78249  24000587.3444   24000595.3574
  21286237.599    -7153670.85249  -5533771.39749  21286240.8654   21286247.5484
  23617637.376    16669228.61249  12967494.89249  23617635.6144   23617645.6924
  23339317.391    -8944566.88049  -6954492.07449  23339316.3524   23339323.0964
  20153026.840    -5333084.10649  -4154859.88049  20153029.0884   20153035.9964
  20836870.521     3961777.52849   3078464.92149  20836874.5704   20836880.5584
  23411513.302    -7333981.600 9  -5713062.988 9  23411514.738    23411522.568
 96  2 19 18 29 59.9990000  0  8 27 22 19 14 31 18 29 28
  23822262.911    -4273052.92249  -3311186.56749  23822265.7094   23822274.8824
  24019207.557    15166968.78149  11798371.46649  24019207.9144   24019215.0924
  21276429.681    -7205213.96849  -5573934.84949  21276432.3074   21276439.1884
  23637470.632    16773466.68949  13048719.27549  23637471.6894   23637481.0354
  23322387.725    -9033516.95249  -7023803.77549  23322388.8104   23322396.6424
  20147261.880    -5363377.11849  -4178464.82549  20147264.5624   20147271.0534
  20843090.737     3994456.00249   3103928.63849  20843092.9604   20843098.9764
  23402942.822    -7379011.870 9  -5748151.498 9  23402945.355    23402953.518
 96  2 19 18 30 29.9990000  0  8 27 22 19 14 31 18 29 28
  23806481.481    -4355986.23949  -3375809.93349  23806485.6184   23806494.1764
  24037809.531    15264718.38049  11874539.93749  24037809.5704   24037816.2114
  21266611.138    -7256804.81449  -5614135.48849  21266614.7024   21266621.5394
  23657273.839    16877552.06249  13129824.67849  23657279.4154   23657287.8694
  23305440.884    -9122542.52549  -7093174.27849  23305449.1404   23305456.9204
  20141527.726    -5393509.22049  -4201944.39249  20141530.7084   20141537.2564
  20849333.418     4027268.73449   3129496.97049  20849337.4254   20849343.6574
  23394413.911    -7423847.044 9  -5783088.001 9  23394414.975    23394423.447
 96  2 19 18 30 59.9990000  0  8 27 22 19 14 31 18 29 28
  23790690.128    -4438999.93349  -3440495.93149  23790687.5914   23790696.8854
  24056406.625    15362447.51049  11950692.49849  24056406.1654   24056414.2764
  21256806.173    -7308334.36449  -5654288.37349  21256809.1994   21256816.0924
  23677071.224    16981579.57549  13210885.01149  23677074.2094   23677083.2324
  23288506.456    -9211567.54749  -7162544.38249  23288507.2984   23288514.0974
  20135842.152    -5423392.51749  -4225230.08449  20135844.4654   20135850.6024
  20855618.324     4060300.87849   3155236.27449  20855622.9674   20855628.6844
  23385935.838    -7468396.309 9  -5817801.684 9  23385937.096    23385945.420
 96  2 19 18 31 29.9990000  0  8 27 22 19 14 31 18 29 28
  23774869.145    -4522100.95249  -3505249.96549  23774874.4724   23774883.3514
  24074995.974    15460154.89849  12026828.06749  24074998.5594   24075006.7564
  21247009.198    -7359813.96549  -5694402.33749  21247013.1754   21247019.6674
  23696850.384    17085537.29749  13291890.94349  23696857.5574   23696866.5614
  23271562.542    -9300599.21949  -7231919.62349  23271565.0804   23271571.6864
  20130198.858    -5453043.32849  -4248334.61649  20130201.7554   20130207.9604
  20861947.798     4093552.74849   3181146.80249  20861950.7194   20861956.8044
  23377510.779    -7512666.111 9  -5852297.632 9  23377512.637    23377520.277
 96  2 19 18 31 59.9990000  0  8 27 22 19 14 31 18 29 28
  23759035.732    -4605339.23549  -3570110.93249  23759035.7764   23759043.9194
  24093576.160    15557787.20649  12102905.15749  24093578.8264   24093583.7914
  21237210.732    -7411292.98449  -5734515.85149  21237217.0844   21237223.9334
  23716614.437    17189368.83549  13372798.55349  23716615.7944   23716625.5034
  23254614.898    -9389665.16749  -7301321.59749  23254617.9144   23254624.9524
  20124593.783    -5482497.30049  -4271285.76649  20124596.9094   20124603.2384
  20868309.256     4126983.29649   3207196.55349  20868312.3834   20868318.7194
  23369130.638    -7556702.502 9  -5886611.712 9  23369133.096    23369140.252
 96  2 19 18 32 29.9990000  0  8 27 22 19 14 31 18 29 28
  23743183.548    -4688608.90049  -3634996.37449  23743189.7384   23743198.2584
  24112160.804    15655441.67949  12178999.53749  24112160.7754   24112169.0764
  21227438.926    -7462657.89049  -5774540.45649  21227442.0334   21227449.2894
  23736367.622    17293175.05649  13453686.44449  23736369.2494   23736379.3824
  23237686.199    -9478629.41849  -7370644.34449  23237687.8134   23237694.1674
  20119049.670    -5511631.45949  -4293987.71249  20119052.8684   20119059.3324
  20874727.123     4160710.77349   3233477.67049  20874730.0264   20874736.2574
  23360816.450    -7600395.298 9  -5920658.039 9  23360819.162    23360826.781
 96  2 19 18 32 59.9990000  0  8 27 22 19 14 31 18 29 28
  23727309.730    -4772023.58649  -3699994.78549  23727317.0954   23727324.9594
  24130724.433    15753015.38749  12255030.93549  24130728.9074   24130737.6184
  21217662.669    -7514025.18749  -5814566.91849  21217667.5484   21217674.6254
  23756092.506    17396829.90049  13534456.33749  23756094.1784   23756102.9894
  23220756.088    -9567580.50249  -7439956.83149  23220760.1804   23220768.4544
  20113548.113    -5540546.34049  -4316518.79049  20113550.8024   20113557.2694
  20881183.177     4194636.89649   3259913.58249  20881186.3934   20881192.3884
  23352546.120    -7643849.185 9  -5954518.192 9  23352549.321    23352556.749
 96  2 19 18 33 29.9990000  0  8 27 22 19 14 31 18 29 28
  23711427.365    -4855521.43749  -3765057.97449  23711427.2094   23711434.9304
  24149294.862    15850577.75749  12331053.52749  24149293.7654   24149302.7564
  21207895.705    -7565352.83749  -5854562.47449  21207899.7554   21207907.2794
  23775794.533    17500381.53749  13615145.83649  23775800.6154   23775808.4074
  23203848.241    -9656439.63049  -7509197.65749  23203851.4544   23203857.8394
  20108097.323    -5569183.27549  -4338833.28649  20108101.2394   20108107.8954
  20887686.587     4228816.67249   3286547.15349  20887690.5544   20887696.6914
  23344334.026    -7687001.089 9  -5988143.025 9  23344336.823    23344344.999
 96  2 19 18 33 59.9990000  0  8 27 22 19 14 31 18 29 28
  23695528.301    -4939045.97749  -3830141.96849  23695532.7204   23695541.0074
  24167862.561    15948165.91149  12407096.19149  24167864.6984   24167872.7994
  21198144.886    -7616587.41349  -5894485.52749  21198149.9694   21198157.0784
  23795488.149    17603869.38249  13695785.60749  23795492.3834   23795501.8994
  23186969.354    -9745156.28949  -7578327.49649  23186968.6964   23186976.6644
  20102711.965    -5597490.28949  -4360890.70849  20102714.5664   20102721.0624
  20894244.792     4263278.85949   3313400.77749  20894248.5004   20894253.8724
  23336189.219    -7729806.635 9  -6021497.997 9  23336191.935    23336198.943
 96  2 19 18 34 29.9990000  0  8 27 22 19 14 31 18 29 28
  23679618.941    -5022616.86049  -3895262.07849  23679629.0164   23679636.9734
  24186429.756    16045746.87749  12483133.27749  24186434.2204   24186441.4524
  21188409.327    -7667759.35349  -5934359.76749  21188412.9164   21188420.0804
  23815165.633    17707253.50949  13776344.58349  23815165.8434   23815173.7504
  23170106.997    -9833763.58149  -7647372.06749  23170107.1324   23170116.2694
  20097381.658    -5625502.55949  -4382718.45149  20097384.0044   20097390.3024
  20900850.017     4297989.82949   3340448.27149  20900853.7844   20900859.8204
  23328106.704    -7772285.420 9  -6054598.340 9  23328108.886    23328116.685
 96  2 19 18 34 59.9990000  0  8 27 22 19 14 31 18 29 28
  23663727.731    -5106167.84849  -3960366.67549  23663728.7814   23663739.3184
  24205003.159    16143362.83649  12559197.60349  24205009.0994   24205016.2584
  21178692.421    -7718830.86649  -5974155.75049  21178694.4624   21178700.9774
  23834825.291    17810585.88149  13856863.20449  23834829.4444   23834839.2014
  23153272.713    -9922216.42249  -7716296.32849  23153275.3694   23153283.8064
  20092115.606    -5653169.56749  -4404277.16249  20092118.9054   20092125.1064
  20907511.937     4332991.01549   3367721.91349  20907514.4364   20907520.3204
  23320094.475    -7814383.154 9  -6087401.741 9  23320097.326    23320105.956
 96  2 19 18 35 29.9990000  0  8 27 22 19 14 31 18 29 28
  23647826.280    -5189743.27449  -4025490.33949  23647825.7124   23647835.2424
  24223581.701    16240956.95749  12635244.94549  24223581.0034   24223589.6474
  21168982.176    -7769846.09349  -6013907.87849  21168986.5554   21168993.5924
  23854472.248    17913823.51649  13937308.00849  23854473.9884   23854484.7014
  23136456.429   -10010571.28249  -7785144.22949  23136461.1744   23136470.0934
  20086908.990    -5680534.58849  -4425600.54949  20086911.4824   20086917.7924
  20914216.096     4368228.04049   3395179.32049  20914219.7174   20914225.1994
  23312148.324    -7856149.709 9  -6119947.081 9  23312150.555    23312158.694
 96  2 19 18 35 59.9990000  0  8 27 22 19 14 31 18 29 28
  23631919.622    -5273317.72749  -4090613.23849  23631922.9724   23631931.4434
  24242149.768    16338559.52249  12711298.80849  24242154.5384   24242162.2364
  21159296.401    -7820756.03749  -6053577.94749  21159298.7354   21159306.0094
  23874111.000    18017015.53149  14017717.26049  23874110.2524   23874120.8584
  23119670.620   -10098799.10549  -7853893.14449  23119672.0464   23119681.0914
  20081764.791    -5707563.61649  -4446662.14749  20081768.3784   20081774.4614
  20920976.198     4403745.29849   3422855.09349  20920978.7114   20920984.8404
  23304271.523    -7897545.916 9  -6152203.873 9  23304272.806    23304280.153
 96  2 19 18 36 29.9990000  0  8 27 22 19 14 31 18 29 28
  23616010.206    -5356937.60949  -4155771.53249  23616010.2864   23616017.7104
  24260722.511    16436133.74349  12787330.63349  24260722.1534   24260729.5514
  21149619.181    -7871595.26649  -6093192.91649  21149624.1334   21149631.0504
  23893727.511    18120136.01349  14098070.77249  23893736.2444   23893744.6694
  23102901.423   -10186932.13849  -7922568.20749  23102901.9844   23102909.9674
  20076678.149    -5734297.85949  -4467494.03149  20076681.1354   20076687.0214
  20927782.561     4439522.00949   3450733.03349  20927786.4074   20927792.5824
  23296457.391    -7938601.081 9  -6184194.888 9  23296459.981    23296467.215
 96  2 19 18 36 59.9990000  0  8 27 22 19 14 31 18 29 28
  23600086.574    -5440613.00949  -4220973.08949  23600087.3344   23600096.4464
  24279285.868    16533689.88649  12863348.37749  24279286.1174   24279293.1684
  21139958.199    -7922367.18549  -6132755.44949  21139962.5604   21139969.2414
  23913339.462    18223202.21249  14178381.97949  23913348.2114   23913358.3474
  23086141.322   -10274971.87949  -7991170.59849  23086147.6234   23086156.3944
  20071648.981    -5760730.47449  -4488090.88249  20071651.2274   20071657.2634
  20934640.135     4475558.46749   3478813.37449  20934644.0924   20934650.1154
  23288710.058    -7979323.328 9  -6215926.500 9  23288711.800    23288719.503
 96  2 19 18 37 29.9990000  0  8 27 22 19 14 31 18 29 28
  23584148.555    -5524365.51149  -4286234.77449  23584150.7844   23584156.6474
  24297840.887    16631228.24349  12939352.25049  24297846.7134   24297856.1034
  21130311.835    -7973073.20949  -6172266.62249  21130313.7744   21130320.2904
  23932943.755    18326208.45149  14258646.48849  23932949.9964   23932959.2114
  23069402.830   -10362928.31249  -8059708.03949  23069408.3224   23069417.7384
  20066675.330    -5786866.55249  -4508456.66149  20066677.4934   20066683.5304
  20941550.216     4511864.15249   3507103.51149  20941552.8654   20941559.0154
  23281023.769    -8019716.490 9  -6247401.695 9  23281024.666    23281030.719
 96  2 19 18 37 59.9990000  0  8 27 22 19 14 31 18 29 28
  23568197.569    -5608172.54849  -4351538.91649  23568201.4604   23568209.0784
  24316407.202    16728753.16149  13015345.63149  24316405.2234   24316414.8734
  21120674.297    -8023696.76549  -6211713.53649  21120680.3194   21120686.8604
  23952539.354    18429159.70149  14338868.11649  23952541.4544   23952549.5744
  23052691.792   -10450774.58449  -8128159.65649  23052694.2064   23052701.8854
  20061760.211    -5812691.81949  -4528580.24749  20061763.0064   20061769.5784
  20948512.185     4548455.03849   3535615.87549  20948516.1404   20948522.0794
  23273401.036    -8059760.012 9  -6278604.429 9  23273404.408    23273410.916
 96  2 19 18 38 29.9990000  0  8 27 22 19 14 31 18 29 28
  23552246.593    -5692008.23349  -4416865.38449  23552248.3404   23552257.5514
  24334966.264    16826266.17949  13091329.77849  24334962.7954   24334969.5764
  21111058.918    -8074237.35049  -6251095.79549  21111062.5604   21111068.9484
  23972118.032    18532046.88649  14419039.83049  23972119.6444   23972129.4784
  23035998.716   -10538494.00649  -8196512.41149  23036000.1414   23036007.8684
  20056909.011    -5838189.27949  -4548448.40649  20056911.1844   20056917.4034
  20955532.316     4585337.93949   3564355.78149  20955534.8114   20955540.7964
  23265848.358    -8099447.691 9  -6309529.885 9  23265851.380    23265859.668
 96  2 19 18 38 59.9990000  0  8 27 22 19 14 31 18 29 28
  23536296.267    -5775818.47049  -4482172.06049  23536301.3594   23536308.9594
  24353527.738    16923814.88949  13167341.70749  24353524.6434   24353533.5764
  21101465.931    -8124649.19549  -6290377.71949  21101469.6504   21101476.4194
  23991695.229    18634906.92749  14499190.41149  23991692.3264   23991702.0224
  23019343.622   -10626023.34749  -8264717.03749  23019346.8854   23019352.5534
  20052128.529    -5863305.94449  -4568019.83549  20052131.6004   20052137.6564
  20962616.232     4622565.10849   3593363.94849  20962618.9034   20962624.6214
  23258372.806    -8138727.924 9  -6340137.856 9  23258377.632    23258385.570
 96  2 19 18 39 29.9990000  0  8 27 22 19 14 31 18 29 28
  23520347.364    -5859639.97649  -4547487.49649  23520348.1904   23520356.3214
  24372082.988    17021347.13349  13243340.78449  24372085.7004   24372092.8504
  21091891.666    -8174958.85849  -6329580.03049  21091896.4234   21091903.0574
  24011245.476    18737676.10549  14579270.15949  24011250.6434   24011259.9184
  23002717.599   -10713392.38349  -8332796.74149  23002720.0914   23002727.1364
  20047412.992    -5888091.37349  -4587333.16349  20047415.4254   20047421.2534
  20969755.941     4660090.95549   3622604.85149  20969759.4924   20969765.2354
  23250970.579    -8177634.628 9  -6370454.770 9  23250973.907    23250981.749
 96  2 19 18 39 59.9990000  0  8 27 22 19 14 31 18 29 28
  23504395.322    -5943467.86749  -4612807.90049  23504396.8204   23504405.0044
  24390637.348    17118862.76049  13319326.96749  24390641.2734   24390648.5144
  21082343.346    -8225152.47949  -6368691.91949  21082344.3994   21082350.6894
  24030789.760    18840349.85949  14659275.57349  24030788.0024   24030798.8254
  22986123.311   -10800581.92849  -8400736.56949  22986127.9034   22986135.1164
  20042757.713    -5912549.22149  -4606391.23049  20042761.0994   20042767.0484
  20976951.166     4697897.71049   3652064.64149  20976954.1614   20976960.0034
  23243639.195    -8216162.695 9  -6400476.633 9  23243641.386    23243648.254
 96  2 19 18 40 29.9990000  0  8 27 22 19 14 31 18 29 28
  23488425.040    -6027370.45849  -4678186.53849  23488430.7284   23488439.5414
  24409184.818    17216315.18049  13395263.90749  24409186.7784   24409193.5754
  21072798.727    -8275294.98149  -6407763.98049  21072802.8204   21072808.9644
  24050292.377    18942868.33549  14739159.98849  24050296.8754   24050307.5654
  22969559.796   -10887643.35049  -8468576.56949  22969560.5284   22969567.9874
  20038156.994    -5936732.95749  -4625235.70349  20038158.9594   20038165.2234
  20984188.185     4735928.10149   3681698.70049  20984191.1494   20984197.2424
  23236370.775    -8254368.436 9  -6430247.349 9  23236372.159    23236377.660
 96  2 19 18 40 59.9990000  0  8 27 22 19 14 31 18 29 28
  23472450.001    -6111334.75749  -4743613.22049  23472452.4104   23472461.4204
  24427724.627    17313724.68749  13471167.38649  24427722.7734   24427729.8844
  21063270.843    -8325362.35749  -6446777.50449  21063275.1284   21063281.7054
  24069778.006    19045260.37649  14818945.88849  24069780.6154   24069792.2554
  22953021.275   -10974541.08349  -8536289.00349  22953023.3544   22953031.8144
  20033610.812    -5960615.70549  -4643845.63549  20033613.8984   20033620.2264
  20991468.295     4774194.84849   3711516.92049  20991472.6014   20991479.1144
  23229164.883    -8292223.365 9  -6459744.691 9  23229168.297    23229175.202
 96  2 19 18 41 29.9990000  0  8 27 22 19 14 31 18 29 28
  23456450.794    -6195410.12749  -4809126.45249  23456452.8214   23456461.2934
  24446237.621    17411041.25049  13546998.43049  24446242.2664   24446247.9614
  21053749.946    -8375404.10249  -6485771.04849  21053752.6024   21053758.8694
  24089228.303    19147483.87249  14898600.44349  24089232.5484   24089243.9384
  22936506.618   -11061320.97149  -8603909.57649  22936509.7184   22936518.4244
  20029113.529    -5984250.58149  -4662262.41749  20029116.4104   20029122.6464
  20998783.818     4812640.83449   3741474.81649  20998788.8544   20998794.6314
  23222018.186    -8329773.121 9  -6489004.225 9  23222022.394    23222030.115
 96  2 19 18 41 59.9990000  0  8 27 22 19 14 31 18 29 28
  23440440.957    -6279560.36149  -4874698.05549  23440442.3544   23440448.7394
  24464738.262    17508282.45649  13622770.76749  24464745.9984   24464752.9114
  21044231.635    -8425416.98549  -6524742.10549  21044235.3884   21044242.1474
  24108657.394    19249579.38249  14978155.24849  24108662.1494   24108672.9584
  22920018.599   -11147951.95649  -8671414.15949  22920024.2804   22920032.8904
  20024670.605    -6007596.38249  -4680453.94849  20024673.9634   20024680.0814
  21006143.380     4851300.56149   3771599.26049  21006145.5964   21006151.5334
  23214939.397    -8366987.949 9  -6518002.773 9  23214941.392    23214947.782
 96  2 19 18 42 29.9990000  0  8 27 22 19 14 31 18 29 28
  23424422.681    -6363729.50749  -4940284.36149  23424423.9614   23424432.2284
  24483244.343    17605487.53149  13698514.91849  24483243.4964   24483252.5364
  21034725.752    -8475367.38849  -6563664.47849  21034730.3204   21034736.8904
  24128070.008    19351601.72949  15057653.06449  24128076.9734   24128087.4214
  22903573.518   -11234394.08549  -8738771.57549  22903576.2224   22903583.1334
  20020294.435    -6030603.58149  -4698381.62749  20020296.1494   20020302.2224
  21013551.630     4890235.51349   3801938.16349  21013554.8174   21013560.9804
  23207928.975    -8403819.480 9  -6546702.630 9  23207931.842    23207939.380
 96  2 19 18 42 59.9990000  0  8 27 22 19 14 31 18 29 28
  23408394.149    -6447951.54149  -5005911.87849  23408396.6664   23408406.6644
  24501721.274    17702599.45049  13774186.46349  24501722.5104   24501730.6614
  21025227.226    -8525291.74749  -6602566.55949  21025229.8004   21025236.8484
  24147465.293    19453511.17749  15137062.91949  24147469.9254   24147479.1974
  22887154.028   -11320694.20249  -8806018.35549  22887153.1634   22887160.4364
  20015972.124    -6053314.47049  -4716078.41849  20015974.3004   20015980.7314
  21021005.506     4929413.28849   3832466.27549  21021010.2124   21021015.8404
  23200987.729    -8440307.409 9  -6575134.774 9  23200989.077    23200995.923
 96  2 19 18 43 29.9990000  0  8 27 22 19 14 31 18 29 28
  23392351.752    -6532253.03349  -5071601.35149  23392353.5344   23392361.4154
  24520175.351    17799597.69049  13849769.43949  24520181.4734   24520190.0044
  21015724.735    -8575221.19849  -6641472.61249  21015728.5484   21015735.9254
  24166829.192    19555258.88049  15216346.72049  24166831.7504   24166841.3434
  22870744.815   -11406898.11249  -8873190.11449  22870749.1244   22870757.4064
  20011701.902    -6075750.72749  -4733561.20749  20011704.3824   20011710.9724
  21028504.791     4968815.99349   3863169.66449  21028508.0544   21028514.1984
  23194103.490    -8476483.841 9  -6603324.168 9  23194104.761    23194111.861
 96  2 19 18 43 59.9990000  0  8 27 22 19 14 31 18 29 28
  23376312.570    -6616551.32349  -5137288.29249  23376312.4104   23376320.6824
  24538633.571    17896566.57249  13925329.57449  24538633.2324   24538642.0034
  21006240.916    -8625057.76249  -6680306.29449  21006244.9094   21006251.7764
  24186173.514    19656911.99049  15295556.84449  24186175.6344   24186185.1824
  22854374.850   -11492932.22949  -8940229.62449  22854378.3494   22854385.4474
  20007502.734    -6097808.54149  -4750749.11449  20007506.9654   20007513.5774
  21036062.929     5008533.68549   3894118.49949  21036066.1564   21036072.4104
  23187292.748    -8512266.584 9  -6631206.771 9  23187295.350    23187303.073
 96  2 19 18 44 29.9990000  0  8 27 22 19 14 31 18 29 28
  23360272.082    -6700823.98549  -5202955.27249  23360276.5074   23360285.9904
  24557090.150    17993556.64149  14000906.19649  24557091.0354   24557098.4664
  20996790.384    -8674732.42049  -6719013.80649  20996792.2744   20996798.8434
  24205507.980    19758492.98949  15374710.78449  24205506.9774   24205513.8834
  22838045.657   -11578755.88249  -9007105.13549  22838046.3494   22838054.1194
  20003386.430    -6119450.45549  -4767612.93549  20003388.5494   20003395.1304
  21043687.493     5048606.46349   3925344.01449  21043691.8874   21043697.6364
  23180563.735    -8547617.748 9  -6658753.096 9  23180568.178    23180576.097
 96  2 19 18 44 59.9990000  0  7 27 19 14 31 18 29 28
  23344217.193    -6785204.57049  -5268706.38449  23344219.1924   23344226.4734
  20987344.491    -8724358.62949  -6757683.57649  20987348.8404   20987355.4954
  24224792.668    19859864.13149  15453701.16249  24224796.8784   24224807.9274
  22821730.044   -11664482.21349  -9073904.83749  22821732.4994   22821739.3064
  19999326.086    -6140783.35349  -4784235.96749  19999329.2114   19999335.6214
  21051357.907     5088907.93949   3956747.74249  21051360.6804   21051367.1474
  23173897.018    -8582655.831 9  -6686055.472 9  23173900.618    23173907.264
 96  2 19 18 45 29.9990000  0  7 27 19 14 31 18 29 28
  23328157.525    -6869599.91049  -5334468.95949  23328159.2614   23328167.3394
  20977932.349    -8773829.01349  -6796231.92349  20977934.8704   20977941.5284
  24244059.438    19961127.49249  15532607.58449  24244067.4294   24244076.5114
  22805454.255   -11750004.70549  -9140545.68249  22805457.1924   22805465.2544
  19995343.514    -6161712.56049  -4800544.43349  19995346.7534   19995352.8244
  21059085.793     5129530.54649   3988401.69749  21059091.1744   21059097.2834
  23167309.948    -8617271.900 9  -6713028.995 9  23167313.240    23167320.673
 96  2 19 18 45 59.9990000  0  7 27 19 14 31 18 29 28
  23312088.831    -6954035.83649  -5400263.16149  23312092.1204   23312099.5464
  20968541.511    -8823165.98349  -6834676.31749  20968546.3714   20968553.2594
  24263313.353    20062274.52749  15611423.35449  24263314.4834   24263323.5494
  22789216.193   -11835339.83449  -9207040.55649  22789218.8924   22789225.9974
  19991431.367    -6182277.21349  -4816568.83849  19991433.5664   19991439.3374
  21066874.413     5170446.15849   4020283.97649  21066876.7884   21066883.1914
  23160799.211    -8651482.265 9  -6739686.378 9  23160803.356    23160809.936
 96  2 19 18 46 29.9990000  0  7 27 19 14 31 18 29 28
  23296003.322    -7038569.62449  -5466133.63449  23296006.5674   23296014.7324
  20959164.359    -8872450.25849  -6873079.65149  20959167.6734   20959174.7384
  24282525.630    20163247.12249  15690103.19049  24282528.5864   24282538.5064
  22773002.054   -11920538.38349  -9273428.98549  22773006.6324   22773013.2314
  19987571.921    -6202555.41849  -4832370.03449  19987574.9974   19987580.5444
  21074703.439     5211584.91849   4052340.13849  21074705.3014   21074711.3534
  23154356.077    -8685341.718 9  -6766070.325 9  23154359.455    23154365.963
 96  2 19 18 46 59.9990000  0  7 27 19 14 31 18 29 28
  23279920.475    -7123075.39649  -5531982.23849  23279925.3074   23279933.5754
  20949814.932    -8921590.37349  -6911370.64849  20949816.5694   20949823.6784
  24301727.997    20264149.88549  15768728.61449  24301729.2004   24301738.9724
  22756839.688   -12005485.59649  -9339621.59949  22756842.3194   22756848.6854
  19983786.253    -6222445.94849  -4847869.14949  19983789.7264   19983795.5664
  21082592.121     5253045.31049   4084646.92749  21082595.3644   21082601.1114
  23148003.498    -8718737.009 9  -6792092.587 9  23148004.810    23148011.744
 96  2 19 18 47 29.9990000  0  7 27 19 14 31 18 29 28
  23263840.880    -7207571.18549  -5597823.09349  23263846.4234   23263852.9974
  20940484.216    -8970616.69849  -6949572.97649  20940487.4004   20940494.3264
  24320912.232    20364961.66649  15847283.17249  24320911.8834   24320923.1924
  22740714.504   -12090212.52349  -9405642.55349  22740718.9774   22740726.5274
  19980065.469    -6241998.59049  -4863104.97949  19980069.0704   19980074.7934
  21090537.751     5294801.84649   4117184.47449  21090541.2394   21090547.5684
  23141726.953    -8751703.217 9  -6817780.493 9  23141731.343    23141738.889
 96  2 19 18 47 59.9990000  0  7 27 19 14 31 18 29 28
  23247774.983    -7292013.76449  -5663622.48249  23247776.7084   23247784.9224
  20931182.664    -9019495.68049  -6987660.49849  20931185.7194   20931192.8214
  24340086.985    20465714.15949  15925791.47949  24340087.2854   24340095.3474
  22724646.534   -12174665.41849  -9471449.96649  22724647.7654   22724654.5834
  19976419.753    -6261159.81249  -4878035.80549  19976422.5874   19976428.3344
  21098546.705     5336891.07649   4149981.26049  21098550.4024   21098556.6314
  23135543.744    -8784205.723 9  -6843107.081 9  23135546.445    23135553.143
 96  2 19 18 48 29.9990000  0  7 27 19 14 31 18 29 28
  23231709.238    -7376409.64649  -5729385.46249  23231717.3494   23231725.7164
  20921908.090    -9068241.65949  -7025644.37849  20921909.5754   20921916.2704
  24359249.516    20566394.41049  16004243.53449  24359244.4084   24359254.8024
  22708627.707   -12258844.61149  -9537044.11949  22708628.6764   22708635.9394
  19972847.830    -6279929.22949  -4892661.32849  19972850.8224   19972856.6904
  21106617.441     5379303.60849   4183029.98249  21106621.2704   21106627.6254
  23129443.395    -8816260.520 9  -6868084.785 9  23129447.308    23129453.574
 96  2 19 18 48 59.9990000  0  7 27 19 14 31 18 29 28
  23215672.410    -7460727.42449  -5795087.59749  23215672.6844   23215680.0324
  20912661.908    -9116821.62449  -7063498.89549  20912665.1554   20912672.1734
  24378396.946    20667050.18049  16082676.47349  24378400.3804   24378409.5354
  22692664.085   -12342728.04549  -9602407.80949  22692665.4064   22692673.4084
  19969358.180    -6298263.00249  -4906947.39349  19969361.6654   19969367.9224
  21114759.652     5422082.66349   4216364.29649  21114762.3804   21114768.3014
  23123435.404    -8847842.192 9  -6892693.848 9  23123437.568    23123443.504
 96  2 19 18 49 29.9990000  0  7 27 19 14 31 18 29 28
  23199620.579    -7545053.99049  -5860796.56249  23199624.5644   23199632.9764
  20903435.077    -9165306.53049  -7101279.34449  20903438.6134   20903445.4234
  24397533.358    20767625.31849  16161046.62049  24397536.7854   24397547.1724
  22676743.761   -12426386.42549  -9667596.15649  22676746.3894   22676753.6294
  19965942.091    -6316217.87749  -4920938.20949  19965945.5604   19965951.4904
  21122956.767     5465164.29349   4249934.37449  21122960.2224   21122966.3584
  23117501.630    -8879019.922 9  -6916988.160 9  23117504.205    23117510.765
 96  2 19 18 49 59.9990000  0  7 27 19 14 31 18 29 28
  23183565.374    -7629423.91549  -5926539.33149  23183570.1504   23183578.5364
  20894220.807    -9213736.35549  -7139016.87049  20894222.9594   20894229.4454
  24416652.066    20868081.26049  16239323.85649  24416655.0704   24416664.3914
  22660861.154   -12509841.46149  -9732626.02749  22660866.0574   22660872.2684
  19962594.956    -6333813.05349  -4934648.73749  19962597.1214   19962602.9984
  21131207.771     5508519.79149   4283717.86549  21131210.4834   21131216.6504
  23111641.419    -8909817.775 9  -6940986.456 9  23111643.809    23111650.722
 96  2 19 18 50 29.9990000  0  7 27 19 14 31 18 29 28
  23167495.379    -7713873.87849  -5992344.46849  23167498.5424   23167506.4294
  20885006.738    -9262153.82749  -7176744.75949  20885009.2284   20885016.1294
  24435735.318    20968365.61549  16317467.42949  24435738.8104   24435747.4624
  22645010.504   -12593142.48649  -9797535.91249  22645014.1754   22645020.3974
  19959301.935    -6351110.66949  -4948127.40249  19959305.2474   19959311.5664
  21139501.246     5552106.47149   4317681.49749  21139504.8624   21139510.8464
  23105843.840    -8940280.697 9  -6964723.798 9  23105846.835    23105853.083
 96  2 19 18 50 59.9990000  0  7 27 19 14 31 18 29 28
  23151428.489    -7798312.31949  -6058140.61049  23151431.4034   23151439.0194
  20875815.086    -9310449.38849  -7214377.65949  20875818.9464   20875826.0424
  24454797.906    21068555.62549  16395537.42849  24454803.6074   24454814.1914
  22629211.110   -12676178.32949  -9862239.13249  22629212.0224   22629220.8054
  19956084.603    -6368017.38649  -4961301.46849  19956088.2364   19956094.3114
  21147857.288     5596018.52649   4351898.66749  21147860.8814   21147867.0614
  23100128.786    -8970299.611 9  -6988115.154 9  23100133.790    23100140.625
 96  2 19 18 51 29.9990000  0  7 27 19 14 31 18 29 28
  23135375.283    -7882668.74849  -6123872.88149  23135379.9254   23135387.0694
  20866665.311    -9358539.12349  -7251850.16249  20866667.8484   20866674.3534
  24473859.790    21168700.77049  16473572.54849  24473858.9394   24473871.1614
  22613477.568   -12758846.26449  -9926655.66449  22613481.4334   22613487.9544
  19952955.552    -6384460.68549  -4974114.42849  19952959.1454   19952965.2674
  21156291.113     5640337.72449   4386433.08749  21156294.7854   21156300.5004
  23094521.630    -8999787.910 9  -7011093.043 9  23094523.496    23094529.421
 96  2 19 18 51 59.9990000  0  7 27 19 14 31 18 29 28
  23119336.491    -7966947.96449  -6189544.95249  23119341.2594   23119348.2924
  20857549.847    -9406433.33849  -7289170.31249  20857553.8814   20857560.8254
  24492900.484    21268761.85049  16551542.05749  24492903.0984   24492910.5614
  22597814.538   -12841160.56349  -9990796.66749  22597817.6964   22597824.7794
  19949911.136    -6400462.28449  -4986583.21149  19949913.6954   19949920.2894
  21164798.157     5685039.81449   4421265.86149  21164801.8024   21164807.0404
  23089007.182    -9028758.391 9  -7033667.432 9  23089009.498    23089016.425
 96  2 19 18 52 29.9990000  0  6 27 19 31 18 29 28
  23103304.150    -8051202.46449  -6255197.80449  23103308.8914   23103315.9824
  20848466.498    -9454170.73549  -7326368.26749  20848469.8254   20848476.2144
  22582209.087   -12923169.42849 -10054699.63149  22582212.2994   22582219.8644
  19946941.815    -6416064.50449  -4998740.79449  19946945.1304   19946951.4044
  21173364.010     5730061.04449   4456347.31549  21173368.5734   21173374.3354
  23083582.579    -9057255.077 9  -7055872.648 9  23083586.512    23083593.444
 96  2 19 18 52 59.9990000  0  6 27 19 31 18 29 28
  23087259.158    -8135518.26549  -6320898.40549  23087263.2234   23087271.5964
  20839399.318    -9501829.27049  -7363504.76349  20839400.8024   20839406.8624
  22566645.922   -13004954.07549 -10118427.85349  22566647.6684   22566656.0154
  19944039.289    -6431316.39949  -5010625.39049  19944042.7784   19944049.0674
  21181979.879     5775336.56549   4491626.92649  21181984.2994   21181989.9644
  23078238.301    -9085344.353 9  -7077760.410 9  23078242.207    23078248.368
 96  2 19 18 53 29.9990000  0  6 27 19 31 18 29 28
  23071215.986    -8219831.72849  -6386597.17849  23071218.8014   23071227.3774
  20830354.058    -9549357.78449  -7400539.94549  20830356.6144   20830362.9104
  22551130.840   -13086476.36349 -10181951.69249  22551136.0014   22551142.1744
  19941217.536    -6446148.77049  -5022183.09349  19941220.3404   19941226.6394
  21190654.177     5820920.86949   4527147.14249  21190658.5584   21190664.5394
  23072981.656    -9112974.993 9  -7099290.791 9  23072984.504    23072990.683
 96  2 19 18 53 59.9990000  0  6 27 19 31 18 29 28
  23055186.106    -8304099.44349  -6452260.32249  23055183.7414   23055190.7364
  20821338.155    -9596728.46149  -7437452.14649  20821341.9394   20821348.6584
  22535671.952   -13167710.52749 -10245251.01849  22535675.5674   22535685.1994
  19938482.376    -6460520.43549  -5033381.80649  19938485.7134   19938491.7834
  21199389.429     5866820.15749   4562912.79849  21199392.3874   21199398.7354
  23067816.679    -9140117.649 9  -7120440.919 9  23067819.093    23067824.862
 96  2 19 18 54 29.9990000  0  6 27 19 31 18 29 28
  23039143.846    -8388357.22449  -6517915.71949  23039149.2404   23039157.6614
  20812346.038    -9643976.98549  -7474269.16349  20812350.8104   20812357.6514
  22520266.317   -13248682.61149 -10308346.09849  22520268.9774   22520275.1174
  19935831.378    -6474458.74049  -5044242.83249  19935833.2474   19935839.3744
  21208179.365     5913012.75149   4598907.00449  21208182.6964   21208189.1844
  23062737.877    -9166808.482 9  -7141238.971 9  23062739.784    23062746.231
 96  2 19 18 54 59.9990000  0  6 27 19 31 18 29 28
  23023109.699    -8472633.06949  -6583585.18149  23023114.2174   23023120.2584
  20803371.593    -9691146.58649  -7511024.67949  20803374.7584   20803381.3614
  22504896.263   -13329434.99249 -10371269.96549  22504900.7074   22504908.8534
  19933252.889    -6488002.34149  -5054796.29349  19933255.6934   19933262.0054
  21217018.996     5959467.09549   4635105.17749  21217022.7354   21217029.2934
  23057734.479    -9193092.668 9  -7161720.173 9  23057738.377    23057743.950
 96  2 19 18 55 29.9990000  0  7 27  2 19 31 18 29 28
  23007083.931    -8556848.41749  -6649207.48149  23007086.9944   23007094.7694
  24804191.481    -1917972.09359  -1473676.10059  24804202.4144   24804213.7194
  20794423.307    -9738168.01749  -7547664.73249  20794427.0214   20794433.7094
  22489586.743   -13409881.68449 -10433955.66349  22489593.2524   22489600.5494
  19930760.100    -6501103.82349  -5065005.25049  19930762.4414   19930769.0134
  21225920.490     6006239.13149   4671550.89949  21225923.3924   21225929.3774
  23052822.968    -9218909.032 9  -7181836.809 9  23052825.166    23052831.882
 96  2 19 18 55 59.9990000  0  7 27  2 19 31 18 29 28
  22991071.565    -8640999.08249  -6714779.41749  22991074.3504   22991079.5624
  24783432.811    -2027144.04049  -1558745.14049  24783430.7964   24783441.4904
  20785506.872    -9785032.37849  -7584182.40749  20785508.7554   20785515.4014
  22474344.876   -13489997.95549 -10496383.89949  22474347.7714   22474355.1364
  19928348.452    -6513775.34949  -5074879.17649  19928351.6164   19928357.8144
  21234883.376     6053341.13349   4708253.74149  21234886.8304   21234892.1864
  23048000.621    -9244250.393 9  -7201583.319 9  23048003.032    23048009.310
 96  2 19 18 56 29.9990000  0  7 27  2 19 31 18 29 28
  22975049.301    -8725191.96249  -6780384.20349  22975052.1144   22975058.4674
  24762640.362    -2136367.89149  -1643854.62349  24762646.2474   24762656.0504
  20776598.735    -9831834.95249  -7620651.94149  20776602.5304   20776608.8054
  22459138.085   -13569894.24149 -10558640.70749  22459144.3044   22459151.9864
  19925997.743    -6526132.31649  -5084507.98349  19926000.2014   19926006.3604
  21243894.386     6100695.73449   4745153.41249  21243898.1354   21243903.8474
  23043249.410    -9269216.186 9  -7221037.180 9  23043252.980    23043258.971
 96  2 19 18 56 59.9990000  0  7 27  2 19 31 18 29 28
  22959032.094    -8809358.39549  -6845968.39449  22959035.4294   22959041.9874
  24741864.135    -2245557.04149  -1728936.97449  24741867.4384   24741876.4094
  20767719.126    -9878504.13549  -7657017.54549  20767722.0424   20767728.0134
  22443996.570   -13649499.37949 -10620670.65149  22443997.4674   22444002.7284
  19923717.617    -6538113.69549  -5093844.12849  19923720.0244   19923726.4774
  21252965.969     6148367.65549   4782300.33749  21252969.5644   21252975.1754
  23038584.457    -9293728.180 9  -7240137.431 9  23038587.616    23038593.845
 96  2 19 18 57 29.9990000  0  7 27  2 19 31 18 29 28
  22943012.955    -8893547.35649  -6911570.10549  22943014.5944   22943021.2834
  24721090.146    -2354724.81449  -1814002.76149  24721094.8804   24721103.0194
  20758856.063    -9925074.06449  -7693305.79449  20758859.7454   20758865.8744
  22428896.134   -13728835.69249 -10682491.09649  22428897.5114   22428905.4944
  19921500.624    -6549760.64649  -5102919.68149  19921503.5824   19921510.0634
  21262089.770     6196320.84749   4819666.43949  21262094.6314   21262100.6364
  23034002.821    -9317813.637 9  -7258905.306 9  23034004.544    23034011.621
 96  2 19 18 57 59.9990000  0  7 27  2 19 31 18 29 28
  22926985.362    -8977754.91349  -6977186.32849  22926991.1914   22926998.5364
  24700324.707    -2463862.90849  -1899045.38749  24700326.1584   24700335.8174
  20750016.020    -9971537.64849  -7729511.18549  20750018.0794   20750024.7244
  22413847.378   -13807903.25249 -10744102.15149  22413851.6554   22413859.6904
  19919353.887    -6561046.23749  -5111713.66049  19919356.0734   19919362.6024
  21271272.626     6244570.40149   4857263.46349  21271276.0694   21271282.0774
  23029501.756    -9341459.001 9  -7277330.259 9  23029504.571    23029511.748
 96  2 19 18 58 29.9990000  0  7 27  2 19 31 18 29 28
  22910973.064    -9061905.66249  -7042758.29649  22910977.1024   22910983.7214
  24679580.257    -2572889.40149  -1984001.05249  24679579.7064   24679587.9224
  20741205.655   -10017826.03149  -7765580.03949  20741209.9414   20741216.4394
  22398867.762   -13886628.78749 -10805446.69749  22398870.4984   22398878.9754
  19917293.010    -6571869.69949  -5120147.53349  19917296.4994   19917302.5974
  21280522.383     6293180.13549   4895141.15149  21280526.0434   21280532.4434
  23025101.307    -9364586.454 9  -7295351.652 9  23025103.831    23025110.643
 96  2 19 18 58 59.9990000  0  7 27  2 19 31 18 29 28
  22894967.977    -9146046.97849  -7108322.90149  22894964.9364   22894973.4924
  24658845.611    -2681848.41749  -2068904.09049  24658844.7914   24658854.4634
  20732422.876   -10063982.56549  -7801546.16649  20732426.4144   20732432.9584
  22383951.716   -13965030.29049 -10866538.75449  22383951.4454   22383959.1294
  19915318.750    -6582246.49749  -5128233.35549  19915321.4954   19915327.5284
  21289833.627     6342108.80949   4933267.35749  21289837.2354   21289843.5024
  23020791.643    -9387232.833 9  -7312998.154 9  23020793.344    23020800.279
 96  2 19 18 59 29.9990000  0  7 27  2 19 31 18 29 28
  22878934.235    -9230258.94549  -7173942.56049  22878940.4154   22878948.6694
  24638102.414    -2790841.38049  -2153833.65849  24638104.5154   24638112.4974
  20723649.167   -10110082.49849  -7837468.18049  20723653.9924   20723660.5084
  22369073.426   -14043184.58049 -10927438.18649  22369079.2914   22369086.4534
  19913414.729    -6592245.22649  -5136024.57449  19913418.8044   19913424.8144
  21299193.413     6391289.77649   4971590.16249  21299196.1894   21299202.6454
  23016557.673    -9409481.316 9  -7330334.634 9  23016560.415    23016566.791
 96  2 19 18 59 59.9990000  0  7 27  2 19 31 18 29 28
  22862904.970    -9314505.59149  -7239589.27049  22862909.6394   22862916.9794
  24617359.184    -2899843.89949  -2238770.61749  24617361.1044   24617370.8784
  20714898.034   -10156084.71249  -7873314.05449  20714899.9694   20714906.7294
  22354259.485   -14121050.79649 -10988113.15149  22354261.7734   22354268.9834
  19911593.085    -6601828.35849  -5143491.95049  19911595.6264   19911601.5624
  21308605.829     6440758.91149   5010137.51549  21308610.1514   21308616.3954
  23012404.340    -9431298.263 9  -7347334.838 9  23012408.637    23012415.441
 96  2 19 19  0 29.9990000  0  7 27  2 19 31 18 29 28
  22846884.339    -9398695.96149  -7305192.10549  22846887.8104   22846895.4894
  24596635.995    -3008746.93349  -2323630.09049  24596637.7634   24596647.1304
  20706181.067   -10201883.42049  -7909001.35649  20706184.9284   20706191.5794
  22339519.406   -14198513.37649 -11048473.61849  22339521.5354   22339529.5654
  19909864.475    -6610905.96749  -5150565.41849  19909868.0984   19909874.1764
  21318094.309     6490618.68449   5048989.25849  21318098.1414   21318104.4904
  23008356.774    -9452576.469 9  -7363915.271 9  23008359.729    23008365.794
 96  2 19 19  0 59.9990000  0  7 27  2 19 31 18 29 28
  22830854.899    -9482931.83449  -7370830.40349  22830857.9604   22830865.6094
  24575905.978    -3117649.61549  -2408489.19449  24575912.6114   24575923.1044
  20697486.822   -10247576.45549  -7944606.31449  20697489.8054   20697496.5234
  22324837.898   -14275663.90549 -11108590.87349  22324839.8864   22324847.9094
  19908210.374    -6619604.85349  -5157343.77249  19908212.9374   19908219.1914
  21327639.806     6540777.13649   5088073.73749  21327642.6334   21327649.1684
  23004391.001    -9473416.656 9  -7380154.359 9  23004393.947    23004400.343
 96  2 19 19  1 29.9990000  0  7 27  2 19 31 18 29 28
  22814836.181    -9567120.56449  -7436431.99349  22814837.0114   22814846.0254
  24555205.262    -3226467.75449  -2493282.47449  24555205.6504   24555216.5074
  20688826.109   -10293089.15149  -7980070.73549  20688829.1494   20688835.8154
  22310231.407   -14352430.10249 -11168408.69649  22310231.5704   22310238.6234
  19906636.612    -6627870.30649  -5163784.38449  19906640.1804   19906646.2924
  21337251.193     6591289.91849   5127434.31849  21337254.4884   21337261.3544
  23000521.400    -9493749.232 9  -7395997.928 9  23000524.733    23000531.127
 96  2 19 19  1 59.9990000  0  7 27  2 19 31 18 29 28
  22798801.559    -9651375.76349  -7502085.37249  22798804.1294   22798812.3834
  24534489.657    -3335308.37449  -2578093.28349  24534494.8354   24534502.6214
  20680177.288   -10338544.94549  -8015490.82949  20680179.3764   20680185.6444
  22295670.471   -14428931.48649 -11228020.14849  22295674.0014   22295682.5394
  19905122.957    -6635821.44849  -5169980.08149  19905127.2264   19905133.2214
  21346903.070     6642013.44749   5166959.11349  21346907.5494   21346914.2654
  22996725.907    -9513697.855 9  -7411542.310 9  22996728.956    22996735.838
 96  2 19 19  2 29.9990000  0  7 27  2 19 31 18 29 28
  22782760.234    -9735670.91249  -7567769.90849  22782764.0114   22782769.9134
  24513787.085    -3444149.03549  -2662904.07849  24513783.7594   24513791.9634
  20671538.597   -10383930.96749  -8050856.54549  20671542.4184   20671548.7864
  22281168.231   -14505161.22749 -11287419.95049  22281169.0764   22281175.9634
  19903672.605    -6643445.58249  -5175920.96849  19903676.0424   19903682.1184
  21356599.791     6692960.66449   5206658.21349  21356602.3194   21356608.8234
  22993007.328    -9533250.841 9  -7426778.396 9  22993008.245    22993014.175
 96  2 19 19  2 59.9990000  0  7 27  2 19 31 18 29 28
  22766731.734    -9819901.52949  -7633404.13949  22766736.5634   22766742.0124
  24493089.567    -3552895.99349  -2747641.88349  24493088.2034   24493098.3944
  20662933.423   -10429155.42449  -8086096.38349  20662936.4254   20662942.7454
  22266726.616   -14581041.35049 -11346547.32749  22266729.6764   22266735.7734
  19902303.936    -6650645.81049  -5181531.53349  19902306.2044   19902311.8734
  21366352.624     6744220.49149   5246600.90649  21366356.6324   21366363.3054
  22989378.379    -9552322.354 9  -7441639.321 9  22989380.015    22989385.348
 96  2 19 19  3 29.9990000  0  7 27  2 19 31 18 29 28
  22750704.808    -9904121.90349  -7699030.40449  22750708.8234   22750714.8474
  24472392.722    -3661606.25549  -2832351.03049  24472401.5484   24472410.8704
  20654348.384   -10474269.35649  -8121250.08249  20654351.2864   20654357.8404
  22252342.587   -14656641.72249 -11405456.70849  22252342.3614   22252350.5334
  19901007.716    -6657455.48249  -5186837.78149  19901010.3144   19901015.9474
  21376154.075     6795727.92449   5286736.53749  21376158.1844   21376164.3704
  22985828.744    -9570964.292 9  -7456165.499 9  22985830.887    22985838.323
 96  2 19 19  3 59.9990000  0  7 27  2 19 31 18 29 28
  22734676.097    -9988361.66149  -7764671.76349  22734677.9494   22734684.4474
  24451714.389    -3770289.88949  -2917039.52049  24451720.1594   24451729.1214
  20645781.759   -10519284.30349  -8156326.65649  20645785.5064   20645791.8684
  22238001.856   -14731968.62449 -11464152.97949  22238007.5244   22238015.1604
  19899785.653    -6663874.66249  -5191839.74349  19899788.6954   19899794.3854
  21386007.029     6847490.56149   5327071.03549  21386008.8044   21386014.4364
  22982361.531    -9589177.234 9  -7470357.407 9  22982365.796    22982371.957
 96  2 19 19  4 29.9990000  0  7 27  2 19 31 18 29 28
  22718650.830   -10072566.26349  -7830285.73549  22718655.2814   22718662.2364
  24431056.207    -3878877.33949  -3001653.05949  24431058.4214   24431065.1644
  20637244.354   -10564147.42049  -8191284.92349  20637248.2764   20637254.9994
  22223739.450   -14806945.99649 -11522576.92249  22223740.1844   22223747.1544
  19898650.904    -6669846.55449  -5196493.17149  19898652.4084   19898658.2434
  21395917.102     6899572.37149   5367654.23549  21395919.6374   21395925.8344
  22978993.428    -9606888.986 9  -7484158.741 9  22978995.630    22979001.104
 96  2 19 19  4 59.9990000  0  7 27  2 19 31 18 29 28
  22702622.431   -10156802.48649  -7895924.33949  22702625.2894   22702631.7294
  24410393.630    -3987436.28349  -3086244.35449  24410399.0934   24410406.3544
  20628722.006   -10608932.97449  -8226182.74749  20628725.7834   20628732.1364
  22209527.212   -14881623.61249 -11580767.26549  22209529.5094   22209536.9544
  19897587.605    -6675429.24349  -5200843.32949  19897590.3194   19897595.9934
  21405874.950     6951907.89949   5408435.12549  21405878.5994   21405884.5114
  22975708.708    -9624154.694 9  -7497612.520 9  22975709.193    22975716.260
 96  2 19 19  5 29.9990000  0  7 27  2 19 31 18 29 28
  22686592.336   -10241042.73749  -7961566.09449  22686593.6944   22686601.2624
  24389743.866    -4095948.22449  -3170799.00149  24389749.7404   24389757.4154
  20620219.656   -10653618.58649  -8261002.70349  20620222.5914   20620229.0694
  22195382.187   -14955956.57849 -11638689.06649  22195385.5654   22195391.1814
  19896604.033    -6680598.20949  -5204871.10549  19896606.8974   19896612.6294
  21415887.364     7004516.42049   5449428.74249  21415889.8014   21415895.8934
  22972511.627    -9640945.922 9  -7510696.576 9  22972514.111    22972520.489
 96  2 19 19  5 59.9990000  0  7 27  2 19 31 18 29 28
  22670545.706   -10325337.89449  -8027250.61149  22670553.2184   22670559.4174
  24369091.779    -4204465.97549  -3255358.26649  24369097.3634   24369108.8204
  20611723.061   -10698263.86549  -8295791.22949  20611726.9304   20611733.0274
  22181293.808   -15029983.47349 -11696372.34249  22181297.7214   22181305.3074
  19895686.516    -6685416.53349  -5208625.64349  19895689.6554   19895695.4864
  21425941.108     7057348.13549   5490596.29149  21425943.1284   21425948.8244
  22969395.929    -9657318.427 9  -7523454.338 9  22969398.587    22969405.241
 96  2 19 19  6 29.9990000  0  7 27  2 19 31 18 29 28
  22654512.489   -10409635.00249  -8092936.67649  22654512.8214   22654520.1184
  24348447.103    -4312959.14749  -3339898.32149  24348452.5314   24348460.1464
  20603241.470   -10742833.55549  -8330520.85249  20603245.6684   20603252.0864
  22167271.445   -15103673.07349 -11753792.81449  22167275.9324   22167282.9404
  19894841.087    -6689856.94349  -5212085.70949  19894844.3834   19894850.4384
  21436042.500     7110430.36649   5531959.03449  21436044.8754   21436050.8304
  22966365.699    -9673240.182 9  -7535860.890 9  22966369.145    22966375.784
 96  2 19 19  6 59.9990000  0  7 27  2 19 31 18 29 28
  22638464.491   -10493959.36449  -8158643.93949  22638465.7044   22638473.8414
  24327796.875    -4421457.55349  -3424442.51549  24327805.1124   24327813.1174
  20594772.079   -10787342.26549  -8365202.95549  20594775.8284   20594782.1914
  22153305.735   -15177068.89149 -11810984.36449  22153309.0874   22153314.7814
  19894062.282    -6693947.01249  -5215272.77649  19894065.9064   19894071.8724
  21446185.568     7163745.91749   5573503.58449  21446190.3314   21446196.3994
  22963414.280    -9688747.855 9  -7547944.775 9  22963417.543    22963424.938
 96  2 19 19  7 29.9990000  0  7 27  2 19 31 18 29 28
  22622437.115   -10578173.44649  -8224265.27749  22622440.7464   22622448.2494
  24307183.945    -4529810.68849  -3508873.49249  24307187.0204   24307196.3584
  20586342.369   -10831639.03149  -8399719.90449  20586346.3634   20586352.9864
  22139419.643   -15250042.10049 -11867846.57949  22139422.3134   22139429.1964
  19893379.641    -6697543.80449  -5218075.47749  19893381.3324   19893387.3194
  21456406.129     7217449.11249   5615350.20049  21456410.0474   21456415.6964
  22960565.606    -9703708.083 9  -7559602.077 9  22960570.860    22960577.543
 96  2 19 19  7 59.9990000  0  7 27  2 19 31 18 29 28
  22606416.965   -10662368.60449  -8289871.85649  22606419.2234   22606426.0504
  24286568.249    -4638098.31549  -3593253.43549  24286582.0914   24286590.2054
  20577936.567   -10875811.51849  -8434140.01149  20577940.5104   20577947.3234
  22125596.371   -15322680.58749 -11924447.95449  22125600.3504   22125606.5524
  19892771.496    -6700733.44249  -5220560.91549  19892774.6744   19892780.4604
  21466687.420     7271469.38449   5657443.88549  21466689.4344   21466695.0494
  22957810.003    -9718206.777 9  -7570899.735 9  22957812.156    22957818.381
 96  2 19 19  8 29.9990000  0  7 27  2 19 31 18 29 28
  22590393.490   -10746561.59849  -8355476.77449  22590397.8504   22590404.1104
  24265986.584    -4746325.52349  -3677586.19849  24265987.4754   24265994.5804
  20569553.391   -10919864.07649  -8468466.67049  20569557.2044   20569564.1744
  22111833.833   -15394990.33749 -11980793.17049  22111839.1404   22111845.1534
  19892240.869    -6703521.71449  -5222733.60249  19892244.1414   19892249.9834
  21477023.601     7325796.07349   5699776.33149  21477027.3974   21477033.0174
  22955137.937    -9732252.102 9  -7581844.128 9  22955139.228    22955145.496
 96  2 19 19  8 59.9990000  0  7 27  2 19 31 18 29 28
  22574380.833   -10830719.76649  -8421054.51949  22574383.6574   22574390.5084
  24245405.377    -4854448.30849  -3761837.67749  24245412.6594   24245422.0914
  20561201.819   -10963758.16949  -8502669.85349  20561204.7224   20561211.0064
  22098145.778   -15466934.80849 -12036853.75549  22098149.4354   22098154.8114
  19891795.365    -6705861.81949  -5224557.07149  19891798.6774   19891804.8694
  21487427.109     7380461.12349   5742372.43349  21487429.7584   21487435.9274
  22952557.517    -9745810.148 9  -7592408.847 9  22952558.936    22952565.951
 96  2 19 19  9 29.9990000  0  8 27  2 16 19 31 18 29 28
  22558357.606   -10914921.64749  -8486666.34849  22558360.0494   22558367.5574
  24224836.145    -4962541.29949  -3846065.94549  24224842.5004   24224849.7974
  24510477.732    -2588409.92759  -2000248.12059  24510484.2924   24510491.9624
  20552861.358   -11007587.14449  -8536822.29449  20552864.4264   20552870.7104
  22084511.620   -15538580.03649 -12092681.18149  22084514.9724   22084522.5744
  19891421.232    -6707833.08049  -5226093.13049  19891423.4844   19891429.5164
  21497875.978     7435372.27349   5785160.29949  21497878.7424   21497885.2374
  22950055.786    -9758954.765 9  -7602651.407 9  22950057.904    22950064.129
 96  2 19 19  9 59.9990000  0  8 27  2 16 19 31 18 29 28
  22542328.863   -10999148.65249  -8552297.73449  22542332.1384   22542339.0864
  24204285.783    -5070579.13649  -3930251.11249  24204283.9104   24204291.5204
  24493725.661    -2676472.65849  -2068868.39549  24493727.1494   24493733.0934
  20544536.331   -11051329.92349  -8570907.56549  20544540.1124   20544546.8144
  22070944.649   -15609881.60249 -12148240.80349  22070946.5514   22070954.2204
  19891120.305    -6709409.87849  -5227321.81149  19891123.3404   19891129.5064
  21508370.335     7490524.70649   5828136.19249  21508373.8384   21508380.2854
  22947636.663    -9771653.240 9  -7612546.328 9  22947641.262    22947647.539
 96  2 19 19 10 29.9990000  0  8 27  2 16 19 31 18 29 28
  22526308.239   -11083345.48149  -8617905.63049  22526310.0954   22526316.9004
  24183745.851    -5178496.52449  -4014342.52149  24183746.8064   24183755.2624
  24477034.529    -2764187.53149  -2137217.62049  24477035.3724   24477044.2724
  20536241.236   -11094926.97749  -8604879.29049  20536244.0214   20536250.2394
  22057453.339   -15680776.95849 -12203483.89849  22057456.0864   22057463.0484
  19890906.252    -6710530.59249  -5228195.10349  19890910.1954   19890916.3184
  21518919.515     7545956.66349   5871329.89249  21518922.5334   21518929.0714
  22945315.685    -9783849.001 9  -7622049.527 9  22945319.902    22945326.395
 96  2 19 19 10 59.9990000  0  8 27  2 16 19 31 18 29 28
  22510275.885   -11167564.22649  -8683530.60349  22510282.9214   22510289.7354
  24163222.535    -5286345.02949  -4098380.24049  24163223.4134   24163230.8004
  24460400.765    -2851602.18849  -2205332.91449  24460400.4994   24460403.2734
  20527957.582   -11138443.30949  -8638788.11049  20527963.1524   20527969.1884
  22044032.500   -15751312.01249 -12258446.23049  22044033.6664   22044040.1774
  19890770.825    -6711249.03049  -5228754.93149  19890773.5694   19890779.7064
  21529511.825     7601621.74449   5914705.24949  21529515.3354   21529521.8194
  22943079.595    -9795593.419 9  -7631201.032 9  22943084.843    22943092.932
 96  2 19 19 11 29.9990000  0  8 27  2 16 19 31 18 29 28
  22494235.548   -11251875.19849  -8749227.42149  22494240.1264   22494246.5214
  24142697.260    -5394187.15249  -4182412.97949  24142700.9834   24142711.7044
  24443808.523    -2938779.06649  -2273262.98349  24443812.8614   24443817.8914
  20519681.953   -11181940.44049  -8672681.97149  20519685.8494   20519692.1874
  22030670.566   -15821522.99049 -12313156.05249  22030673.0494   22030679.6874
  19890700.164    -6711629.63849  -5229051.51849  19890701.2484   19890707.0384
  21540139.865     7657462.46049   5958217.45349  21540141.4124   21540147.1764
  22940922.239    -9806939.854 9  -7640042.440 9  22940926.835    22940933.235
 96  2 19 19 11 59.9990000  0  8 27  2 16 19 31 18 29 28
  22478175.456   -11336258.14049  -8814980.34649  22478181.9404   22478189.3054
  24122179.182    -5502012.55049  -4266432.66249  24122183.7954   24122192.6414
  24427265.316    -3025708.72849  -2341000.32249  24427267.5264   24427276.8244
  20511414.038   -11225392.24249  -8706540.51149  20511417.3424   20511423.1074
  22017375.460   -15891382.07249 -12367591.65749  22017379.4244   22017385.9274
  19890695.475    -6711644.15549  -5229062.84349  19890698.7174   19890704.5074
  21550803.587     7713504.81449   6001886.78349  21550806.4044   21550812.1674
  22938845.338    -9817865.748 9  -7648556.132 9  22938847.344    22938853.652
 96  2 19 19 12 29.9990000  0  8 27  2 16 19 31 18 29 28
  22462113.960   -11420691.76449  -8880772.74549  22462115.4664   22462122.0484
  24101662.202    -5609821.98049  -4350439.90249  24101669.6094   24101677.5934
  24410771.500    -3112385.12749  -2408540.41449  24410774.4474   24410783.1834
  20503157.593   -11268788.65949  -8740355.88649  20503159.3974   20503165.4424
  22004147.631   -15960894.04949 -12421756.79349  22004151.5934   22004157.7914
  19890763.355    -6711285.97549  -5228783.74949  19890766.7314   19890772.3604
  21561509.162     7769777.07749   6045735.27149  21561514.3764   21561520.2574
  22936845.390    -9828363.718 9  -7656736.356 9  22936850.048    22936856.175
 96  2 19 19 12 59.9990000  0  8 27  2 16 19 31 18 29 28
  22446035.146   -11505162.56149  -8946594.11749  22446040.8514   22446047.6464
  24081154.411    -5717622.13049  -4434439.92549  24081154.3434   24081162.6954
  24394325.932    -3198800.53349  -2475877.11649  24394329.5304   24394337.4404
  20494909.411   -11312128.47049  -8774127.16049  20494912.0704   20494918.3744
  21990987.694   -16030056.20549 -12475649.35249  21990991.1024   21990996.9634
  19890902.743    -6710558.96949  -5228217.26349  19890905.0244   19890911.0504
  21572262.096     7826274.91149   6089759.52249  21572265.9384   21572272.2294
  22934934.180    -9838429.549 9  -7664579.857 9  22934934.646    22934940.603
 96  2 19 19 13 29.9990000  0  8 27  2 16 19 31 18 29 28
  22429971.941   -11589597.64949  -9012387.67349  22429973.4164   22429980.0954
  24060647.363    -5825356.81849  -4518388.95849  24060652.1374   24060662.7284
  24377945.019    -3284897.13049  -2542965.36249  24377947.6114   24377957.4574
  20486686.199   -11355331.00949  -8807791.46949  20486691.0284   20486696.8474
  21977903.050   -16098816.74549 -12529228.95849  21977905.4794   21977912.3254
  19891124.179    -6709386.21649  -5227303.45049  19891127.9374   19891134.1684
  21583068.729     7883056.06249   6134004.53449  21583070.8464   21583076.9334
  22933111.226    -9847998.032 9  -7672035.815 9  22933113.738    22933119.635
 96  2 19 19 13 59.9990000  0  8 27  2 16 19 31 18 29 28
  22413900.769   -11674030.60149  -9078179.56649  22413906.4314   22413912.7604
  24040155.419    -5933071.68949  -4602322.58249  24040156.1794   24040164.8564
  24361614.936    -3370710.40749  -2609832.92249  24361617.0864   24361624.2904
  20478485.534   -11398435.62849  -8841379.46749  20478488.4044   20478494.4464
  21964884.829   -16167235.80649 -12582542.50049  21964886.0984   21964892.8644
  19891423.449    -6707813.82549  -5226078.22249  19891427.0754   19891433.6364
  21593917.308     7940075.16849   6178434.97449  21593920.8054   21593927.5674
  22931373.963    -9857121.299 9  -7679144.830 9  22931377.702    22931383.540
 96  2 19 19 14 29.9990000  0  8 27  2 16 19 31 18 29 28
  22397848.982   -11758404.60349  -9143925.51849  22397850.7634   22397856.7584
  24019666.553    -6040707.69549  -4686194.73649  24019672.3904   24019682.3394
  24345352.879    -3456173.01049  -2676427.01349  24345354.3944   24345363.0774
  20470313.043   -11441381.85649  -8874844.05349  20470315.9614   20470322.2784
  21951938.071   -16235254.17249 -12635543.82949  21951941.8924   21951949.7664
  19891808.839    -6705790.54349  -5224501.64849  19891812.4154   19891818.6524
  21604823.325     7997383.89749   6223091.09449  21604825.9664   21604832.9314
  22929732.899    -9865752.295 9  -7685870.269 9  22929734.739    22929742.252
 96  2 19 19 14 59.9990000  0  8 27  2 16 19 31 18 29 28
  22381799.154   -11842713.11249  -9209620.44049  22381807.2374   22381813.9614
  23999208.507    -6148238.33249  -4769984.81749  23999211.4964   23999218.1674
  24329160.827    -3541261.99349  -2742730.11849  24329160.1204   24329170.4914
  20462173.071   -11484154.51449  -8908173.38749  20462176.5934   20462183.0014
  21939077.083   -16302847.54949 -12688213.99049  21939079.7304   21939086.0324
  19892284.441    -6703295.85749  -5222557.74849  19892287.1594   19892293.3744
  21615784.746     8054997.08549   6267984.45949  21615789.7754   21615796.5914
  22928186.823    -9873876.964 9  -7692201.177 9  22928189.094    22928195.997
 96  2 19 19 15 29.9990000  0  8 27  2 16 19 31 18 29 28
  22365778.100   -11926939.22749  -9275251.14849  22365778.1924   22365785.9694
  23978770.065    -6255630.16649  -4853666.71349  23978774.2704   23978783.2964
  24313044.478    -3625947.51049  -2808718.89649  24313045.2334   24313055.0904
  20454073.309   -11526722.21149  -8941343.00449  20454075.9474   20454082.8064
  21926299.684   -16369991.40749 -12740533.88049  21926302.9574   21926309.1664
  19892853.406    -6700300.60949  -5220223.79849  19892857.1894   19892863.2914
  21626818.996     8112964.54349   6313153.88049  21626821.0064   21626827.2734
  22926739.660    -9881465.507 9  -7698114.311 9  22926745.348    22926751.402
 96  2 19 19 15 59.9990000  0  8 27  2 16 19 31 18 29 28
  22349766.782   -12011062.25349  -9340801.55649  22349770.5774   22349777.3164
  23958372.512    -6362843.08049  -4937209.22549  23958371.8224   23958380.8064
  24297010.452    -3710196.44749  -2874367.24549  24297017.0224   24297023.0324
  20446014.619   -11569063.28749  -8974336.04749  20446018.8034   20446025.4994
  21913615.870   -16436648.51349 -12792474.48149  21913618.7654   21913625.5474
  19893522.121    -6696792.41049  -5217490.14849  19893524.9914   19893530.9734
  21637919.165     8171308.88849   6358616.97749  21637923.6294   21637930.0614
  22925404.137    -9888496.230 9  -7703592.785 9  22925407.104    22925413.175
 96  2 19 19 16 29.9990000  0  8 27  2 16 19 31 18 29 28
  22333762.402   -12095173.52249  -9406342.79249  22333765.5884   22333772.1374
  23937987.112    -6469949.35449  -5020668.63649  23937990.8834   23937998.1104
  24281038.890    -3794096.76049  -2939744.09949  24281046.9944   24281057.7414
  20437985.052   -11611258.36249  -9007215.32149  20437989.1604   20437995.8134
  21901006.129   -16502906.09949 -12844103.75549  21901009.5024   21901016.2864
  19894272.062    -6692847.37349  -5214416.10349  19894275.4274   19894281.6524
  21649076.282     8229944.74749   6404307.23549  21649081.2484   21649087.9794
  22924156.448    -9895045.497 9  -7708696.098 9  22924161.021    22924166.391
 96  2 19 19 16 59.9990000  0  8 27  2 16 19 31 18 29 28
  22317762.117   -12179255.04149  -9471860.84949  22317764.9824   22317771.9244
  23917636.260    -6576919.35649  -5104021.94449  23917635.5634   23917644.3914
  24265151.536    -3877639.69349  -3004842.53149  24265153.3174   24265158.3324
  20429988.552   -11653284.54849  -9039962.98949  20429991.8594   20429998.2804
  21888477.362   -16568753.62649 -12895413.52049  21888479.8414   21888485.6234
  19895109.612    -6688445.23949  -5210985.87849  19895112.9554   19895119.2404
  21660296.407     8288898.53749   6450245.23449  21660299.9964   21660306.1324
  22923011.657    -9901081.825 9  -7713399.718 9  22923012.826    22923018.944
 96  2 19 19 17 29.9990000  0  8 27  2 16 19 31 18 29 28
  22301754.321   -12263367.73549  -9537403.19349  22301759.0254   22301765.8754
  23897287.136    -6683827.96949  -5187327.32349  23897290.6384   23897300.0724
  24249301.939    -3960889.76849  -3069712.64049  24249309.9964   24249318.0924
  20422012.228   -11695203.06949  -9072626.77349  20422015.1814   20422021.7094
  21876013.978   -16634246.34349 -12946446.79849  21876016.8544   21876022.9904
  19896020.199    -6683660.83649  -5207257.78149  19896023.8004   19896029.3894
  21671561.663     8348098.68049   6496375.17949  21671565.5394   21671572.2594
  22921945.169    -9906671.167 9  -7717755.029 9  22921948.099    22921954.771
 96  2 19 19 17 59.9990000  0  8 27  2 16 19 31 18 29 28
  22285755.850   -12347448.34949  -9602920.53649  22285758.6524   22285765.6934
  23876970.115    -6790605.64049  -5270530.70649  23876971.4884   23876980.6184
  24233535.610    -4043779.33749  -3134301.93349  24233536.2264   24233543.3144
  20414067.363   -11736958.42849  -9105163.41349  20414069.9394   20414075.8854
  21863629.812   -16699316.33749 -12997150.68149  21863634.1334   21863641.4164
  19897016.368    -6678427.94649  -5203180.20449  19897019.3794   19897025.3814
  21682881.489     8407589.09849   6542731.30849  21682886.1704   21682893.8014
  22920977.132    -9911756.538 9  -7721717.652 9  22920980.230    22920986.343
 96  2 19 19 18 29.9990000  0  8 27  2 16 19 31 18 29 28
  22269757.544   -12431484.55949  -9668403.27349  22269767.2334   22269773.3184
  23856675.385    -6897251.27849  -5353631.23349  23856676.9234   23856685.4874
  24217827.139    -4126303.93649  -3198606.79249  24217832.9494   24217839.7564
  20406150.598   -11778558.27449  -9137578.87249  20406153.5104   20406159.9944
  21851330.059   -16763949.62649 -13047514.27749  21851334.5884   21851341.1114
  19898098.535    -6672741.05549  -5198748.86449  19898101.7324   19898107.9464
  21694260.640     8467378.48749   6589320.39649  21694264.2074   21694271.5284
  22920108.345    -9916325.646 9  -7725277.998 9  22920111.374    22920118.020
 96  2 19 19 18 59.9990000  0  8 27  2 16 19 31 18 29 28
  22253787.385   -12515462.02349  -9733840.23349  22253786.9394   22253793.6854
  23836409.406    -7003762.72149  -5436627.14249  23836408.3814   23836418.4884
  24202197.591    -4208448.59849  -3262615.56149  24202200.7954   24202208.6654
  20398260.908   -11820012.24349  -9169880.65849  20398264.9474   20398271.3604
  21839118.931   -16828123.60949 -13097519.96149  21839122.7824   21839129.4104
  19899264.256    -6666613.25449  -5193973.95349  19899267.9434   19899273.8004
  21705696.070     8527473.88949   6636147.94449  21705699.7074   21705706.5304
  22919338.585    -9920375.316 9  -7728433.577 9  22919340.354    22919346.763
 96  2 19 19 19 29.9990000  0  8 27  2 16 19 31 18 29 28
  22237829.897   -12599295.28349  -9799164.82149  22237833.9234   22237840.5304
  23816178.543    -7110067.92249  -5519462.36849  23816176.9374   23816189.0234
  24186658.178    -4290118.24949  -3326254.18049  24186659.5744   24186668.6134
  20390414.971   -11861250.87049  -9202014.64149  20390417.5444   20390423.9624
  21827009.862   -16891752.03649 -13147100.52449  21827014.7384   21827021.2164
  19900528.660    -6659971.59049  -5188798.63349  19900531.4574   19900537.6294
  21717204.947     8587944.91649   6683268.19049  21717206.8234   21717214.0794
  22918679.750    -9923834.864 9  -7731129.325 9  22918682.391    22918688.386
 96  2 19 19 19 59.9990000  0  8 27  2 16 19 31 18 29 28
  22221882.446   -12683084.98749  -9864455.47849  22221889.1054   22221895.9584
  23795966.127    -7216264.61049  -5602213.03549  23795969.9254   23795979.8854
  24171185.764    -4371417.37649  -3389604.13049  24171189.1804   24171197.7414
  20382587.417   -11902379.78749  -9234063.14049  20382590.9624   20382597.5284
  21814987.466   -16954941.55549 -13196339.08649  21814990.0764   21814996.2164
  19901873.272    -6652909.54949  -5183295.75049  19901875.3574   19901881.4484
  21728764.061     8648688.14549   6730600.52949  21728766.2584   21728772.6254
  22918114.313    -9926805.541 9  -7733444.140 9  22918116.345    22918123.465
 96  2 19 19 20 29.9990000  0  8 27  2 16 19 31 18 29 28
  22205960.662   -12766801.48249  -9929689.08249  22205957.5244   22205965.8124
  23775788.521    -7322342.57449  -5684871.18549  23775784.6004   23775793.5504
  24155789.147    -4452324.26049  -3452648.44749  24155792.2024   24155801.5864
  20374788.420   -11943362.46949  -9265997.69249  20374792.2604   20374799.1354
  21803049.047   -17017661.26549 -13245211.53649  21803055.1754   21803062.6064
  19903299.685    -6645408.70649  -5177450.93549  19903302.7554   19903309.0544
  21740380.560     8709731.52449   6778166.77049  21740383.0184   21740388.7394
  22917645.144    -9929258.398 9  -7735355.451 9  22917649.521    22917656.713
 96  2 19 19 20 59.9990000  0  8 27  2 16 19 31 18 29 28
  22190037.477   -12850439.46949  -9994861.50849  22190042.0604   22190049.6864
  23755622.500    -7428290.04449  -5767427.58249  23755626.0564   23755632.9864
  24140468.831    -4532820.10449  -3515372.41249  24140473.6994   24140482.9554
  20367023.896   -11984167.43749  -9297793.77249  20367027.2494   20367033.6974
  21791206.089   -17079905.06749 -13293713.14949  21791210.3164   21791217.2704
  19904812.073    -6637454.57549  -5171252.91849  19904816.4084   19904822.5524
  21752052.695     8771075.63949   6825967.35049  21752055.7784   21752061.9254
  22917281.294    -9931187.398 9  -7736858.558 9  22917282.754    22917289.259
 96  2 19 19 21 29.9990000  0  8 27  2 16 19 31 18 29 28
  22174141.671   -12933980.17249 -10059958.13149  22174145.0504   22174151.5604
  23735489.878    -7534080.28349  -5849861.42449  23735494.7234   23735502.6634
  24125238.208    -4612875.98249  -3577753.62349  24125240.6174   24125243.2474
  20359300.057   -12024756.02349  -9329421.23749  20359303.6404   20359309.7544
  21779459.361   -17141648.54749 -13341824.91249  21779461.1614   21779467.8764
  19906423.659    -6628992.58949  -5164659.16149  19906426.6074   19906433.0224
  21763784.935     8832730.26849   6874009.88949  21763788.2354   21763794.6914
  22917017.894    -9932569.365 9  -7737935.415 9  22917019.953    22917026.862
 96  2 19 19 21 59.9990000  0  8 27  2 16 19 31 18 29 28
  22158264.705   -13017422.80449 -10124978.35049  22158267.5094   22158273.0524
  23715391.554    -7639691.58849  -5932155.84749  23715396.7034   23715404.0934
  24110085.104    -4692485.89549  -3639787.29249  24110091.0294   24110097.3304
  20351621.991   -12065107.37149  -9360863.84349  20351624.9134   20351631.0024
  21767805.745   -17202882.87049 -13389539.92949  21767808.6764   21767815.4884
  19908136.369    -6619996.92549  -5157649.55849  19908138.4604   19908144.7424
  21775573.415     8894697.97449   6922296.37449  21775580.5094   21775586.1374
  22916857.376    -9933390.862 9  -7738575.538 9  22916863.550    22916870.836
 96  2 19 19 22 29.9980000  0  8 27  2 16 19 31 18 29 28
  22142393.457   -13100811.23749 -10189956.31649  22142398.7144   22142405.3324
  23695327.663    -7745147.02949  -6014328.78649  23695328.3594   23695336.0334
  24095014.856    -4771673.92349  -3701492.20949  24095021.0124   24095029.9334
  20343980.303   -12105261.80949  -9392153.00949  20343983.8334   20343990.4304
  21756243.593   -17263650.97149 -13436891.64549  21756244.8794   21756251.7564
  19909940.392    -6610507.34549  -5150255.08449  19909943.9924   19909950.6314
  21787420.515     8956935.16249   6970792.86749  21787423.5954   21787429.8584
  22916804.371    -9933695.435 9  -7738812.880 9  22916806.130    22916812.483
 96  2 19 19 22 59.9980000  0  8 27  2 16 19 31 18 29 28
  22126537.132   -13184149.41749 -10254895.14749  22126539.7654   22126547.0264
  23675293.667    -7850430.84649  -6096367.96849  23675293.1944   23675303.3364
  24080032.722    -4850428.61049  -3762859.55249  24080035.0754   24080043.5784
  20336374.671   -12145229.82749  -9423296.91549  20336378.2914   20336384.7424
  21744768.753   -17323944.45649 -13483873.55449  21744771.7894   21744778.2234
  19911843.606    -6600506.69449  -5142462.38449  19911847.1924   19911853.6114
  21799319.518     9019458.20949   7019512.10249  21799320.5304   21799326.9284
  22916841.921    -9933477.451 9  -7738643.025 9  22916846.756    22916853.234
 96  2 19 19 23 29.9980000  0  8 27  2 16 19 31 18 29 28
  22110697.418   -13267392.12749 -10319759.58249  22110699.0904   22110706.0314
  23655294.121    -7955490.12849  -6178232.19949  23655301.5674   23655310.1944
  24065138.796    -4928700.96449  -3823850.95649  24065141.4594   24065147.8544
  20328810.982   -12184980.86749  -9454271.73849  20328813.5714   20328820.0284
  21733396.467   -17383712.71949 -13530446.18349  21733398.2074   21733404.9174
  19913853.651    -6589946.21249  -5134233.44849  19913856.9574   19913863.3284
  21811282.608     9082336.51049   7068508.14849  21811286.2434   21811293.0154
  22916996.623    -9932685.993 9  -7738026.311 9  22916998.500    22917004.885
 96  2 19 19 23 59.9980000  0  8 27  2 16 19 31 18 29 28
  22094874.344   -13350530.68249 -10384542.85449  22094878.1454   22094885.7884
  23635354.197    -8060310.48649  -6259910.24849  23635355.8214   23635363.0584
  24050336.242    -5006485.45649  -3884462.28549  24050338.0114   24050347.3794
  20321285.967   -12224521.20249  -9485082.38649  20321289.5614   20321296.0854
  21722122.823   -17442943.86149 -13576600.30249  21722126.3444   21722133.3884
  19915967.160    -6578839.32449  -5125578.74149  19915970.5714   19915976.4864
  21823323.864     9145607.53949   7117810.21349  21823326.8734   21823333.1124
  22917257.437    -9931309.612 9  -7736953.800 9  22917259.528    22917266.253
 96  2 19 19 24 29.9980000  0  8 27  2 16 19 31 18 29 28
  22079052.536   -13433681.79449 -10449335.89849  22079055.8614   22079062.3004
  23615420.165    -8165027.32749  -6341507.62849  23615427.2294   23615436.7634
  24035600.522    -5083918.25349  -3944799.47449  24035606.4004   24035612.0694
  20313773.397   -12264000.87749  -9515845.75849  20313776.7914   20313783.0824
  21710934.486   -17501746.49049 -13622420.50249  21710936.1984   21710943.1294
  19918157.491    -6567332.96549  -5116612.75249  19918160.0034   19918166.0934
  21835418.346     9209165.65449   7167335.98149  21835422.1284   21835427.6734
  22917604.289    -9929472.154 9  -7735522.013 9  22917608.942    22917615.361
 96  2 19 19 24 59.9980000  0  8 27  2 16 19 31 18 29 28
  22063245.145   -13516738.85849 -10514055.66949  22063250.0744   22063256.3514
  23595532.239    -8269549.49849  -6422953.35549  23595534.9334   23595548.0214
  24020950.895    -5160919.58249  -4004800.56749  24020950.8714   24020955.3264
  20306290.478   -12303321.36549  -9546485.09649  20306294.7764   20306300.8094
  21699845.107   -17560012.08749 -13667822.23849  21699848.3474   21699856.5604
  19920443.346    -6555321.42449  -5107253.11949  19920445.9434   19920452.1824
  21847586.297     9273108.72449   7217161.71249  21847588.9974   21847595.5694
  22918063.070    -9927068.941 9  -7733649.384 9  22918066.588    22918073.823
 96  2 19 19 25 29.9980000  0  8 27  2 16 19 31 18 29 28
  22047467.240   -13599680.52649 -10578685.52149  22047467.0534   22047472.9804
  23575680.411    -8373871.35449  -6504242.98749  23575683.4244   23575693.1824
  24006380.137    -5237486.76049  -4064463.26249  24006381.1924   24006389.2544
  20298845.626   -12342452.04449  -9576976.53349  20298848.3154   20298854.2494
  21688861.662   -17617734.65149 -13712800.81849  21688864.7944   21688871.2594
  19922826.129    -6542791.51949  -5097489.57349  19922830.1444   19922836.2664
  21859829.344     9337444.82049   7267293.70649  21859831.6714   21859838.6404
  22918629.328    -9924087.021 9  -7731325.827 9  22918633.119    22918640.860
 96  2 19 19 25 59.9980000  0  8 27  2 16 19 31 18 29 28
  22031676.614   -13682634.97149 -10643325.31449  22031680.9624   22031687.2774
  23555841.205    -8478133.84649  -6585486.36849  23555845.4444   23555852.6144
  23991865.689    -5313765.89659  -4123901.51749  23991865.3884   23991874.1384
  20291411.938   -12381513.25649  -9607413.83549  20291414.7984   20291421.2684
  21677952.597   -17675047.66349 -13757460.27049  21677957.2974   21677964.4714
  19925282.145    -6529886.86849  -5087434.01049  19925286.0104   19925292.2074
  21872111.679     9402003.96349   7317599.49149  21872117.8054   21872124.2674
  22919283.084    -9920671.635 9  -7728664.493 9  22919283.747    22919290.578
 96  2 19 19 26 29.9980000  0  8 27  2 16 19 31 18 29 28
  22015887.897   -13765617.19049 -10707986.76049  22015890.3964   22015896.5794
  23536010.731    -8582366.38849  -6666706.46849  23536010.9894   23536017.1644
  23977398.700    -5389780.50749  -4183133.69649  23977400.1044   23977408.7794
  20283992.848   -12420502.39749  -9637794.98249  20283995.4764   20284001.9604
  21667121.387   -17731974.39849 -13801818.73249  21667125.5174   21667132.6544
  19927807.716    -6516618.91049  -5077095.35749  19927810.9344   19927816.9464
  21884434.157     9466740.29249   7368043.35349  21884436.5084   21884443.4134
  22920004.858    -9916846.950 9  -7725684.229 9  22920010.952    22920018.819
 96  2 19 19 26 59.9980000  0  8 27  2 16 19 31 18 29 28
  22000109.698   -13848533.17449 -10772596.58449  22000112.1864   22000118.0954
  23516203.098    -8686457.83649  -6747816.61249  23516203.5994   23516209.6824
  23963004.501    -5465411.39049  -4242066.80049  23963008.8774   23963016.7444
  20276611.993   -12459288.84149  -9668018.17849  20276614.8764   20276621.3304
  21656382.205   -17788424.83449 -13845806.03849  21656383.0884   21656390.0024
  19930423.081    -6502880.37249  -5066390.01049  19930425.3004   19930431.6094
  21896800.263     9531729.99649   7418684.64949  21896803.5104   21896809.7434
  22920832.693    -9912518.640 9  -7722311.497 9  22920835.567    22920841.930
 96  2 19 19 27 29.9980000  0  8 27  2 16 19 31 18 29 28
  21984340.201   -13931395.69049 -10837164.76049  21984343.5614   21984349.5534
  23496412.138    -8790419.31049  -6828825.48549  23496419.5574   23496427.5794
  23948691.816    -5540648.01849  -4300692.78849  23948691.4214   23948698.9624
  20269269.322   -12497875.42049  -9698085.63649  20269271.6364   20269278.5944
  21645726.313   -17844405.21049 -13889427.07249  21645730.1304   21645737.2254
  19933120.803    -6488703.93349  -5055343.44649  19933122.9184   19933129.0564
  21909211.100     9596950.19449   7469505.55549  21909214.9024   21909221.5414
  22921747.497    -9907699.441 9  -7718556.278 9  22921752.830    22921757.852
 96  2 19 19 27 59.9980000  0  8 27  2 16 19 31 18 29 28
  21968571.087   -14014258.07049 -10901732.82949  21968575.0864   21968582.0144
  23476650.011    -8894286.40149  -6909760.84549  23476654.8094   23476660.9774
  23934439.699    -5615530.64349  -4359042.86249  23934440.9474   23934448.7514
  20261950.741   -12536330.30749  -9728050.48249  20261954.1064   20261961.1184
  21635157.187   -17899957.28049 -13932714.36649  21635158.9154   21635166.1334
  19935891.019    -6474140.06449  -5043994.99149  19935894.2934   19935900.3714
  21921655.291     9662343.69349   7520461.49649  21921659.1954   21921664.8704
  22922747.819    -9902436.666 9  -7714455.406 9  22922753.633    22922760.645
 96  2 19 19 28 29.9980000  0  8 27  2 16 19 31 18 29 28
  21952809.948   -14097095.51949 -10966281.47949  21952811.4864   21952818.2604
  23456913.770    -8998019.57549  -6990591.88149  23456914.5154   23456922.2484
  23920265.102    -5690011.96449  -4417080.23859  23920269.4284   23920276.1324
  20254660.782   -12574640.39249  -9757902.49649  20254663.8864   20254670.8254
  21624674.198   -17955046.33449 -13975640.87149  21624676.1554   21624682.7154
  19938743.907    -6459145.49749  -5032310.93049  19938747.5264   19938753.9614
  21934142.760     9727953.18249   7571585.73649  21934143.9074   21934150.1714
  22923845.332    -9896693.716 9  -7709980.383 9  22923846.751    22923853.627
 96  2 19 19 28 59.9980000  0  8 27  2 16 19 31 18 29 28
  21937035.101   -14179982.26349 -11030868.53849  21937038.8964   21937046.2744
  23437183.668    -9101689.66949  -7071373.75849  23437187.0384   23437193.6754
  23906160.541    -5764150.78349  -4474850.72349  23906160.0464   23906169.1894
  20247379.746   -12612897.34349  -9787713.10949  20247383.8604   20247390.7324
  21614264.377   -18009745.28449 -14018263.40849  21614267.6774   21614273.7134
  19941666.730    -6443796.56149  -5020350.74149  19941668.8564   19941674.7934
  21946653.050     9793704.80249   7622820.72849  21946655.9784   21946662.0564
  22925013.908    -9890542.375 9  -7705187.115 9  22925017.752    22925023.737
 96  2 19 19 29 29.9980000  0  8 27  2 16 19 31 18 29 28
  21921265.672   -14262860.44649 -11095448.93349  21921267.4404   21921274.6704
  23417474.873    -9205253.53149  -7152072.85749  23417480.3904   23417486.1514
  23892122.706    -5837892.00249  -4532311.44049  23892126.8464   23892134.1534
  20240118.427   -12651056.21649  -9817447.29649  20240122.3564   20240129.1724
  21603942.036   -18063992.76049 -14060534.14649  21603944.9044   21603951.4134
  19944664.319    -6428036.41449  -5008070.12449  19944668.0054   19944673.7214
  21959208.212     9859672.14249   7674223.81449  21959209.0984   21959215.2314
  22926274.362    -9883922.277 9  -7700028.587 9  22926277.130    22926282.869
 96  2 19 19 29 59.9980000  0  8 27  2 16 19 31 18 29 28
  21905490.527   -14345762.68949 -11160048.07449  21905492.1474   21905499.5574
  23397779.166    -9308749.73349  -7232719.21549  23397785.7364   23397790.7314
  23878163.045    -5911272.99759  -4589491.46859  23878163.2694   23878172.0874
  20232868.177   -12689159.83549  -9847138.42849  20232871.4374   20232878.0484
  21593698.852   -18117825.46449 -14102481.67949  21593700.3904   21593707.5394
  19947737.190    -6411894.85949  -4995492.30449  19947739.2924   19947745.2464
  21971797.178     9925845.85749   7725787.70049  21971801.2434   21971807.4894
  22927617.644    -9876872.137 9  -7694534.963 9  22927618.964    22927625.304
 96  2 19 19 30 29.9980000  0  8 27  2 16 19 31 18 29 28
  21889719.617   -14428625.23649 -11224616.28749  21889723.8984   21889730.0614
  23378108.450    -9412123.81649  -7313270.46449  23378113.3734   23378121.6114
  23864273.000    -5984219.60249  -4646332.87649  23864280.5564   23864292.1154
  20225643.634   -12727125.67149  -9876722.19749  20225646.7704   20225653.6204
  21583544.723   -18171182.37849 -14144058.47849  21583547.2634   21583553.4724
  19950889.724    -6395319.32549  -4982576.32349  19950893.3544   19950899.8604
  21984442.101     9992292.76349   7777564.47349  21984446.0124   21984452.3424
  22929049.201    -9869328.174 9  -7688656.536 9  22929054.398    22929061.431
 96  2 19 19 30 59.9980000  0  8 27  2 16 19 31 18 29 28
  21873953.353   -14511472.76149 -11289172.78349  21873958.2584   21873964.7104
  23358452.370    -9515415.72049  -7393757.65549  23358457.1894   23358465.4904
  23850470.722    -6056769.88549  -4702865.62049  23850475.0754   23850481.2924
  20218443.288   -12764969.12449  -9906210.60249  20218445.7624   20218452.0884
  21573473.514   -18224095.75149 -14185289.65649  21573477.4994   21573484.3064
  19954118.277    -6378356.19049  -4969358.31249  19954121.1854   19954127.8984
  21997131.674    10058982.33049   7829530.32649  21997136.6334   21997143.3374
  22930577.209    -9861318.752 9  -7682415.431 9  22930578.613    22930585.206
 96  2 19 19 31 29.9980000  0  8 27  2 16 19 31 18 29 28
  21858194.523   -14594294.05149 -11353708.84549  21858198.0554   21858203.7414
  23338821.539    -9618600.81849  -7474161.63549  23338822.0244   23338830.1024
  23836740.498    -6128920.84549  -4759087.11149  23836746.6274   23836754.4794
  20211268.282   -12802662.66149  -9935582.19349  20211272.7554   20211279.2284
  21563493.077   -18276543.48449 -14226157.99349  21563496.9684   21563504.4734
  19957421.802    -6360989.56549  -4955825.88849  19957425.8394   19957432.2734
  22009875.094    10125952.83049   7881715.08849  22009880.5514   22009887.9694
  22932192.877    -9852827.385 9  -7675798.788 9  22932194.999    22932200.902
 96  2 19 19 31 59.9980000  0  8 27  2 16 19 31 18 29 28
  21842445.436   -14677062.33349 -11418203.59149  21842448.0294   21842453.7814
  23319211.963    -9721636.08049  -7554448.82349  23319214.7224   23319222.1134
  23823091.759    -6200661.17559  -4814988.67259  23823092.9054   23823099.9134
  20204130.109   -12840181.32149  -9964817.50949  20204133.1474   20204139.8684
  21553608.024   -18328501.23649 -14266644.52049  21553609.8964   21553617.3344
  19960810.310    -6343184.83749  -4941952.08749  19960813.9534   19960820.3934
  22022677.702    10193219.27349   7934130.44749  22022680.9354   22022687.7534
  22933905.478    -9843831.950 9  -7668789.338 9  22933905.850    22933912.593
 96  2 19 19 32 29.9980000  0  8 27  2 16 19 31 18 29 28
  21826697.511   -14759815.00449 -11482686.17949  21826700.5904   21826706.4954
  23299625.790    -9824543.13049  -7634636.11749  23299632.6244   23299640.0244
  23809509.208    -6272033.99949  -4870603.82349  23809513.3364   23809517.1764
  20197019.308   -12877552.28249  -9993937.74049  20197021.7434   20197028.3214
  21543808.210   -18379995.64149 -14306770.01149  21543811.1664   21543817.8304
  19964277.753    -6324963.17149  -4927753.40149  19964281.5524   19964287.7504
  22035520.319    10260716.08649   7986725.32149  22035525.1924   22035531.6304
  22935702.120    -9834363.587 9  -7661411.389 9  22935707.681    22935713.540
 96  2 19 19 32 59.9980000  0  8 27  2 16 19 31 18 29 28
  21810956.294   -14842540.78849 -11547147.79449  21810958.1514   21810965.0664
  23280077.779    -9927303.29649  -7714708.94549  23280077.9714   23280086.7654
  23795998.203    -6343037.86059  -4925931.52559  23796001.4494   23796006.5024
  20189937.406   -12914768.52549 -10022937.39949  20189939.6494   20189946.1854
  21534102.315   -18431002.16149 -14346515.33249  21534105.4054   21534111.4414
  19967829.548    -6306307.98549  -4913216.89349  19967832.0044   19967838.3854
  22048415.264    10328467.44649   8039518.55049  22048418.0174   22048425.0624
  22937597.400    -9824415.753 9  -7653659.830 9  22937600.651    22937607.007
 96  2 19 19 33 29.9980000  0  8 27  2 16 19 31 18 29 28
  21795226.285   -14925194.45049 -11611553.23049  21795229.5704   21795236.5574
  23260561.033   -10029850.45149  -7794615.78149  23260563.3044   23260571.8044
  23782572.035    -6413610.30259  -4980923.00949  23782572.3254   23782580.0364
  20182890.861   -12951788.61349 -10051784.21549  20182894.9904   20182901.5064
  21524496.436   -18481466.19149 -14385837.93349  21524501.4154   21524508.5374
  19971473.344    -6287152.27149  -4898290.36749  19971476.9354   19971483.2434
  22061361.344    10396520.48449   8092546.84749  22061367.8844   22061374.1604
  22939592.294    -9813945.435 9  -7645501.141 9  22939593.428    22939600.629
 96  2 19 19 33 59.9980000  0  8 27  2 16 19 31 18 29 28
  21779518.501   -15007731.13349 -11675867.50949  21779523.5324   21779530.3534
  23241092.695   -10132151.92349  -7874331.19649  23241096.2374   23241102.4214
  23769231.043    -6483694.37759  -5035533.97849  23769235.2674   23769238.4294
  20175888.287   -12988592.03449 -10080462.20349  20175891.8304   20175898.0064
  21515007.396   -18531346.90649 -14424706.02249  21515009.5164   21515016.7494
  19975220.663    -6267457.12949  -4882943.51349  19975224.6874   19975231.0464
  22074371.271    10464872.10949   8145807.80349  22074374.5874   22074381.5654
  22941687.313    -9802923.311 9  -7636912.492 9  22941691.093    22941698.365
 96  2 19 19 34 29.9980000  0  8 27  2 16 19 31 18 29 28
  21763829.889   -15090183.56749 -11740116.12949  21763833.4864   21763840.5624
  23221663.564   -10234247.51549  -7953886.12749  23221666.8864   23221673.8454
  23755987.752    -6553299.40949  -5089771.66049  23755990.3374   23755998.1704
  20168919.753   -13025211.70849 -10108997.00449  20168923.2474   20168929.7804
  21505620.059   -18580673.67949 -14463142.45349  21505623.1554   21505629.3644
  19979064.402    -6247260.28049  -4867205.70849  19979067.9584   19979074.3434
  22087427.431    10533488.14349   8199274.81449  22087432.5254   22087437.9764
  22943882.683    -9791379.713 9  -7627917.495 9  22943887.378    22943893.689
 96  2 19 19 34 59.9980000  0  8 27  2 16 19 31 18 29 28
  21748170.879   -15172473.88249 -11804238.43649  21748174.0474   21748180.4554
  23202289.288   -10336063.80049  -8033223.44549  23202292.4144   23202299.0164
  23742849.990    -6622338.34249  -5143568.17849  23742851.0784   23742859.5044
  20161997.045   -13061585.57749 -10137340.27549  20162001.1884   20162007.7994
  21496353.490   -18629372.37949 -14501089.50149  21496355.5714   21496362.3474
  19983019.169    -6226484.64949  -4851016.90849  19983021.6064   19983027.8134
  22100552.013    10602464.26049   8253022.38549  22100557.9024   22100564.9224
  22946193.757    -9779236.728 9  -7618455.444 9  22946198.446    22946205.326
 96  2 19 19 35 29.9980000  0  8 27  2 16 19 31 18 29 28
  21732521.766   -15254708.57449 -11868317.39749  21732525.0094   21732531.0364
  23182949.230
  23729798.937    -6690916.27959  -5197005.53649  23729801.9834   23729810.3014
  20155099.416   -13097834.51649 -10165586.19349  20155103.1724   20155109.9914
  21487178.191   -18677566.59149 -14538643.42049  21487184.3484   21487191.6354
  19987061.411    -6205243.25849  -4834465.17949  19987063.9954   19987070.2274
  22113724.297    10671661.19849   8306942.02749  22113726.1344   22113732.1844
  22948599.802    -9766610.956 9  -7608617.185 9  22948600.427    22948608.278
 96  2 19 19 35 59.9980000  0  8 27  2 16 19 31 18 29 28
  21716861.238   -15337009.97249 -11932448.32949  21716863.4894   21716870.4214
  23163598.561     -137199.95519    -69380.06859                  23163613.7174
  23716803.127    -6759185.92949  -5250202.63749  23716809.3544   23716819.9094
  20148201.701   -13134082.15349 -10193831.10549  20148205.6084   20148212.2484
  21478083.424   -18725384.96449 -14575904.48649  21478086.0364   21478092.8654
  19991164.251    -6183681.83449  -4817664.07749  19991166.9134   19991173.2854
  22126906.270    10740945.17549   8360929.49149  22126910.7864   22126917.1294
  22951069.703    -9753630.506 9  -7598502.543 9  22951071.199    22951076.925
 96  2 19 19 36 29.9980000  0  8 27  2 16 19 31 18 29 28
  21701185.328   -15419378.75949 -11996631.77649  21701189.2234   21701195.6094
  23144259.078     -238820.39959   -148564.77549  23144268.1264   23144274.9484
  23703872.792    -6827159.20449  -5303168.83549  23703876.8314   23703882.4034
  20141307.269   -13170312.59649 -10222062.61749  20141311.1534   20141317.7474
  21469053.904   -18772831.78049 -14612876.00949  21469056.7164   21469063.3944
  19995326.343    -6161803.80449  -4800616.27049  19995330.1754   19995336.5644
  22140110.881    10810338.84549   8415002.44349  22140115.3964   22140121.8204
  22953604.314    -9740282.854 9  -7588101.774 9  22953610.648    22953617.540
 96  2 19 19 36 59.9980000  0  7 27 16 19 31 18 29 28
  21685508.517   -15501753.15449 -12060819.59449  21685513.8894   21685520.8694
  23691008.405    -6894790.81859  -5355868.78449  23691006.8074   23691012.9594
  20134427.766   -13206469.07649 -10250236.49749  20134430.7684   20134437.5954
  21460106.184   -18819852.66949 -14649515.64349  21460108.2604   21460115.2624
  19999558.757    -6139562.33249  -4783285.25749  19999562.4734   19999568.5784
  22153348.278    10879902.33049   8469207.70849  22153353.1124   22153358.8904
  22956227.898    -9726519.144 9  -7577376.821 9  22956229.484    22956237.144
 96  2 19 19 37 29.9980000  0  8 27  2 16 19 31 18 29 28
  21669830.426   -15584142.21349 -12125018.84149  21669835.7924   21669842.1744
  23105623.399      -96612.94119
  23678196.430    -6962088.04149  -5408308.16149  23678200.4914   23678206.5984
  20127562.353   -13242542.67849 -10278345.80149  20127566.0634   20127573.0734
  21451237.951   -18866456.49749 -14685830.30749  21451240.0834   21451247.4364
  20003855.429    -6116982.30149  -4765690.43949  20003858.9344   20003865.3464
  22166615.324    10949622.73349   8523535.24149  22166619.9294   22166626.8514
  22958923.898    -9712348.914 9  -7566335.081 9  22958925.700    22958932.681
 96  2 19 19 37 59.9980000  0  8 27  2 16 19 31 18 29 28
  21654154.897   -15666524.91749 -12189213.14349  21654159.0924   21654165.6024
  23086327.852     -197999.646 9   -132456.28659                  23086343.8864
  23665459.862    -7029023.04449  -5460465.29849  23665463.7634   23665471.3824
  20120720.476   -13278499.02249 -10306363.73849  20120723.4914   20120730.6424
  21442455.052   -18912605.69849 -14721790.71649  21442458.3584   21442465.6214
  20008222.104    -6094033.82949  -4747808.52749  20008226.0534   20008232.6164
  22179924.584    11019544.78849   8578019.90749  22179925.7734   22179932.3354
  22961706.122    -9697735.053 9  -7554947.632 9  22961707.808    22961713.947
 96  2 19 19 38 29.9980000  0  8 27  2 16 19 31 18 29 28
  21638466.733   -15748985.71849 -12253468.29549  21638467.4294   21638473.3494
  23067051.471     -299349.77949   -211430.38549  23067050.4594   23067057.1854
  23652782.832    -7095635.41249  -5512371.04149  23652786.4124   23652794.2164
  20113887.004   -13314409.63249 -10334346.03549  20113890.4874   20113897.2564
  21433746.918   -18958370.11049 -14757451.27749  21433750.1914   21433756.5504
  20012646.656    -6070781.22149  -4729689.62049  20012650.8994   20012657.3664
  22193255.129    11089606.21449   8632613.17449  22193258.5114   22193265.0874
  22964553.739    -9682748.195 9  -7543269.596 9  22964559.558    22964566.601
 96  2 19 19 38 59.9980000  0  8 27  2 16 19 31 18 29 28
  21622771.119   -15831432.96249 -12317712.88749  21622778.3644   21622785.0084
  23047798.844     -400553.10859   -290290.05859  23047790.8184   23047799.2684
  23640190.819    -7161813.78349  -5563938.61549  23640194.9084   23640202.7624
  20107082.632   -13350165.49549 -10362207.75949  20107086.4524   20107092.9944
  21425133.707   -19003628.71549 -14792717.72149  21425138.0384   21425144.3664
  20017150.855    -6047116.86249  -4711249.87449  20017154.3974   20017160.7224
  22206630.739    11159904.92049   8687391.32049  22206635.1714   22206642.6604
  22967501.691    -9667290.801 9  -7531224.889 9  22967501.528    22967507.101
 96  2 19 19 39 29.9980000  0  8 27  2 16 19 31 18 29 28
  21607071.802   -15913964.01049 -12382022.79149  21607073.0224   21607079.8914
  23028543.938     -501688.57749   -369096.85249  23028545.8604   23028553.9014
  23627661.898    -7227657.09049  -5615245.04549  23627663.5124   23627671.7294
  20100289.853   -13385861.65649 -10390022.95749  20100293.7214   20100300.1544
  21416601.841   -19048467.88949 -14827657.31549  21416605.1424   21416611.6674
  20021716.931    -6023119.90049  -4692550.95749  20021720.8404   20021727.3094
  22220032.425    11230331.12149   8742268.82649  22220037.0064   22220044.5754
  22970513.435    -9651452.150 9  -7518883.052 9  22970514.724    22970521.272
 96  2 19 19 39 59.9980000  0  8 27  2 16 19 31 18 29 28
  21591364.230   -15996488.92449 -12446327.90549  21591369.0444   21591375.4244
  23009326.575     -602681.21349   -447792.36349  23009327.0184   23009334.4344
  23615211.479    -7293077.99749  -5666222.41649  23615216.8704   23615221.5334
  20093524.709   -13421414.76549 -10417726.68649  20093528.2334   20093534.9094
  21408163.832   -19092799.66549 -14862201.53449  21408168.6864   21408175.9844
  20026367.019    -5998690.03249  -4673514.70749  20026369.6074   20026376.1834
  22233473.516    11300956.78449   8797301.75449  22233476.8884   22233483.3584
  22973613.210    -9635150.927 9  -7506180.810 9  22973616.803    22973624.129
 96  2 19 19 40 29.9980000  0  8 27  2 16 19 31 18 29 28
  21575653.966   -16079057.01049 -12510666.66049  21575656.9904   21575663.1964
  22990118.805     -703606.22049   -526435.19449  22990122.3814   22990129.4134
  23602830.568    -7358143.00749  -5716922.41849  23602832.8454   23602843.0084
  20086774.879   -13456889.36649 -10445369.23449  20086777.4884   20086784.4814
  21399814.676   -19136690.77449 -14896402.38249  21399817.0054   21399823.6394
  20031082.675    -5973899.76149  -4654197.62349  20031086.9094   20031093.8334
  22246936.711    11371712.52549   8852436.05649  22246941.9104   22246948.7574
  22976787.427    -9618459.221 9  -7493174.291 9  22976793.128    22976800.442
 96  2 19 19 40 59.9980000  0  8 27  2 16 19 31 18 29 28
  21559947.046   -16161591.86849 -12574979.52849  21559951.0464   21559957.4614
  22970932.920     -804404.62349   -604979.36049  22970940.1504   22970948.9064
  23590525.966    -7422814.32249  -5767315.62949  23590527.0004   23590535.4614
  20080045.479   -13492247.56249 -10472921.08249  20080049.0664   20080056.0574
  21391558.833   -19180079.58449 -14930211.82449  21391560.2704   21391566.3714
  20035878.530    -5948698.72449  -4634560.46649  20035882.5334   20035889.4294
  22260436.873    11442645.18549   8907708.21749  22260439.3094   22260447.2654
  22980049.251    -9601326.255 9  -7479823.923 9  22980053.199    22980059.156
 96  2 19 19 41 29.9980000  0  8 27  2 16 19 31 18 29 28
  21544263.785   -16244011.32749 -12639202.48449  21544266.9964   21544273.1294
  22951790.259     -905012.88949   -683375.35049  22951794.1734   22951803.1414
  23578302.211    -7487022.67949  -5817348.12149  23578307.6504   23578317.3204
  20073351.397   -13527431.84549 -10500337.40949  20073353.7134   20073360.4634
  21383404.941   -19222911.16849 -14963587.05649  21383408.7344   21383415.7914
  20040762.130    -5923034.91449  -4614562.71049  20040766.3424   20040773.0104
  22273978.458    11513822.34649   8963170.87749  22273984.1404   22273991.5754
  22983407.737    -9583692.373 9  -7466083.235 9  22983409.084    22983415.621
 96  2 19 19 41 59.9980000  0  8 27  2 16 19 31 18 29 28
  21528588.386   -16326395.44949 -12703397.89949  21528590.0934   21528596.5134
  22932668.340    -1005504.84049   -761680.71749  22932671.6144   22932679.6574
  23566166.525    -7550817.47649  -5867058.34849  23566168.2134   23566178.9844
  20066674.504   -13562507.60049 -10527669.17249  20066679.1574   20066685.8644
  21375348.135   -19265258.31449 -14996584.80449  21375350.8014   21375357.4374
  20045718.523    -5896997.18349  -4594273.58749  20045721.1724   20045727.6214
  22287559.528    11585186.99349   9018779.62649  22287563.9564   22287571.8514
  22986842.588    -9565636.311 9  -7452013.584 9  22986845.466    22986851.365
 96  2 19 19 42 29.9980000  0  8 27  2 16 19 31 18 29 28
  21512919.843   -16408711.73449 -12767540.44349  21512925.5814   21512931.8734
  22913580.425    -1105830.34349   -839856.41049  22913581.8234   22913589.3984
  23554107.842    -7614167.17649  -5916421.70949  23554113.4954   23554122.7884
  20060027.414   -13597446.26349 -10554894.10049  20060030.5744   20060036.9984
  21367390.261   -19307079.10749 -15029172.40949  21367392.8424   21367398.6474
  20050750.337    -5870553.15349  -4573667.86449  20050753.1744   20050759.9024
  22301182.890    11656784.47949   9074569.82949  22301189.1734   22301196.5024
  22990366.166    -9547123.169 9  -7437587.786 9  22990367.806    22990372.902
 96  2 19 19 42 59.9980000  0  8 27  2 16 19 31 18 29 28
  21497275.174   -16490931.77649 -12831608.00349  21497279.2814   21497286.0934
  22894525.397    -1205946.02049   -917868.58449  22894529.2634   22894538.1094
  23542148.810    -7677026.14449  -5965402.75549  23542151.8984   23542159.5574
  20053412.692   -13632203.32949 -10581977.51549  20053416.4564   20053422.9414
  21359540.436   -19348325.04449 -15061312.06449  21359543.6214   21359550.2434
  20055868.956    -5843648.82149  -4552703.46449  20055872.6944   20055879.7924
  22314862.633    11728648.61849   9130567.80749  22314864.5614   22314871.1314
  22993982.997    -9528108.655 9  -7422771.282 9  22993986.729    22993991.503
 96  2 19 19 43 29.9980000  0  8 27  2 16 19 31 18 29 28
  21481634.923   -16573126.91649 -12895656.15549  21481637.9614   21481644.2824
  22875502.611    -1305918.52249   -995769.21849  22875505.6544   22875514.2524
  23530271.365    -7739448.29849  -6014043.39149  23530273.0934   23530283.2824
  20046829.909   -13666804.98349 -10608939.83449  20046832.2084   20046838.5964
  21351790.267   -19389062.30649 -15093055.35949  21351792.0634   21351798.1474
  20061070.323    -5816318.42649  -4531407.07049  20061073.6274   20061080.7264
  22328576.837    11800718.58749   9186726.16749  22328578.7464   22328585.4424
  22997688.190    -9508645.572 9  -7407605.240 9  22997689.434    22997696.465
 96  2 19 19 43 59.9980000  0  8 27  2 16 19 31 18 29 28
  21466004.179   -16655265.71349 -12959660.40849  21466007.9674   21466014.2274
  22856508.268    -1405719.75249  -1073536.38349  22856514.4864   22856522.4084
  23518476.721    -7801411.71149  -6062326.53449  23518482.7094   23518489.3194
  20040277.601   -13701228.26249 -10635763.16849  20040281.5084   20040287.4504
  21344141.026   -19429257.90549 -15124376.59749  21344142.9454   21344149.3824
  20066361.988    -5788510.34649  -4509738.45349  20066365.3284   20066371.9704
  22342335.086    11873028.00149   9243071.10549  22342340.0844   22342345.7034
  23001482.156    -9488694.642 9  -7392059.090 9  23001486.480    23001492.269
 96  2 19 19 44 29.9980000  0  8 27  2 16 19 31 18 29 28
  21450370.302   -16737418.33549 -13023675.41649  21450375.2294   21450381.1924
  22837537.739    -1505427.78149  -1151230.91349  22837540.7684   22837548.8844
  23506757.276    -7863021.92149  -6110334.51749  23506758.2754   23506765.0884
  20033744.429   -13735563.56649 -10662517.94349  20033747.8314   20033753.8594
  21336579.467   -19468989.36749 -15155336.15249  21336582.3004   21336588.3724
  20071726.936    -5760312.45849  -4487766.08949  20071731.4344   20071737.9904
  22356121.901    11945476.67649   9299524.55849  22356126.2864   22356132.7944
  23005357.786    -9468332.177 9  -7376192.224 9  23005361.983    23005368.154
 96  2 19 19 44 59.9980000  0  8 27  2 16 19 31 18 29 28
  21434754.823   -16819487.73449 -13087625.58049  21434757.4354   21434763.3474
  22818600.348    -1604932.25549  -1228766.84349  22818604.6724   22818612.5474
  23495119.686    -7924167.43549  -6157980.36449  23495121.5474   23495131.1684
  20027248.696   -13769698.70249 -10689116.74749  20027252.2024   20027258.2784
  21329126.512   -19508158.92049 -15185857.86549  21329128.4384   21329134.7404
  20077186.362    -5731629.49949  -4465415.74849  20077189.5034   20077196.2004
  22369950.877    12018161.93149   9356162.35249  22369956.5894   22369964.7454
  23009329.027    -9447454.232 9  -7359923.723 9  23009334.703    23009341.804
 96  2 19 19 45 29.9980000  0  8 27  2 16 19 31 18 29 28
  21419159.155   -16901443.55849 -13151487.23149  21419161.6644   21419168.5304
  22799712.242    -1704195.40249  -1306114.72549  22799716.0304   22799723.6824
  23483580.884    -7984813.60349  -6205237.12249  23483583.7644   23483589.6164
  20020797.146   -13803605.41549 -10715537.54949  20020799.6254   20020806.1194
  21321781.294   -19546746.12049 -15215925.80049  21321785.5264   21321791.8654
  20082741.606    -5702439.18349  -4442670.05649  20082744.3784   20082751.3314
  22383835.265    12091113.31049   9413007.52649  22383838.9974   22383847.0354
  23013408.801    -9426041.154 9  -7343238.231 9  23013409.367    23013416.115
 96  2 19 19 45 59.9980000  0  8 27  2 16 19 31 18 29 28
  21403563.036   -16983394.96949 -13215345.46949  21403567.0254   21403573.5634
  22780851.541    -1803310.14049  -1383346.96349  22780854.3664   22780863.6964
  23472109.271    -8045069.22349  -6252189.52449  23472114.2574   23472123.7634
  20014361.951   -13837415.22949 -10741882.85449  20014366.0954   20014372.4444
  21314530.895   -19584854.58949 -15245620.69349  21314533.3204   21314540.0834
  20088364.624    -5672885.00849  -4419640.85449  20088368.3574   20088375.1244
  22397743.786    12164213.04449   9469968.29149  22397749.5034   22397757.5264
  23017562.208    -9404210.966 9  -7326227.694 9  23017562.959    23017570.080
 96  2 19 19 46 29.9980000  0  8 27  2 16 19 31 18 29 28
  21387985.074   -17065258.79949 -13279135.45449  21387988.6614   21387995.1244
  22762036.934    -1902184.92049  -1460392.21749  22762039.1314   22762048.2284
  23460742.588    -8104829.35549  -6298755.85949  23460744.8944   23460749.3494
  20007968.307   -13871026.01649 -10768073.06349  20007969.9234   20007976.4594
  21307386.887   -19622394.74949 -15274872.75549  21307389.9654   21307396.7544
  20094071.959    -5642895.99149  -4396272.81049  20094074.9934   20094081.7824
  22411695.529    12237533.76149   9527101.23849  22411703.1264   22411710.2984
  23021809.032    -9381883.275 9  -7308829.532 9  23021812.179    23021819.265
 96  2 19 19 46 59.9980000  0  8 27  2 16 19 31 18 29 28
  21372417.008   -17147089.15649 -13342899.35349  21372417.1954   21372423.5514
  22743251.287    -2000879.31049  -1537296.89449  22743258.6624   22743267.3224
  23449458.667    -8164120.52649  -6344956.77249  23449460.8864   23449468.6364
  20001598.036   -13904486.94149 -10794146.49549  20001602.7654   20001609.2894
  21300343.703   -19659418.52749 -15303722.43449  21300345.1924   21300351.1694
  20099855.987    -5612502.39849  -4372589.50849  20099858.7924   20099865.5804
  22425687.974    12311040.19749   9584378.92349  22425690.4044   22425697.3844
  23026142.419    -9359114.517 9  -7291087.671 9  23026145.942    23026151.993
 96  2 19 19 47 29.9980000  0  8 27  2 16 19 31 18 29 28
  21356841.687   -17228918.93249 -13406662.80349  21356845.9504   21356851.8984
  22724496.264    -2099458.98849  -1614112.20449  22724499.8684   22724508.3574
  23438249.677    -8222994.27749  -6390832.42749  23438256.5274   23438265.1614
  19995249.713   -13937855.25949 -10820147.77949  19995252.7434   19995259.4484
  21293387.517   -19695963.38549 -15332198.94549  21293390.4034   21293396.4834
  20105706.715    -5581751.21049  -4348627.56949  20105710.6224   20105717.4434
  22439703.496    12384690.01749   9641768.33649  22439705.6724   22439712.6434
  23030549.651    -9335948.261 9  -7273036.062 9  23030553.486    23030560.247
 96  2 19 19 47 59.9980000  0  8 27  2 16 19 31 18 29 28
  21341289.750   -17310645.70649 -13470345.98749  21341293.4984   21341299.0014
  22705777.452    -2197837.43149  -1690770.68849  22705778.9444   22705786.4634
  23427150.709    -8281356.66349  -6436309.57149  23427151.4064   23427159.5644
  19988935.119   -13971038.14149 -10846004.56549  19988938.3694   19988944.9684
  21286542.709   -19731926.72349 -15360222.32949  21286546.2484   21286552.3384
  20111643.966    -5550557.33749  -4324320.67749  20111646.8034   20111653.1374
  22453762.523    12458582.05049   9699346.48849  22453767.9344   22453774.6334
  23035052.661    -9312280.958 9  -7254594.043 9  23035056.747    23035063.656
 96  2 19 19 48 29.9980000  0  8 27  2 16 19 31 18 29 28
  21325759.344   -17392272.70149 -13533951.41849  21325759.9874   21325766.1464
  22687086.152    -2296041.55349  -1767293.36349  22687091.8154   22687099.6314
  23416140.260    -8339217.18049  -6481395.70049  23416140.2404   23416147.6614
  19982655.999   -14004032.90649 -10871714.77449  19982659.6374   19982666.0024
  21279811.464   -19767312.28349 -15387795.47949  21279812.6974   21279819.5814
  20117667.643    -5518907.54749  -4299658.52649  20117669.4724   20117675.7244
  22467874.019    12532727.89549   9757122.42849  22467876.8344   22467883.2414
  23039651.307    -9288116.155 9  -7235764.367 9  23039655.363    23039662.332
 96  2 19 19 48 59.9980000  0  8 27  2 16 19 31 18 29 28
  21310223.164   -17473891.17049 -13597550.20549  21310228.4434   21310234.8374
  22668416.734    -2394170.24349  -1843757.22949  22668417.9854   22668425.8004
  23405201.936    -8396687.31749  -6526177.60949  23405204.9524   23405211.4144
  19976394.179   -14036939.04749 -10897355.91849  19976397.9774   19976404.2954
  21273169.200   -19802210.58849 -15414988.96749  21273172.3704   21273178.2744
  20123760.147    -5486878.57049  -4274700.90249  20123764.3674   20123770.4684
  22482015.217    12607045.25349   9815032.01149  22482018.8724   22482025.5934
  23044325.976    -9263548.180 9  -7216620.543 9  23044330.664    23044337.438
 96  2 19 19 49 29.9980000  0  8 27  2 16 19 31 18 29 28
  21294689.882   -17555535.05349 -13661168.80749  21294691.9954   21294698.4894
  22649751.483    -2492240.49249  -1920175.56549  22649756.0094   22649762.5044
  23394334.453    -8453811.55749  -6570689.98849  23394334.0904   23394341.5254
  19970145.369   -14069781.97349 -10922947.80949  19970148.1844   19970154.1494
  21266612.830   -19836655.46549 -15441829.12349  21266616.7514   21266623.6634
  20129922.565    -5454502.91449  -4249473.13949  20129925.4214   20129931.4264
  22496180.027    12681494.73049   9873044.53249  22496185.8644   22496192.1384
  23049075.926    -9238603.691 9  -7197183.278 9  23049077.647    23049083.473
 96  2 19 19 49 59.9980000  0  8 27  2 16 19 31 18 29 28
  21279139.063   -17637250.91049 -13724843.48149  21279141.9324   21279148.7834
  22631103.613    -2590257.32949  -1996552.29249  22631104.3174   22631110.4624
  23383526.425    -8510613.26249  -6614951.03849  23383525.4154   23383531.8344
  19963903.127   -14102579.52249 -10948504.33949  19963907.0984   19963913.2404
  21260139.311   -19870675.50349 -15468338.23949  21260143.4484   21260150.1644
  20136144.706    -5421801.78049  -4223991.75949  20136148.2124   20136154.4514
  22510368.122    12756047.42549   9931137.49649  22510372.9244   22510379.3914
  23053886.424    -9213317.181 9  -7177479.509 9  23053888.699    23053896.564
 96  2 19 19 50 29.9980000  0  8 27  2 16 19 31 18 29 28
  21263584.081   -17718987.48249 -13788534.29149  21263587.9974   21263594.8234
  22612473.464    -2688140.52749  -2072824.88349  22612477.0664   22612485.4044
  23372787.084    -8567024.83749  -6658908.10549  23372790.6984   23372797.3104
  19957682.346   -14135267.20749 -10973975.26749  19957686.5664   19957693.1084
  21253760.264   -19904206.92949 -15494466.59949  21253762.6314   21253769.3884
  20142443.250    -5388700.80549  -4198198.81549  20142446.8314   20142453.3024
  22524585.577    12830762.85749   9989357.26149  22524589.2844   22524597.3404
  23058772.830    -9187633.822 9  -7157466.528 9  23058776.260    23058783.657
 96  2 19 19 50 59.9980000  0  8 27  2 16 19 31 18 29 28
  21248041.185   -17800669.06149 -13852182.25249  21248044.4864   21248051.0794
  22593891.592    -2785794.02949  -2148918.50749  22593894.7474   22593903.2854
  23362144.403    -8622956.94049  -6702491.58149  23362148.4154   23362154.6964
  19951495.458   -14167777.98749 -10999308.34549  19951499.9814   19951506.5424
  21247487.293   -19937172.09049 -15520153.72049  21247489.8564   21247496.8204
  20148829.578    -5355139.76549  -4172047.38049  20148833.0634   20148839.8504
  22538844.893    12905693.88849  10047745.03649  22538849.5294   22538856.8074
  23063746.868    -9161481.253 9  -7137087.889 9  23063753.234    23063760.132
 96  2 19 19 51 29.9980000  0  8 27  2 16 19 31 18 29 28
  21232506.263   -17882320.89349 -13915807.02349  21232506.6274   21232513.2714
  22575349.325    -2883239.72049  -2224850.18449  22575350.9014   22575359.5264
  23351591.560    -8678417.57649  -6745707.61749  23351592.2044   23351601.0914
  19945339.473   -14200133.79049 -11024520.65749  19945342.7124   19945349.3804
  21241317.440   -19969592.39549 -15545416.28249  21241320.2274   21241327.3704
  20155295.280    -5321166.81249  -4145574.97249  20155298.2994   20155304.8144
  22553139.227    12980802.43749  10106271.12749  22553142.2064   22553148.3264
  23068811.855    -9134886.516 9  -7116364.705 9  23068814.489    23068820.600
 96  2 19 19 51 59.9980000  0  8 27  2 16 19 31 18 29 28
  21216973.174   -17963924.71849 -13979394.38949  21216978.1694   21216984.9394
  22556841.459    -2980484.66749  -2300625.46249  22556846.1264   22556855.0284
  23341126.556    -8733396.32849  -6788548.23049  23341132.2184   23341139.5014
  19939212.278   -14232326.16949 -11049605.62949  19939216.9084   19939223.5594
  21235252.885   -20001462.56949 -15570250.17049  21235255.4674   21235263.0754
  20161836.430    -5286795.71449  -4118792.31949  20161839.1704   20161845.8774
  22567465.208    13056083.74549  10164931.82149  22567467.7254   22567474.7334
  23073956.165    -9107853.928 9  -7095300.342 9  23073958.242    23073965.362
 96  2 19 19 52 29.9980000  0  8 27  2 16 19 31 18 29 28
  21201426.521   -18045620.55049 -14043053.46149  21201431.8234   21201438.2044
  22538341.975    -3077717.96649  -2376391.65149  22538342.5594   22538351.1064
  23330723.748    -8788070.60349  -6831151.58649  23330727.7094   23330736.4184
  19933086.181   -14264524.72149 -11074695.40549  19933089.7024   19933096.1404
  21229262.423   -20032949.71249 -15594785.59049  21229264.3864   21229271.4404
  20168418.747    -5252204.45149  -4091838.10749  20168421.8384   20168428.1744
  22581787.005    13131356.72849  10223586.03849  22581791.8814   22581799.6064
  23079152.076    -9080550.330 9  -7074024.807 9  23079153.697    23079160.685
 96  2 19 19 52 59.9980000  0  8 27  2 16 19 31 18 29 28
  21185891.098   -18127272.12649 -14106678.04549  21185893.9844   21185900.2204
  22519864.173    -3174827.70949  -2452061.55849  22519863.1274   22519872.1404
  23320399.825    -8842325.48249  -6873428.09349  23320402.9544   23320410.3714
  19926982.062   -14296600.72849 -11099689.69049  19926985.8314   19926992.5884
  21223365.577   -20063926.58149 -15618923.39349  21223368.8324   21223375.3954
  20175065.297    -5217278.19749  -4064622.86549  20175068.2254   20175074.2854
  22596133.319    13206741.82749  10282327.62549  22596137.0554   22596144.3764
  23084421.855    -9052845.874 9  -7052436.929 9  23084425.833    23084432.906
 96  2 19 19 53 29.9980000  0  8 27  2 16 19 31 18 29 28
  21170365.931   -18208852.15149 -14170246.87149  21170369.5414   21170376.0324
  22501407.129    -3271791.55349  -2527617.76549  22501412.1334   22501419.1844
  23310156.926    -8896142.58749  -6915363.48049  23310160.6324   23310168.0444
  19920909.413   -14328513.88849 -11124557.08049  19920912.9854   19920919.7454
  21217574.254   -20094372.90349 -15642647.77649  21217575.6954   21217581.7134
  20181780.944    -5181982.35049  -4037119.62649  20181784.3734   20181791.0894
  22610509.557    13282276.61649  10341185.85349  22610511.6844   22610518.1484
  23089775.563    -9024711.020 9  -7030513.673 9  23089780.022    23089786.643
 96  2 19 19 53 59.9980000  0  8 27  2 16 19 31 18 29 28
  21154857.588   -18290340.53749 -14233744.30249  21154862.9004   21154869.7254
  22482988.185    -3368594.25549  -2603048.45149  22482990.6714   22482997.9894
  23300000.821    -8949524.32249  -6956959.62749  23300002.4764   23300011.1464
  19914868.029   -14360260.32749 -11149294.55949  19914871.7794   19914878.5804
  21211881.354   -20124280.76649 -15665952.58949  21211884.7914   21211890.8554
  20188572.747    -5146293.16849  -4009309.89549  20188575.9334   20188582.4334
  22624910.372    13357981.20949  10400176.38449  22624917.2734   22624924.5914
  23095217.406    -8996132.437 9  -7008244.636 9  23095218.318    23095224.952
 96  2 19 19 54 29.9980000  0  8 27  2 16 19 31 18 29 28
  21139362.789   -18371775.47149 -14297200.06849  21139366.7244   21139373.2684
  22464593.492    -3465265.37649  -2678376.57749  22464594.5654   22464602.2924
  23289917.180    -9002508.42249  -6998245.95049  23289920.5774   23289928.1614
  19908849.153   -14391890.97649 -11173941.81149  19908852.8164   19908859.4604
  21206285.767   -20153683.18849 -15688863.53649  21206289.0724   21206295.2284
  20195434.463    -5110233.31349  -3981211.32349  20195437.9714   20195444.3294
  22639346.466    13433829.61549  10459278.99849  22639350.2494   22639358.4174
  23100727.741    -8967140.955 9  -6985653.877 9  23100735.066    23100741.357
 96  2 19 19 54 59.9980000  0  8 27  2 16 19 31 18 29 28
  21123875.311   -18453166.69049 -14360621.78449  21123878.5284   21123885.3894
  22446225.462    -3561791.79749  -2753591.93849  22446226.8064   22446234.4554
  23279913.780    -9055070.10549  -7039203.14449  23279919.0424   23279927.3934
  19902852.452   -14423405.41749 -11198498.51149  19902855.8794   19902861.9764
  21200788.192   -20182578.78649 -15711379.58049  21200790.6144   21200796.9694
  20202369.744    -5073789.53449  -3952813.59249  20202373.1534   20202379.1264
  22653809.732    13509831.90149  10518501.49949  22653813.7604   22653819.9024
  23106331.079    -8937735.596 9  -6962740.623 9  23106331.153    23106337.019
 96  2 19 19 55 29.9980000  0  8 27  2 16 19 31 18 29 28
  21108382.313   -18534579.73649 -14424060.50549  21108386.1114   21108392.5714
  22427867.186    -3658249.50749  -2828753.74849  22427870.6194   22427879.3474
  23269983.276    -9107276.32149  -7079883.31049  23269985.3124   23269992.9024
  19896863.790   -14454879.41249 -11223023.68949  19896866.4534   19896872.5374
  21195369.662   -20211050.91849 -15733565.65549  21195372.2374   21195378.4014
  20209363.878    -5037035.81749  -3924174.34949  20209367.2844   20209373.2394
  22668288.068    13585908.59349  10577782.00949  22668289.0654   22668298.9094
  23111987.361    -8908001.258 9  -6939571.013 9  23111989.767    23111996.319
 96  2 19 19 55 59.9980000  0  8 27  2 16 19 31 18 29 28
  21092883.354   -18616022.99849 -14487522.77349  21092888.0144   21092894.4124
  22409519.004    -3754641.77949  -2903864.59349  22409527.9754   22409535.2444
  23260115.103    -9159137.55949  -7120294.69449  23260115.9404   23260122.6194
  19890879.809   -14486328.01049 -11247529.08349  19890881.9784   19890888.1004
  21190029.737   -20239110.09149 -15755429.94049  21190033.2274   21190039.4184
  20216416.166    -4999984.56849  -3895303.26349  20216417.8214   20216423.5824
  22682768.723    13662039.16349  10637104.45749  22682777.4664   22682784.2084
  23117703.608    -8877952.653 9  -6916156.538 9  23117707.881    23117714.048
 96  2 19 19 56 29.9980000  0  8 27  2 16 19 31 18 29 28
  21077394.962   -18697418.30649 -14550947.66449  21077398.7424   21077404.7094
  22391215.335    -3850868.57349  -2978846.48949  22391216.7764   22391224.8944
  23250332.521    -9210549.00849  -7160355.57649  23250332.2044   23250339.3394
  19884920.053   -14517643.09649 -11271930.44349  19884922.9804   19884929.3774
  21184788.923   -20266655.68149 -15776894.04949  21184791.5824   21184797.7914
  20223538.005    -4962548.30849  -3866132.16049  20223541.4314   20223547.7794
  22697287.777    13738306.41049  10696533.44249  22697290.1624   22697298.1364
  23123497.811    -8847501.551 9  -6892428.408 9  23123502.401    23123508.190
 96  2 19 19 56 59.9980000  0  8 27  2 16 19 31 18 29 28
  21061920.885   -18778730.84549 -14614308.06649  21061925.3994   21061932.1224
  22372944.665    -3946871.42049  -3053653.89349  22372948.0924   22372956.4654
  23240639.371    -9261459.60049  -7200026.18549  23240643.7034   23240651.3144
  19878997.541   -14548760.52349 -11296177.78349  19879001.6784   19879007.8064
  21179653.635   -20293639.16549 -15797920.14649  21179656.8154   21179662.8004
  20230744.427    -4924689.35649  -3836631.68649  20230745.9714   20230752.1824
  22711832.386    13814744.05549  10756095.20649  22711836.5484   22711844.0984
  23129376.678    -8816608.238 9  -6868355.700 9  23129380.681    23129386.948
 96  2 19 19 57 29.9980000  0  8 27  2 16 19 31 18 29 28
  21046461.662   -18859973.64449 -14677614.13349  21046465.2054   21046471.5364
  22354718.358    -4042646.25349  -3128283.60049  22354722.3664   22354730.9964
  23231044.338    -9311892.91049  -7239324.83749  23231046.2684   23231057.5934
  19873114.643   -14579682.28049 -11320272.65449  19873117.4414   19873123.4414
  21174626.113   -20320061.81649 -15818509.22849  21174628.5474   21174634.6454
  20238024.569    -4886417.38249  -3806809.37949  20238028.6814   20238035.1214
  22726409.308    13891345.45649  10815784.58649  22726413.0514   22726420.5444
  23135340.624    -8785279.925 9  -6843944.058 9  23135342.813    23135348.780
 96  2 19 19 57 59.9980000  0  9 27  2 16 12 19 31 18 29 28
  21030998.950   -18941241.40049 -14740939.64549  21031000.6334   21031007.3474
  22336525.668    -4138262.89149  -3202790.04849  22336527.2124   22336535.4694
  23221523.195    -9361920.36449  -7278307.27049  23221527.1024   23221534.6314
  23528266.735     -226559.15419   -153408.68419  23528274.793    23528284.685
  19867252.086   -14610482.63449 -11344272.92249  19867256.0834   19867262.2344
  21169690.658   -20345979.31149 -15838704.68149  21169696.0954   21169702.9174
  20245375.384    -4847799.28149  -3776717.36249  20245377.8054   20245384.2254
  22741001.617    13968042.20949  10875548.21849  22741007.9224   22741015.5014
  23141368.337    -8753585.803 9  -6819247.333 9  23141373.759    23141379.818
 96  2 19 19 58 29.9980000  0  9 27  2 16 12 19 31 18 29 28
  21015521.747   -19022566.65249 -14804309.96049  21015525.0404   21015531.4794
  22318353.161    -4233752.11149  -3277197.20449  22318355.6204   22318364.9664
  23212078.083    -9411556.18949  -7316984.56549  23212082.5734   23212087.7894
  23510234.135     -321347.09019   -227269.43519  23510237.522    23510247.242
  19861410.900   -14641183.66849 -11368195.79949  19861413.6994   19861419.8854
  21164855.626   -20371401.50849 -15858514.19449  21164858.9514   21164865.0614
  20252787.148    -4808851.71449  -3746368.61349  20252789.2404   20252795.7064
  22755616.768    14044826.58749  10935380.17449  22755619.9574   22755626.2034
  23147468.704    -8721547.122 9  -6794282.139 9  23147470.379    23147476.854
 96  2 19 19 58 59.9980000  0  9 27  2 16 12 19 31 18 29 28
  21000051.656   -19103865.57149 -14867659.75349  21000054.2604   21000061.1494
  22300215.811    -4329057.90549  -3351461.43449  22300220.4984   22300228.7234
  23202721.539    -9460725.29649  -7355298.14749  23202725.9524   23202733.0444
  23492217.311     -416028.451 9   -301047.080 9  23492219.732    23492229.184
  19855598.554   -14671718.40249 -11391989.10049  19855603.2874   19855609.5744
  21160125.022   -20396262.05449 -15877886.05349  21160127.2384   21160134.3414
  20260273.903    -4769503.92549  -3715708.01049  20260276.9664   20260283.5404
  22770262.565    14121778.95749  10995342.99349  22770263.6604   22770269.9874
  23153645.074    -8689088.959 9  -6768990.077 9  23153646.908    23153653.560
 96  2 19 19 59 29.9980000  0  9 27  2 16 12 19 31 18 29 28
  20984591.312   -19185112.44249 -14930968.98949  20984593.1294   20984600.0814
  22282114.481    -4424182.34649  -3425584.35449  22282118.5414   22282127.2844
  23193456.451    -9509416.81649  -7393239.61049  23193458.8604   23193467.8084
  23474220.544     -510586.627 9   -374728.785 9  23474226.366    23474237.159
  19849822.500   -14702077.82349 -11415645.79049  19849826.1284   19849832.2834
  21155501.939   -20420552.79249 -15896813.90649  21155505.5834   21155511.5334
  20267838.559    -4729744.96949  -3684727.01649  20267842.7804   20267849.4064
  22784940.320    14198917.60649  11055450.99549  22784943.0234   22784949.6714
  23159901.929    -8656196.531 9  -6743359.658 9  23159906.226    23159912.446
 96  2 19 19 59 59.9980000  0  9 27  2 16 12 19 31 18 29 28
  20969144.470   -19266276.24249 -14994213.50449  20969148.4554   20969154.9004
  22264049.172    -4519121.64749  -3499563.00849  22264052.7644   22264060.5844
  23184290.295    -9557603.22249  -7430787.45549  23184290.8674   23184298.3314
  23456256.354     -605008.785 9   -448304.471 9  23456257.869    23456267.567
  19844081.020   -14732251.36549 -11439157.63349  19844084.3854   19844090.8314
  21150989.394   -20444269.24549 -15915294.26049  21150992.7634   21150998.8564
  20275485.073    -4689566.26549  -3653418.93849  20275488.3144   20275494.8924
  22799653.749    14276248.05949  11115708.43849  22799658.0204   22799665.3754
  23166246.718    -8622858.351 9  -6717381.871 9  23166250.261    23166256.905
 96  2 19 20  0 29.9980000  0  9 27  2 16 12 19 31 18 29 28
  20953712.962   -19347369.15049 -15057402.77049  20953716.8454   20953723.4024
  22246010.117    -4613915.89649  -3573428.64649  22246014.7154   22246020.9774
  23175207.016    -9605320.94449  -7467970.10049  23175208.6264   23175216.3634
  23438308.678     -699333.232 9   -521803.995 9  23438308.600    23438319.578
  19838366.744   -14762279.89349 -11462556.48649  19838370.3524   19838376.7314
  21146576.461   -20467456.12649 -15933361.95949  21146580.0764   21146586.5124
  20283202.993    -4649010.28849  -3621816.88849  20283205.5854   20283212.2824
  22814398.300    14353725.06749  11176080.08749  22814401.0124   22814410.1274
  23172669.059    -8589114.144 9  -6691087.690 9  23172671.727    23172678.364
 96  2 19 20  0 59.9980000  0  9 27  2 16 12 19 31 18 29 28
  20938300.398   -19428371.06449 -15120521.13349  20938302.5994   20938309.3024
  22228001.002    -4708562.33149  -3647179.08949  22228002.6974   22228012.2904
  23166210.545    -9652573.00049  -7504789.87149  23166218.4694   23166225.4484
  23420370.237     -793562.385 9   -595229.284 9  23420376.230    23420387.238
  19832678.432   -14792168.43049 -11485846.25249  19832682.3574   19832688.8834
  21142262.053   -20490128.84649 -15951029.01349  21142265.8724   21142272.5264
  20290991.107    -4608084.61149  -3589926.76349  20290993.7354   20291000.1014
  22829167.705    14431336.17949  11236556.22949  22829171.0344   22829174.9384
  23179167.579    -8554968.038 9  -6664480.366 9  23179169.125    23179175.750
 96  2 19 20  1 29.9980000  0  9 27  2 16 12 19 31 18 29 28
  20922887.905   -19509352.72749 -15183623.71249  20922892.5634   20922898.9624
  22210004.721    -4803112.72849  -3720854.69149  22210010.7724   22210018.7994
  23157299.264    -9699438.20549  -7541308.20849  23157300.0674   23157306.2854
  23402447.569     -887769.074 9   -668637.010 9  23402450.805    23402460.927
  19827002.562   -14821996.53049 -11509088.92549  19827005.9824   19827012.4654
  21138032.108   -20512359.97549 -15968351.96649  21138035.2544   21138041.2554
  20298835.731    -4566856.62249  -3557801.06249  20298839.4224   20298845.4844
  22843947.426    14509002.23949  11297075.20749  22843948.6354   22843955.9194
  23185724.393    -8520494.405 9  -6637617.793 9  23185729.327    23185735.718
 96  2 19 20  1 59.9980000  0  9 27  2 16 12 19 31 18 29 28
  20907489.912   -19590274.95449 -15246679.96949  20907493.8694   20907500.3494
  22192042.053    -4897522.88849  -3794421.03549  22192044.6114   22192052.8614
  23148461.853    -9745876.78149  -7577494.10849  23148462.9334   23148469.8554
  23384527.964     -981911.460 9   -741994.686 9  23384535.157    23384545.747
  19821344.746   -14851731.21249 -11532258.81049  19821347.7084   19821354.1894
  21133895.114   -20534087.48549 -15985282.48149  21133899.7594   21133907.1854
  20306746.308    -4525287.36549  -3525409.43949  20306749.6044   20306755.8754
  22858744.135    14586766.79549  11357670.89949  22858748.3384   22858755.2674
  23192353.941    -8485653.111 9  -6610468.724 9  23192359.198    23192366.296
 96  2 19 20  2 29.9970000  0  9 27  2 16 12 19 31 18 29 28
  20892111.099   -19671098.45749 -15309659.30049  20892113.6694   20892120.0194
  22174114.338    -4991732.15349  -3867830.83649  22174117.4134   22174125.4824
  23139714.955    -9791842.53549  -7613311.58949  23139716.0804   23139722.3564
  23366640.935    -1075933.065 9   -815258.274 9  23366643.836    23366652.142
  19815715.154   -14881317.01649 -11555312.68149  19815717.9184   19815724.5104
  21129869.322   -20555251.63949 -16001774.01849  21129872.7534   21129880.3094
  20314729.390    -4483332.73149  -3492717.52549  20314733.0024   20314739.1304
  22873568.218    14664680.68849  11418382.96549  22873575.0184   22873583.9954
  23199067.911    -8450393.413 9  -6582993.669 9  23199069.183    23199075.688
 96  2 19 20  2 59.9970000  0  9 27  2 16 12 19 31 18 29 28
  20876731.707   -19751915.74749 -15372633.78749  20876734.5384   20876741.1864
  22156215.418    -5085806.32249  -3941135.35649  22156215.7114   22156223.5404
  23131036.622    -9837421.82249  -7648827.89349  23131042.4934   23131048.4024
  23348758.161    -1169917.414 9   -888492.730 9  23348757.986    23348770.044
  19810099.897   -14910816.74149 -11578299.47749  19810104.3174   19810110.7894
  21125936.511   -20575927.24149 -16017884.86849  21125938.7494   21125945.1914
  20322771.494    -4441070.85649  -3459786.20649  20322775.2094   20322781.3734
  22888413.478    14742665.24049  11479150.12449  22888414.8684   22888421.8234
  23205842.833    -8414791.786 9  -6555252.171 9  23205844.196    23205850.236
 96  2 19 20  3 29.9970000  0  9 27  2 16 12 19 31 18 29 28
  20861348.679   -19832747.73449 -15435619.72549  20861352.6234   20861359.5614
  22138334.053    -5179765.01749  -4014349.90549  22138335.8984   22138344.1194
  23122435.673    -9882635.98749  -7684059.68049  23122437.4644   23122445.4574
  23330871.103    -1263881.329 9   -961711.326 9  23330878.210    23330887.309
  19804500.989   -14940240.61749 -11601227.16749  19804504.9414   19804511.4434
  21122094.062   -20596117.69049 -16033617.68149  21122096.6554   21122103.6724
  20330867.265    -4398523.29249  -3426632.26649  20330871.4264   20330877.9074
  22903254.873    14820692.29149  11539950.34649  22903262.1204   22903269.3804
  23212677.646    -8378870.938 9  -6527261.916 9  23212679.686    23212686.321
 96  2 19 20  3 59.9970000  0  9 27  2 16 12 19 31 18 29 28
  20845974.291   -19913538.88949 -15498573.84849  20845978.5264   20845985.2104
  22120481.634    -5273566.35649  -4087441.83649  22120486.8744   22120494.3724
  23113913.775    -9927422.23949  -7718958.07049  23113915.8374   23113924.1484
  23313006.984    -1357766.485 9  -1034868.582 9  23313014.026    23313022.805
  19798931.659   -14969510.84649 -11624035.14049  19798934.9664   19798941.5904
  21118355.831   -20615763.43949 -16048926.05149  21118358.2444   21118364.8984
  20339030.271    -4355636.25449  -3393213.80049  20339032.8524   20339038.9164
  22918127.189    14898813.10949  11600823.67649  22918128.6744   22918136.4384
  23219582.760    -8342574.657 9  -6498979.123 9  23219586.490    23219593.458
 96  2 19 20  4 29.9970000  0  9 27  2 16 12 19 31 18 29 28
  20830605.624   -19994311.38849 -15561513.43049  20830607.7374   20830614.7294
  22102659.382    -5367222.17849  -4160420.38049  22102664.1534   22102672.1354
  23105470.993    -9971795.59049  -7753534.69249  23105471.3854   23105480.1894
  23295155.041    -1451590.321 9  -1107977.995 9  23295158.070    23295168.933
  19793389.922   -14998634.24449 -11646728.69449  19793393.2084   19793399.7174
  21114713.372   -20634904.05949 -16063840.81249  21114716.0524   21114722.4074
  20347254.123    -4312417.07849  -3359536.53249  20347257.3104   20347263.7614
  22933005.458    14977014.28349  11661759.58749  22933010.6364   22933017.7384
  23226559.488    -8305921.686 9  -6470418.389 9  23226561.329    23226568.667
 96  2 19 20  4 59.9970000  0  9 27  2 16 12 19 31 18 29 28
  20815238.559   -20075060.43049 -15624434.73549  20815241.8954   20815248.4584
  22084864.547    -5460734.14949  -4233286.82249  22084869.1774   22084876.9314
  23097095.874   -10015765.41049  -7787796.85749  23097103.5564   23097110.8044
  23277309.234    -1545357.233 9  -1181043.087 9  23277314.998    23277324.620
  19787875.245   -15027615.67949 -11669311.62649  19787878.4434   19787884.4354
  21111167.443   -20653542.06549 -16078363.93049  21111168.9054   21111175.1484
  20355542.200    -4268862.21749  -3325597.69249  20355545.5604   20355552.1444
  22947904.657    15055302.60749  11722763.42849  22947906.8974   22947914.6614
  23233600.599    -8268918.202 9  -6441584.525 9  23233602.970    23233610.295
 96  2 19 20  5 29.9970000  0  9 27  2 16 12 19 31 18 29 28
  20799872.260   -20155814.20249 -15687359.73149  20799875.3304   20799881.3824
  22067093.381    -5554135.11049  -4306066.77049  22067095.9624   22067103.4914
  23088813.117   -10059340.40549  -7821751.42149  23088813.1164   23088819.4634
  23259475.862    -1639083.772 9  -1254076.708 9  23259479.757    23259490.213
  19782380.660   -15056486.06449 -11691808.02749  19782384.5344   19782390.9484
  21107709.221   -20671701.03449 -16092513.76649  21107713.5884   21107720.0484
  20363893.376    -4224987.41949  -3291409.55249  20363894.9374   20363900.9824
  22962821.357    15133677.75249  11783834.92949  22962823.7164   22962829.5854
  23240704.891    -8231582.455 9  -6412491.749 9  23240707.517    23240714.528
 96  2 19 20  5 59.9970000  0  9 27  2 16 12 19 31 18 29 28
  20784493.657   -20236623.32349 -15750327.85149  20784497.8174   20784504.2374
  22049333.383    -5647456.85249  -4378784.98749  22049336.8144   22049345.2344
  23080583.076   -10102551.68149  -7855422.50549  23080588.8454   23080596.6584
  23241639.876    -1732807.738 9  -1327108.319 9  23241641.968    23241654.125
  19776899.737   -15085286.38249 -11714249.82449  19776904.1724   19776910.2764
  21104338.225   -20689411.05249 -16106313.76849  21104343.5894   21104349.6904
  20372293.078    -4180829.93049  -3257001.13849  20372297.6914   20372303.9904
  22977743.887    15212112.94749  11844953.20949  22977748.9534   22977756.9744
  23247866.219    -8193953.908 9  -6383170.847 9  23247868.204    23247874.667
 96  2 19 20  6 29.9970000  0  9 27  2 16 12 19 31 18 29 28
  20769105.298   -20317502.30849 -15813350.40849  20769107.0754   20769113.0874
  22031594.736    -5740702.24149  -4451443.69249  22031593.0814   22031601.4354
  23072431.091   -10145423.01949  -7888828.75749  23072431.6714   23072438.6224
  23223800.456    -1826551.454 9  -1400155.320 9  23223806.212    23223816.533
  19771425.460   -15114052.95349 -11736665.33149  19771429.7154   19771435.9884
  21101055.512   -20706679.58249 -16119769.75049  21101057.6324   21101063.9934
  20380747.161    -4136409.38649  -3222387.74349  20380750.8134   20380757.0084
  22992680.909    15290590.45249  11906104.45349  22992682.0264   22992687.2834
  23255075.553    -8156056.681 9  -6353640.559 9  23255079.885    23255086.029
 96  2 19 20  6 59.9970000  0  9 27  2 16 12 19 31 18 29 28
  20753710.718   -20398387.22749 -15876377.59049  20753715.0364   20753721.1724
  22013871.149    -5833812.09849  -4523996.79649  22013875.2554   22013883.3374
  23064346.899   -10187897.46149  -7921925.71549  23064349.2404   23064356.0954
  23205974.152    -1920261.897 9  -1473176.371 9  23205972.578    23205983.068
  19765971.125   -15142723.61849 -11759006.11149  19765973.9804   19765980.1384
  21097865.261   -20723442.57149 -16132831.80949  21097867.7634   21097873.7254
  20389258.375    -4091684.95549  -3187537.55549  20389261.5304   20389267.6194
  23007630.262    15369145.08049  11967315.82349  23007630.7564   23007639.9494
  23262351.194    -8117839.176 9  -6323860.724 9  23262352.635    23262358.682
 96  2 19 20  7 29.9970000  0  9 27  2 16 12 19 31 18 29 28
  20738320.072   -20479263.04949 -15939397.68749  20738324.6044   20738331.4644
  21996176.532    -5926799.54649  -4596454.50949  21996180.5154   21996188.2114
  23056340.717   -10229956.74949  -7954699.18849  23056345.6054   23056354.0754
  23188143.106    -2013940.989 9  -1546173.005 9  23188145.883    23188157.709
  19760533.789   -15171294.66749 -11781269.25949  19760537.1974   19760543.3114
  21094769.834   -20739697.30249 -16145497.82149  21094774.6564   21094780.9034
  20397826.455    -4046661.54649  -3152454.39549  20397829.2824   20397835.6014
  23022583.314    15447751.81849  12028567.77049  23022588.5594   23022596.3884
  23269682.973    -8079305.278 9  -6293834.355 9  23269685.118    23269691.794
 96  2 19 20  7 59.9970000  0  9 27  2 16 12 19 31 18 29 28
  20722951.899   -20560028.79349 -16002332.01849  20722955.4764   20722961.8994
  21978517.741    -6019588.94049  -4668757.89349  21978522.8654   21978531.0124
  23048430.131   -10271533.21349  -7987096.38549  23048433.5104   23048441.5624
  23170335.590    -2107518.161 9  -1619090.261 9  23170340.141    23170348.746
  19755129.804   -15199690.67749 -11803396.01449  19755133.5604   19755139.9474
  21091786.378   -20755380.80749 -16157718.73049  21091789.7554   21091796.5254
  20406462.881    -4001269.28849  -3117083.82549  20406467.0864   20406473.9254
  23037563.601    15526461.55149  12089899.92949  23037566.6424   23037577.3624
  23277091.933    -8040386.166 9  -6263507.806 9  23277091.094    23277097.788
 96  2 19 20  8 29.9970000  0  9 27  2 16 12 19 31 18 29 28
  20707616.073   -20640621.45749 -16065131.48049  20707619.5384   20707625.5564
  21960908.765    -6112131.36249  -4740868.83749  21960912.3174   21960919.9774
  23040616.794   -10312580.62549  -8019081.39549  23040623.0364   23040630.9774
  23152561.227    -2200943.386 9  -1691889.073 9  23152562.533    23152571.110
  19749770.193   -15227853.77749 -11825341.27949  19749774.2364   19749780.8734
  21088917.618   -20770470.21349 -16169476.70949  21088919.0514   21088924.8574
  20415179.307    -3955468.75749  -3081395.11949  20415182.6134   20415189.2684
  23052566.535    15605319.07749  12151347.30549  23052573.1964   23052582.4324
  23284576.412    -8001033.452 9  -6232843.374 9  23284579.889    23284586.391
 96  2 19 20  8 59.9970000  0  9 27  2 16 12 19 31 18 29 28
  20692287.940   -20721174.00049 -16127899.67149  20692290.7584   20692296.7894
  21943323.363    -6204561.66949  -4812892.43549  21943324.2644   21943331.4104
  23032886.929   -10353209.06949  -8050739.91449  23032892.1314   23032897.6034
  23134786.502    -2294334.417 9  -1764661.281 9  23134789.825    23134797.333
  19744433.445   -15255896.69049 -11847192.88549  19744437.6254   19744444.2354
  21086128.985   -20785105.26949 -16180880.63349  21086133.8214   21086140.1224
  20423948.788    -3909385.83549  -3045486.36749  20423951.5154   20423958.5044
  23067576.335    15684207.95849  12212819.10249  23067582.9394   23067592.5254
  23292124.204    -7961366.309 9  -6201933.935 9  23292128.662    23292135.213
 96  2 19 20  9 29.9970000  0  9 27  2 16 12 19 31 18 29 28
  20676983.584   -20801592.42849 -16190563.35949  20676987.4704   20676993.5864
  21925771.687    -6296783.53049  -4884753.57049  21925774.5244   21925783.0744
  23025255.024   -10393316.87349  -8081992.72849  23025259.2444   23025266.6754
  23117038.716    -2387587.150 9  -1837325.712 9  23117044.457    23117054.906
  19739138.008   -15283726.76849 -11868878.65649  19739142.0934   19739148.4454
  21083452.342   -20799181.23249 -16191848.90849  21083454.7814   21083461.3004
  20432792.589    -3862908.85149  -3009270.54949  20432795.5274   20432803.4624
  23082621.172    15763242.01649  12274404.03949  23082622.8954   23082632.4444
  23299752.749    -7921282.794 9  -6170700.065 9  23299755.796    23299762.772
 96  2 19 20  9 59.9970000  0  9 27  2 16 12 19 31 18 29 28
  20661697.217   -20881922.79949 -16253158.43849  20661701.1534   20661707.8114
  21908267.196    -6388783.53549  -4956441.83849  21908267.4384   21908274.8714
  23017716.892   -10432922.43249  -8112854.20749  23017721.4014   23017730.5884
  23099320.922    -2480712.725 9  -1909891.083 9  23099323.953    23099331.412
  19733879.479   -15311358.18449 -11890409.62649  19733884.0824   19733890.0704
  21080879.016   -20812710.85149 -16202391.45749  21080880.6444   21080886.5554
  20441708.367    -3816057.21149  -2972762.80249  20441711.4414   20441718.5244
  23097691.318    15842420.26149  12336101.30949  23097692.9524   23097698.1584
  23307456.573    -7880795.568 9  -6139151.607 9  23307460.967    23307467.837
 96  2 19 20 10 29.9970000  0  9 27  2 16 12 19 31 18 29 28
  20646427.808   -20962162.43649 -16315682.82149  20646431.8854   20646438.5274
  21890807.271    -6480521.55049  -5027925.97449  21890810.5914   21890817.7224
  23010287.971   -10471986.23649  -8143293.52549  23010288.0074   23010296.4274
  23081631.044    -2573679.909 9  -1982333.025 9  23081632.440    23081641.040
  19728666.979   -15338759.86349 -11911761.57849  19728669.6054   19728675.7074
  21078416.494   -20825643.90949 -16212469.14949  21078419.2154   21078425.3894
  20450701.693    -3768798.63249  -2935937.95049  20450704.4504   20450711.6614
  23112788.501    15921773.13649  12397934.68049  23112791.4614   23112802.0134
  23315243.909    -7839875.362 9  -6107265.751 9  23315247.261    23315254.599
 96  2 19 20 10 59.9970000  0  9 27  2 16 12 19 31 18 29 28
  20631162.628   -21042386.98149 -16378195.44749  20631165.8044   20631172.0764
  21873387.609    -6572078.45049  -5099268.96949  21873388.1344   21873395.1474
  23002935.787   -10510594.97349  -8173378.25349  23002941.8474   23002948.6314
  23063951.740    -2666569.114 9  -2054714.181 9  23063955.028    23063965.696
  19723478.578   -15366022.55149 -11933005.22949  19723481.2254   19723487.6624
  21076056.377   -20838039.36049 -16222127.91949  21076059.7504   21076066.9074
  20459759.639    -3721203.68749  -2898850.99849  20459761.6424   20459768.7914
  23127904.051    16001208.66949  12459832.41049  23127907.8324   23127916.2244
  23323097.724    -7798604.203 9  -6075106.469 9  23323101.309    23323107.809
 96  2 19 20 11 29.9970000  0  9 27  2 16 12 19 31 18 29 28
  20615905.750   -21122553.47149 -16440662.84049  20615910.4364   20615916.7004
  21856001.029    -6663427.20749  -5170449.77549  21856004.3394   21856012.5064
  22995682.935   -10548736.68149  -8203099.06049  22995683.2174   22995691.6104
  23046292.080    -2759360.443 9  -2127019.064 9  23046297.690    23046307.864
  19718319.094   -15393129.28949 -11954127.35849  19718322.8934   19718329.5864
  21073805.087   -20849868.16949 -16231345.15849  21073809.3354   21073815.8944
  20468885.311    -3673239.13949  -2861476.04449  20468889.3004   20468895.9174
  23143033.571    16080734.14149  12521800.25349  23143040.6734   23143049.6724
  23331022.133    -7756964.047 9  -6042659.593 9  23331025.140    23331031.382
 96  2 19 20 11 59.9970000  0  9 27  2 16 12 19 31 18 29 28
  20600685.623   -21202553.70049 -16503000.67449  20600687.4774   20600693.6944
  21838669.548    -6754478.75649  -5241398.99249  21838677.2334   21838685.6604
  22988532.002   -10586316.91249  -8232382.39049  22988534.0844   22988539.5034
  23028674.209    -2851958.498 9  -2199173.419 9  23028677.524    23028685.208
  19713209.732   -15419980.79049 -11975050.61149  19713213.6064   19713220.0004
  21071678.862   -20861042.41149 -16240052.33949  21071683.2674   21071689.5814
  20478104.017    -3624806.15049  -2823736.07349  20478105.8504   20478112.0194
  23158204.563    16160441.27449  12583909.64349  23158207.7504   23158217.1584
  23339033.599    -7714861.206 9  -6009852.211 9  23339036.137    23339043.706
 96  2 19 20 12 29.9970000  0  9 27  2 16 12 19 31 18 29 28
  20585484.840   -21282422.20149 -16565235.86849  20585488.6974   20585494.9484
  21821383.431    -6845329.59449  -5312191.81249  21821388.4294   21821397.7044
  22981465.210   -10623422.15849  -8261295.56249  22981470.3954   22981479.1534
  23011076.035    -2944430.425 9  -2271229.419 9  23011079.092    23011088.294
  19708136.545   -15446640.72649 -11995824.58349  19708140.5234   19708146.8274
  21069664.512   -20871634.60849 -16248305.97749  21069667.4614   21069673.4824
  20487397.952    -3575964.13549  -2785677.38349  20487399.6794   20487406.6144
  23173395.787    16240270.97449  12646114.53049  23173399.3744   23173408.9024
  23347117.958    -7672364.734 9  -5976738.134 9  23347123.289    23347130.032
 96  2 19 20 12 59.9970000  0  9 27  2 16 12 19 31 18 29 28
  20570320.716   -21362120.57549 -16627338.49349  20570322.7184   20570328.3604
  21804136.337    -6935975.95549  -5382825.30249  21804139.1874   21804148.3324
  22974500.450   -10660047.69749  -8289834.94049  22974501.4934   22974508.7324
  22993508.330    -3036756.336 9  -2343171.677 9  22993510.150    22993520.801
  19703103.500   -15473090.33049 -12016434.66349  19703107.2444   19703113.8424
  21067761.341   -20881634.73149 -16256098.26849  21067764.2124   21067771.0564
  20496771.606    -3526698.99249  -2747288.98249  20496775.0874   20496781.6194
  23188617.442    16320253.42249  12708438.46949  23188620.9874   23188627.6304
  23355288.169    -7629456.839 9  -5943303.428 9  23355288.371    23355295.482
 96  2 19 20 13 29.9970000  0  9 27  2 16 12 19 31 18 29 28
  20555180.296   -21441679.82249 -16689332.70549  20555183.1544   20555188.7684
  21786919.657    -7026433.58749  -5453311.71049  21786925.7934   21786934.7314
  22967621.558   -10696203.29949  -8318008.15649  22967621.5024   22967628.1024
  22975959.970    -3128957.221 9  -2415016.427 9  22975964.781    22975975.534
  19698108.170   -15499338.70049 -12036887.93649  19698112.1904   19698118.9284
  21065964.408   -20891075.81249 -16263454.95049  21065967.7114   21065974.6094
  20506220.011    -3477044.48549  -2708597.18049  20506223.9944   20506230.3464
  23203862.967    16400382.33349  12770876.46849  23203867.2814   23203875.0544
  23363522.240    -7586160.028 9  -5909565.661 9  23363527.410    23363534.566
 96  2 19 20 13 59.9970000  0  9 27  2 16 12 19 31 18 29 28
  20540081.655   -21521024.21149 -16751159.49149  20540084.2454   20540090.1864
  21769764.282    -7116609.32649  -5523578.46049  21769766.1824   21769775.0014
  22960843.752   -10731791.91749  -8345739.53649  22960849.9124   22960859.0834
  22958455.070    -3220946.326 9  -2486696.207 9  22958460.704    22958469.567
  19693168.207   -15525303.12149 -12057119.95049  19693171.2604   19693178.0144
  21064294.571   -20899864.64649 -16270303.37849  21064295.3514   21064302.0414
  20515755.705    -3426938.34149  -2669553.45049  20515758.3254   20515764.8684
  23219158.937    16480748.99449  12833499.80149  23219161.1584   23219169.1424
  23371853.528    -7542389.336 9  -5875458.685 9  23371857.634    23371864.235
 96  2 19 20 14 29.9970000  0  9 27  2 16 12 19 31 18 29 28
  20525029.781   -21600111.25549 -16812785.75549  20525034.3524   20525040.4604
  21752669.749    -7206432.58449  -5593570.57349  21752673.7274   21752681.3074
  22954189.904   -10766765.11849  -8372991.40449  22954194.2604   22954202.1414
  22940997.842    -3312677.893 9  -2558175.277 9  22941004.446    22941013.063
  19688288.000   -15550946.41049 -12077101.73449  19688291.8174   19688298.0024
  21062754.805   -20907946.84449 -16276601.19349  21062757.1834   21062763.6654
  20525380.817    -3376354.36849  -2630137.38849  20525384.4694   20525390.6574
  23234506.077    16561391.98749  12896338.39449  23234506.7164   23234513.7754
  23380280.888    -7498101.070 9  -5840948.385 9  23380284.933    23380292.427
 96  2 19 20 14 59.9970000  0  9 27  2 16 12 19 31 18 29 28
  20510013.215   -21679028.70449 -16874279.86049  20510016.9334   20510022.7084
  21735639.790    -7295943.89449  -5663319.60149  21735639.8614   21735647.6834
  22947644.819   -10801170.81549  -8399801.04749  22947647.5114   22947655.5594
  22923577.721    -3404226.535 9  -2629511.803 9  22923583.441    22923593.138
  19683455.028   -15576343.47249 -12096891.64949  19683458.8554   19683464.9624
  21061335.742   -20915391.86549 -16282402.51449  21061340.5484   21061346.5284
  20535081.671    -3325383.17049  -2590419.59549  20535083.9604   20535090.2454
  23249881.612    16642209.91749  12959313.34949  23249885.5684   23249895.7444
  23388793.269    -7453371.504 9  -5806094.219 9  23388797.060    23388803.481
 96  2 19 20 15 29.9970000  0  9 27  2 16 12 19 31 18 29 28
  20495024.182   -21757796.83649 -16935657.60949  20495027.9364   20495033.8674
  21718664.530    -7385145.20849  -5732827.06949  21718665.7084   21718673.3624
  22941203.112   -10835019.79849  -8426176.89049  22941205.9144   22941212.1624
  22906192.329    -3495608.882 9  -2700718.808 9  22906194.297    22906203.228
  19678665.203   -15601514.01949 -12116505.06049  19678668.9984   19678675.5294
  21060039.144   -20922210.10449 -16287715.42949  21060043.2614   21060049.7484
  20544851.208    -3274039.61249  -2550411.64949  20544854.0324   20544860.9254
  23265288.635    16723169.64149  13022398.78049  23265292.3804   23265301.3564
  23397390.427    -7408219.129 9  -5770910.596 9  23397389.443    23397395.674
 96  2 19 20 15 59.9970000  0  9 27  2 16 12 19 31 18 29 28
  20480082.891   -21836309.82349 -16996836.54949  20480087.2174   20480093.5614
  21701765.432    -7473946.46049  -5802022.81049  21701767.4424   21701775.0864
  22934885.871   -10868227.57849  -8452053.11449  22934886.8884   22934893.4054
  22888848.334    -3586732.431 9  -2771724.096 9  22888852.728    22888863.442
  19673933.759   -15626374.91749 -12135877.19049  19673937.9304   19673944.6114
  21058879.555   -20928305.20349 -16292464.86549  21058883.3724   21058889.7144
  20554710.103    -3222225.74649  -2510037.23149  20554714.1214   20554720.8864
  23280741.041    16804340.20149  13085648.46549  23280738.6404   23280747.1244
  23406072.582    -7362553.270 9  -5735326.838 9  23406078.718    23406085.636
 96  2 19 20 16 29.9970000  0  9 27  2 16 12 19 31 18 29 28
  20465158.879   -21914740.28149 -17057951.18149  20465162.2854   20465168.4524
  21684909.976    -7562527.20749  -5871046.73049  21684911.0664   21684918.7824
  22928650.572   -10900983.25649  -8477577.01749  22928654.2004   22928662.1104
  22871527.787    -3677773.690 9  -2842665.263 9  22871527.913    22871538.289
  19669232.714   -15651086.01549 -12155132.58949  19669235.7614   19669242.5774
  21057821.506   -20933862.45649 -16296795.18949  21057825.3704   21057832.3424
  20564627.888    -3170112.16049  -2469429.26349  20564631.0064   20564637.7984
  23296191.919    16885541.69949  13148922.28749  23296191.2084   23296198.7384
  23414826.916    -7316552.427 9  -5699482.060 9  23414832.271    23414839.391
 96  2 19 20 16 59.9970000  0  9 27  2 16 12 19 31 18 29 28
  20450242.296   -21993126.31449 -17119031.18949  20450245.9634   20450252.7204
  21668080.084    -7650950.08249  -5939947.63549  21668084.8654   21668092.1734
  22922496.999   -10933320.86549  -8502775.18049  22922500.0764   22922506.8654
  22854210.865    -3768770.530 9  -2913571.802 9  22854212.372    22854221.952
  19664556.424   -15675664.66649 -12174284.78349  19664558.7714   19664565.4774
  21056858.670   -20938920.80849 -16300736.76649  21056863.1864   21056869.5504
  20574599.503    -3117713.14749  -2428598.88049  20574602.0194   20574609.1724
  23311640.373    16966743.80249  13212196.60249  23311643.9574   23311651.6354
  23423637.138    -7270256.508 9  -5663407.356 9  23423642.147    23423649.438
 96  2 19 20 17 29.9970000  0  9 27  2 16 12 19 31 18 29 28
  20435354.187   -22071361.88549 -17179993.95349  20435358.1504   20435364.4174
  21651301.602    -7739129.60749  -6008658.91149  21651304.5664   21651311.8054
  22916444.608   -10965132.36749  -8527563.38449  22916445.9684   22916453.8964
  22836921.262    -3859612.527 9  -2984357.720 9  22836926.021    22836935.335
  19659924.299   -15700001.19049 -12193248.30749  19659927.5054   19659934.2204
  21056011.727   -20943381.87849 -16304212.92249  21056014.5514   21056020.3764
  20584648.984    -3064901.25749  -2387446.77949  20584652.1394   20584659.1534
  23327116.929    17048072.17449  13275569.26149  23327119.3314   23327128.8684
  23432525.650    -7223556.678 9  -5627017.910 9  23432528.965    23432535.650
 96  2 19 20 17 59.9970000  0  9 27  2 16 12 19 31 18 29 28
  20420502.892   -22149401.47249 -17240803.99149  20420507.8334   20420514.2574
  21634578.172    -7827022.93949  -6077147.18049  21634578.6464   21634586.6134
  22910497.834   -10996368.93649  -8551903.58749  22910501.9374   22910508.6944
  22819667.267    -3950258.431 9  -3054990.882 9  22819677.027    22819686.791
  19655348.995   -15724042.87349 -12211982.08049  19655352.3604   19655359.4034
  21055284.907   -20947206.82149 -16307193.38949  21055286.5924   21055292.5914
  20594785.035    -3011637.78349  -2345942.78949  20594787.9644   20594794.9874
  23342625.895    17129580.00249  13339081.78549  23342629.2604   23342638.1444
  23441499.762    -7176413.695 9  -5590283.158 9  23441500.371    23441506.588
 96  2 19 20 18 29.9970000  0  9 27  2 16 12 19 31 18 29 28
  20405684.856   -22227281.98749 -17301490.07849  20405687.7864   20405694.1664
  21617897.223    -7914660.64449  -6145436.27549  21617902.1714   21617909.7394
  22904658.851   -11027058.54749  -8575817.61749  22904662.4514   22904670.0954
  22802454.873    -4040735.346 9  -3125492.292 9  22802459.081    22802467.675
  19650826.488   -15747805.79849 -12230498.64449  19650830.3644   19650837.2814
  21054671.270   -20950415.46949 -16309693.63849  21054675.1544   21054682.3104
  20605002.030    -2957942.46149  -2304102.29749  20605005.5584   20605012.2394
  23358172.334    17211267.63749  13402734.44549  23358174.6274   23358183.3314
  23450551.808    -7128856.631 9  -5553225.736 9  23450550.419    23450556.435
 96  2 19 20 18 59.9970000  0  9 27  2 16 12 19 31 18 29 28
  20390879.734   -22305080.42749 -17362112.21449  20390883.0814   20390889.1154
  21601254.596    -8002122.12249  -6213588.03749  21601258.3594   21601266.5124
  22898908.355   -11057281.99949  -8599368.36549  22898912.1444   22898917.9524
  22785256.401    -4131117.982 9  -3195920.244 9  22785258.859    22785268.928
  19646343.915   -15771367.80249 -12248858.64449  19646346.7444   19646353.1954
  21054164.887   -20953075.25649 -16311766.19249  21054168.8484   21054176.0794
  20615292.513    -2903870.88549  -2261968.61049  20615295.2664   20615301.7494
  23373741.097    17293063.85449  13466471.67249  23373740.1294   23373751.2454
  23459656.878    -7080961.817 9  -5515905.179 9  23459663.900    23459671.262
 96  2 19 20 19 29.9970000  0  9 27  2 16 12 19 31 18 29 28
  20376099.371   -22382755.13749 -17422637.93449  20376102.1724   20376108.4214
  21584653.348    -8089367.70149  -6281571.57149  21584655.9574   21584663.9534
  22893246.112   -11087030.75849  -8622549.22949  22893249.2864   22893258.0524
  22768079.674    -4221375.487 9  -3266250.727 9  22768084.385    22768091.289
  19641901.190   -15794709.95049 -12267047.32449  19641905.1094   19641911.2084
  21053769.217   -20955163.93349 -16313393.73249  21053772.1434   21053778.8474
  20625655.706    -2849412.44649  -2219533.47549  20625658.4074   20625664.7654
  23389325.598    17374989.31649  13530309.63649  23389329.7364   23389338.0774
  23468846.973    -7032700.589 9  -5478299.088 9  23468848.671    23468855.119
 96  2 19 20 19 59.9970000  0  9 27  2 16 12 19 31 18 29 28
  20361351.772   -22460255.14349 -17483027.53049  20361354.1384   20361360.5604
  21568098.002    -8176366.67749  -6349362.96349  21568101.0874   21568108.8024
  22887676.896   -11116300.63449  -8645356.94949  22887680.0564   22887687.9414
  22750932.397    -4311476.663 9  -3336459.368 9  22750939.575    22750949.001
  19637510.203   -15817786.71849 -12285029.21749  19637513.9004   19637519.9074
  21053489.949   -20956636.42249 -16314541.13249  21053492.3994   21053498.2204
  20636095.663    -2794552.57649  -2176785.53849  20636098.1764   20636103.9954
  23404948.495    17457071.70249  13594269.85649  23404950.1544   23404957.5104
  23478103.735    -6984043.869 9  -5440384.779 9  23478107.510    23478113.842
 96  2 19 20 20 29.9970000  0  9 27  2 16 12 19 31 18 29 28
  20346630.975   -22537602.70949 -17543298.34549  20346635.7274   20346641.5964
  21551586.727    -8263131.81749  -6416972.13949  21551589.9244   21551597.7204
  22882194.407   -11145106.20049  -8667802.85549  22882199.2394   22882206.0084
  22733815.458    -4401428.224 9  -3406551.494 9  22733821.377    22733832.078
  19633168.407   -15840601.10949 -12302806.65849  19633172.4744   19633178.8164
  21053324.481   -20957502.46649 -16315215.97549  21053327.5594   21053333.6674
  20646608.650    -2739301.15449  -2133732.50449  20646611.8374   20646618.0724
  23420593.237    17539294.09949  13658339.19149  23420598.0814   23420604.1804
  23487436.241    -6934999.904 9  -5402168.709 9  23487440.136    23487446.831
 96  2 19 20 20 59.9970000  0  9 27  2 16 12 19 31 18 29 28
  20331936.852   -22614826.24749 -17603472.51149  20331940.4874   20331946.4924
  21535113.277    -8349696.09049  -6484424.80249  21535117.9344   21535125.0024
  22876792.724   -11173478.02749  -8689910.78749  22876797.4774   22876806.0774
  22716715.504    -4491269.817 9  -3476557.904 9  22716723.949    22716734.502
  19628866.675   -15863210.08449 -12320424.03049  19628870.1024   19628876.8004
  21053262.962   -20957814.04849 -16315458.76249  21053268.0234   21053274.4814
  20657184.694    -2683715.28549  -2090418.85349  20657189.5494   20657195.6724
  23436249.810    17621589.71449  13722465.58349  23436255.9384   23436266.7104
  23496837.039    -6885610.390 9  -5363683.404 9  23496838.925    23496845.473
 96  2 19 20 21 29.9970000  0  9 27  2 16 12 19 31 18 29 28
  20317254.309   -22691983.56249 -17663595.07649  20317257.9434   20317263.8844
  21518667.184    -8436108.49249  -6551759.11849  21518673.9164   21518681.1424
  22871479.301   -11201438.88249  -8711698.47649  22871477.6194   22871486.8244
  22699632.501    -4581060.499 9  -3546524.641 9  22699639.495    22699649.711
  19624590.192   -15885685.43149 -12337937.28149  19624593.2104   19624599.6874
  21053298.699   -20957638.38949 -16315321.88549  21053301.4764   21053307.6614
  20667811.495    -2627883.37649  -2046913.47849  20667813.5314   20667820.6224
  23451920.405    17703892.38949  13786597.46249  23451919.1114   23451927.6694
  23506285.549    -6835936.479 9  -5324976.476 9  23506291.841    23506297.909
 96  2 19 20 21 59.9970000  0  9 27  2 16 12 19 31 18 29 28
  20302600.904   -22768980.79149 -17723592.89849  20302605.8644   20302612.0894
  21502278.122    -8522256.86849  -6618887.69549  21502279.8594   21502288.1904
  22866262.614   -11228836.68249  -8733047.44849  22866266.1664   22866272.4644
  22682576.668    -4670691.200 9  -3616366.776 9  22682580.938    22682592.667
  19620357.206   -15907922.85749 -12355265.13949  19620361.3244   19620368.0794
  21053447.493   -20956855.28649 -16314711.67449  21053450.1854   21053457.0244
  20678504.189    -2571691.81949  -2003127.86349  20678506.7004   20678513.6504
  23467599.796    17786315.17949  13850822.95349  23467602.6994   23467612.8664
  23515814.357    -6785870.707 9  -5285964.214 9  23515818.813    23515824.854
 96  2 19 20 22 29.9970000  0  9 27  2 16 12 19 31 18 29 28
  20287977.629   -22845831.52349 -17783476.56249  20287981.5394   20287987.5894
  21485933.233    -8608139.04649  -6685808.85449  21485937.3874   21485945.1674
  22861155.252   -11255651.88649  -8753942.43149  22861160.8034   22861170.9544
  22665552.733    -4760175.247 9  -3686094.577 9  22665553.905    22665563.906
  19616163.985   -15929958.27149 -12372435.58749  19616168.1794   19616174.7174
  21053708.627   -20955481.03649 -16313640.82549  21053711.6374   21053717.7504
  20689262.907    -2515141.75149  -1959062.88449  20689267.5564   20689274.6494
  23483298.581    17868836.06649  13915124.84649  23483305.6634   23483315.5704
  23525415.399    -6735428.664 9  -5246658.795 9  23525417.766    23525423.849
 96  2 19 20 22 59.9970000  0  9 27  2 16 12 19 31 18 29 28
  20273371.160   -22922591.89049 -17843289.81549  20273374.5234   20273380.8434
  21469627.427    -8693829.36549  -6752580.50149  21469631.1044   21469638.7054
  22856157.514   -11281951.97449  -8774436.02749  22856158.4974   22856164.7534
  22648536.508    -4849587.811 9  -3755766.680 9  22648539.104    22648548.486
  19611993.850   -15951873.72449 -12389512.55249  19611997.7864   19612004.5484
  21054066.997   -20953599.31149 -16312174.53149  21054069.9654   21054076.2094
  20700080.679    -2458308.18949  -1914777.00249  20700083.0734   20700089.7014
  23499012.244    17951381.70849  13979446.06449  23499015.5274   23499023.6284
  23535071.959    -6684687.584 9  -5207120.355 9  23535073.480    23535079.480
 96  2 19 20 23 29.9970000  0  9 27  2 16 12 19 31 18 29 28
  20258792.114   -22999211.26049 -17902993.19949  20258794.0234   20258800.2934
  21453368.662    -8779270.54949  -6819158.01849  21453371.9894   21453379.6144
  22851253.599   -11307695.46449  -8794495.90849  22851259.2654   22851267.6704
  22631544.311    -4938871.056 9  -3825338.055 9  22631549.727    22631559.461
  19607862.887   -15973585.49749 -12406430.80149  19607866.3774   19607873.0044
  21054532.858   -20951148.11549 -16310264.49049  21054536.0834   21054543.1644
  20710962.220    -2401118.79049  -1870213.84449  20710965.5054   20710972.0074
  23514735.368    18034011.19949  14043832.59849  23514737.4904   23514747.2634
  23544794.698    -6633591.867 9  -5167305.537 9  23544795.808    23544803.185
 96  2 19 20 23 59.9970000  0  9 27  2 16 12 19 31 18 29 28
  20244253.245   -23075603.02949 -17962519.24949  20244257.2254   20244263.7014
  21437169.163    -8864395.11249  -6885488.82649  21437173.4004   21437181.3384
  22846464.806   -11332864.44349  -8814108.11549  22846468.4854   22846477.5434
  22614594.271    -5027957.068 9  -3894755.721 9  22614597.586    22614606.375
  19603786.458   -15995006.40549 -12423122.42149  19603789.7354   19603796.4504
  21055122.401   -20948054.40149 -16307853.79549  21055124.8454   21055131.7944
  20721927.491    -2343491.66949  -1825309.61649  20721931.5474   20721937.9054
  23530489.539    18116797.34049  14108341.22049  23530493.6954   23530501.2774
  23554590.991    -6582075.012 9  -5127162.565 9  23554599.481    23554605.938
 96  2 19 20 24 29.9970000  0  9 27  2 16 12 19 31 18 29 28
  20229752.180   -23151812.25549 -18021903.05349  20229755.3404   20229761.5214
  21421025.482    -8949250.30749  -6951609.72549  21421025.7834   21421033.8164
  22841768.717   -11357557.36349  -8833349.36249  22841770.6344   22841777.8624
  22597668.038    -5116900.844 9  -3964062.546 9  22597670.659    22597681.791
  19599757.058   -16016179.52949 -12439620.96349  19599760.8534   19599767.3484
  21055820.891   -20944389.41649 -16304997.94749  21055822.9014   21055829.1144
  20732967.917    -2285482.42449  -1780107.61649  20732970.6254   20732977.5214
  23546261.224    18199691.85049  14172934.24549  23546268.1764   23546275.5864
  23564470.974    -6530193.936 9  -5086735.799 9  23564472.455    23564478.767
 96  2 19 20 24 59.9970000  0  9 27  2 16 12 19 31 18 29 28
  20215284.674   -23227834.22349 -18081140.93849  20215288.5394   20215295.0354
  21404924.643    -9033827.97649  -7017514.36849  21404931.2674   21404939.0654
  22837157.531   -11381785.50249  -8852228.44149  22837160.4884   22837168.4804
  22580771.367    -5205684.008 9  -4033244.245 9  22580777.005    22580787.238
  19595781.579   -16037075.52449 -12455903.55049  19595784.1854   19595791.1074
  21056627.507   -20940134.32549 -16301682.28849  21056632.3754   21056639.0644
  20744077.463    -2227092.12049  -1734608.68849  20744081.6544   20744088.4444
  23562064.817    18282726.05749  14237636.19749  23562069.1364   23562070.4844
  23574412.226    -6477932.721 9  -5046012.821 9  23574417.382    23574423.694
 96  2 19 20 25 29.9970000  0  9 27  2 16 12 19 31 18 29 28
  20200857.038   -23303656.48649 -18140223.21349  20200860.0904   20200866.7474
  21388886.418    -9118129.13349  -7083203.55049  21388888.7384   21388896.3324
  22832633.121   -11405556.74349  -8870751.50849  22832636.1944   22832645.2184
  22563908.398    -5294304.516 9  -4102299.158 9  22563912.774    22563922.986
  19591857.382   -16057693.87149 -12471969.79749  19591860.9234   19591867.5654
  21057556.193   -20935268.61049 -16297890.82049  21057557.7504   21057565.1184
  20755260.286    -2168332.90249  -1688822.29649  20755263.8104   20755269.8744
  23577891.361    18365903.66049  14302449.82449  23577895.6934   23577902.1084
  23584429.466    -6425290.974 9  -5004993.332 9  23584435.045    23584440.884
 96  2 19 20 25 59.9970000  0  9 27  2 16 12 19 31 18 29 28
  20186471.131   -23379254.26249 -18199130.57649  20186474.2664   20186480.6974
  21372903.383    -9202124.34049  -7148654.34349  21372905.5034   21372913.2664
  22828201.391   -11428824.76449  -8888882.46249  22828208.5474   22828215.5644
  22547082.620    -5382730.635 9  -4171202.660 9  22547086.232    22547095.011
  19587988.683   -16078023.22649 -12487810.85649  19587992.2684   19587998.9444
  21058602.065   -20929761.89749 -16293599.87449  21058606.4794   21058612.5084
  20766514.941    -2109189.37949  -1642736.44449  20766518.2864   20766524.5434
  23593754.994    18449262.99849  14367405.08249  23593756.8294   23593766.3854
  23594525.867    -6372239.335 9  -4963654.422 9  23594530.648    23594536.971
 96  2 19 20 26 29.9970000  0  9 27  2 16 12 19 31 18 29 28
  20172111.997   -23454714.39849 -18257930.68549  20172114.9044   20172121.2284
  21356964.144    -9285878.27249  -7213917.11149  21356967.4794   21356975.8324
  22823866.783   -11451616.65149  -8906642.36449  22823871.6404   22823879.7634
  22530280.709    -5471022.552 9  -4240001.593 9  22530283.935    22530293.515
  19584162.328   -16098128.86949 -12503477.59249  19584166.7294   19584173.1744
  21059761.589   -20923675.58349 -16288857.29449  21059764.5924   21059770.3944
  20777829.769    -2049727.92749  -1596402.85849  20777833.4884   20777840.1834
  23609637.528    18532723.74949  14432439.32549  23609642.3324   23609651.1194
  23604691.780    -6318839.586 9  -4922044.270 9  23604691.269    23604699.126
 96  2 19 20 26 59.9970000  0  9 27  2 16 12 19 31 18 29 28
  20157790.844   -23529973.19449 -18316573.90849  20157793.6524   20157799.6044
  21341083.650    -9369337.59949  -7278950.32149  21341086.0594   21341093.5914
  22819637.778   -11473841.37949  -8923960.35149  22819642.5544   22819651.0934
  22513514.138    -5559122.658 9  -4308651.002 9  22513519.026    22513528.737
  19580391.708   -16117947.98949 -12518921.07749  19580395.2704   19580401.5874
  21061044.785   -20916941.60149 -16283610.03549  21061046.4334   21061051.9824
  20789216.325    -1989894.70549  -1549779.58649  20789219.5254   20789225.6874
  23625543.179    18616316.32349  14497576.29149  23625548.5094   23625556.9154
  23614926.946    -6265036.380 9  -4880119.739 9  23614930.859    23614937.558
 96  2 19 20 27 29.9970000  0  9 27  2 16 12 19 31 18 29 28
  20143520.732   -23604958.50049 -18375004.01849  20143524.4294   20143530.4174
  21325272.923    -9452423.69049  -7343692.70149  21325275.1154   21325282.5514
  22815535.588   -11495416.82049  -8940772.41949  22815537.2594   22815545.2764
  22496803.056    -5646964.103 9  -4377098.869 9  22496805.124    22496813.440
  19576688.943   -16137407.11849 -12534084.03649  19576692.2564   19576698.6324
  21062457.478   -20909505.03849 -16277815.31149  21062460.8664   21062467.2514
  20800689.242    -1929598.59649  -1502795.61249  20800693.2764   20800700.0874
  23641487.370    18700089.51849  14562854.01049  23641489.2504   23641497.6554
  23625255.158    -6210765.052 9  -4837830.415 9  23625257.939    23625264.560
 96  2 19 20 27 59.9970000  0  9 27  2 16 12 19 31 18 29 28
  20129299.403   -23679695.45249 -18433240.60449  20129302.3564   20129308.7234
  21309532.942    -9535136.45049  -7408144.17249  21309535.3574   21309543.0584
  22811550.140   -11516349.62949  -8957083.71449  22811554.6314   22811560.8754
  22480133.250    -5734556.704 9  -4445352.791 9  22480134.473    22480145.084
  19573052.565   -16156510.79449 -12548970.02449  19573056.6194   19573063.1754
  21064001.028   -20901389.57849 -16271491.58949  21064005.3044   21064011.6324
  20812255.023    -1868835.37249  -1455447.66249  20812256.4344   20812262.8434
  23657463.766    18784030.46949  14628262.42049  23657464.1224   23657470.1574
  23635668.352    -6156037.152 9  -4795185.344 9  23635672.256    23635678.926
 96  2 19 20 28 29.9970000  0  9 27  2 16 12 19 31 18 29 28
  20115119.500   -23754208.60949 -18491302.79949  20115123.1074   20115129.4854
  21293854.185    -9617531.13949  -7472347.79649  21293855.8244   21293863.3974
  22807680.662   -11536684.80849  -8972929.31549  22807683.4094   22807691.4504
  22463510.528    -5821945.921 9  -4513448.251 9  22463506.366    22463516.334
  19569479.527   -16175289.23849 -12563602.58049  19569483.1664   19569489.7204
  21065666.965   -20892639.15449 -16264673.09549  21065670.2144   21065677.0984
  20823898.286    -1807645.46349  -1407767.23449  20823900.7344   20823906.7564
  23673454.975    18868093.48549  14693765.97349  23673461.5854   23673468.2124
  23646164.488    -6100900.144 9  -4752221.505 9  23646164.153    23646171.678
 96  2 19 20 28 59.9970000  0  9 27  2 16 12 19 31 18 29 28
  20100994.901   -23828432.16949 -18549139.33449  20100998.6634   20101005.0614
  21278244.151    -9699563.06149  -7536268.75249  21278245.9234   21278253.3604
  22803931.477   -11556389.03549  -8988283.26649  22803935.0164   22803940.2574
  22446920.857    -5909085.111 9  -4581348.881 9  22446923.837    22446932.632
  19565975.008   -16193703.84649 -12577951.63649  19565979.0934   19565985.6334
  21067462.219   -20883205.29749 -16257322.06749  21067465.5694   21067472.1644
  20835631.409    -1745981.19049  -1359717.17249  20835635.1304   20835641.2694
  23689488.967    18952345.89749  14759417.06049  23689493.7984   23689500.7444
  23656738.392    -6045309.599 9  -4708904.249 9  23656743.212    23656750.073
 96  2 19 20 29 29.9970000  0  9 27  2 16 12 19 31 18 29 28
  20086896.869   -23902521.54049 -18606871.30049  20086899.9924   20086906.5324
  21262673.874    -9781391.48549  -7600031.13449  21262674.8424   21262682.0204
  22800266.693   -11575632.53049  -9003278.23849  22800271.9064   22800279.9894
  22430359.946    -5996122.962 9  -4649170.540 9  22430360.600    22430369.765
  19562512.171   -16211909.54649 -12592137.90049  19562515.0714   19562521.2174
  21069359.800   -20873238.53649 -16249555.78249  21069362.8844   21069368.5274
  20847425.797    -1684000.76749  -1311420.75849  20847429.6514   20847435.5914
  23705536.429    19036665.02249  14825120.22749  23705539.4134   23705548.7194
  23667377.022    -5989416.344 9  -4665351.086 9  23667379.604    23667386.222
 96  2 19 20 29 59.9970000  0  9 27  2 16 12 19 31 18 29 28
  20072818.540   -23976509.22649 -18664524.02749  20072820.5194   20072826.6834
  21247130.948    -9863062.96049  -7663671.21949  21247132.7774   21247140.6984
  22796692.868   -11594447.70649  -9017939.41749  22796692.6034   22796698.8124
  22413804.829    -6083097.212 9  -4716942.595 9  22413809.812    22413820.718
  19559079.530   -16229942.17249 -12606189.30249  19559083.2574   19559089.6104
  21071355.155   -20862763.56249 -16241393.46949  21071355.9574   21071361.8814
  20859269.895    -1621761.13749  -1262922.37049  20859273.1944   20859279.5654
  23721590.965    19121027.84749  14890857.42349  23721591.6924   23721602.9714
  23678060.521    -5933259.961 9  -4621592.878 9  23678064.383    23678072.018
 96  2 19 20 30 29.9970000  0  8 27  2 16 12 19 31 18 28
  20058775.938   -24050291.24049 -18722016.49449  20058780.4694   20058786.1484
  21231637.822    -9944477.37849  -7727110.99749  21231639.9504   21231647.7744
  22793206.210   -11612734.78349  -9032189.11149  22793212.6764   22793218.8014
  22397284.180    -6169908.993 9  -4784588.081 9  22397288.914    22397299.610
  19555701.182   -16247697.40549 -12620024.54949  19555704.6304   19555711.2144
  21073461.740   -20851676.28449 -16232754.05749  21073465.4364   21073472.0324
  20871180.326    -1559172.28949  -1214151.86349  20871183.4414   20871190.1074
  23688816.175    -5876743.836 9  -4577554.373 9  23688819.519    23688826.915
 96  2 19 20 30 59.9970000  0  8 27  2 16 12 19 31 18 28
  20044770.606   -24123896.95549 -18779371.57649  20044773.6264   20044779.5854
  21216192.585   -10025625.55249  -7790343.32149  21216198.1944   21216205.2404
  22789822.935   -11630517.89649  -9046046.09149  22789827.4984   22789836.3574
  22380790.475    -6256570.570 9  -4852116.554 9  22380799.554    22380809.270
  19552370.005   -16265198.81849 -12633662.01349  19552373.6704   19552380.8044
  21075685.110   -20839993.73549 -16223650.77249  21075687.9864   21075694.8364
  20883151.955    -1496251.72149  -1165122.87949  20883156.7814   20883162.8934
  23699637.039    -5819882.295 9  -4533246.711 9  23699640.405    23699647.171
 96  2 19 20 31 29.9970000  0  8 27  2 16 12 19 31 18 28
  20030795.257   -24197328.14949 -18836590.67349  20030800.2524   20030806.3724
  21200807.285   -10106493.15049  -7853357.01249  21200809.6784   21200817.0714
  22786539.754   -11647792.44849  -9059506.79449  22786541.0724   22786549.2324
  22364333.950    -6343079.024 9  -4919525.687 9  22364337.021    22364347.079
  19549090.088   -16282433.26949 -12647091.45449  19549094.0074   19549101.2284
  21078020.992   -20827720.45149 -16214087.18149  21078023.8614   21078029.9084
  20895191.895    -1432992.89149  -1115830.30649  20895194.4114   20895200.8104
  23710525.285    -5762674.294 9  -4488669.099 9  23710527.226    23710533.366
 96  2 19 20 31 59.9970000  0  8 27  2 16 12 19 31 18 28
  20016864.559   -24270537.98449 -18893637.28249  20016868.7224   20016875.3764
  21185482.349   -10187028.42749  -7916111.74949  21185484.4104   21185491.7394
  22783353.991   -11664513.38349  -9072536.10349  22783358.8244   22783366.1814
  22347908.551    -6429399.390 9  -4986788.249 9  22347911.735    22347920.623
  19545867.029   -16299372.83149 -12660291.11449  19545870.8894   19545877.9884
  21080475.800   -20814819.49149 -16204034.49749  21080478.2814   21080484.6494
  20907300.573    -1369352.32549  -1066240.27949  20907304.5724   20907311.2354
  23721481.084    -5705086.969 9  -4443795.876 9  23721485.351    23721491.784
 96  2 19 20 32 29.9970000  0  8 27  2 16 12 19 31 18 28
  20002966.763   -24343575.42249 -18950549.55249  20002970.0414   20002976.8574
  21170208.355   -10267281.65049  -7978646.70749  21170212.8884   21170220.0454
  22780269.783   -11680742.80349  -9085182.41949  22780269.9584   22780278.8584
  22331509.628    -6515585.965 9  -5053946.590 9  22331511.215    22331519.946
  19542686.440   -16316086.64749 -12673314.85849  19542690.4554   19542697.4594
  21083040.456   -20801351.46649 -16193539.93149  21083041.7554   21083048.3134
  20919474.562    -1305383.87049  -1016394.75249  20919477.0954   20919484.4054
  23732502.249    -5647176.706 9  -4398671.010 9  23732504.815    23732512.356
 96  2 19 20 32 59.9970000  0  8 27  2 16 12 19 31 18 28
  19989106.517   -24416399.75949 -19007295.77149  19989111.7614   19989118.3584
  21154997.618   -10347217.36749  -8040934.24949  21155001.2504   21155009.0174
  22777276.535   -11696448.05949  -9097420.26549  22777281.1624   22777291.2814
  22315138.444    -6601600.524 9  -5120970.878 9  22315142.039    22315151.328
  19539554.989   -16332542.24449 -12686137.39849  19539558.8474   19539565.8394
  21085718.492   -20787277.30049 -16182573.06449  21085719.8454   21085726.9214
  20931716.729    -1241043.75049   -966259.62349  20931721.0004   20931728.3954
  23743592.483    -5588907.440 9  -4353266.401 9  23743593.470    23743600.528
 96  2 19 20 33 29.9970000  0  8 27  2 16 12 19 31 18 28
  19975304.553   -24488942.62449 -19063822.66649  19975307.3584   19975313.9604
  21139852.434   -10426811.97349  -8102955.98149  21139854.7704   21139862.5044
  22774401.289   -11711574.12649  -9109206.83249  22774403.4854   22774413.4314
  22298810.998    -6687399.621 9  -5187827.283 9  22298815.027    22298824.017
  19536482.973   -16348688.03849 -12698718.53249  19536486.6554   19536493.4134
  21088517.199   -20772551.28049 -16171098.25049  21088522.6434   21088528.9794
  20944038.877    -1176290.00249   -915802.18649  20944043.1904   20944050.4544
  23754756.242    -5530237.792 9  -4307549.809 9  23754758.046    23754764.530
 96  2 19 20 33 59.9960000  0  8 27  2 16 12 19 31 18 28
  19961548.424   -24561225.11349 -19120146.67549  19961552.6494   19961559.0174
  21124762.843   -10506107.82449  -8164744.92849  21124765.3644   21124772.5284
  22771626.950   -11726153.49349  -9120567.41649  22771630.2434   22771637.5364
  22282519.875    -6773010.401 9  -5254536.962 9  22282524.773    22282533.563
  19533464.198   -16364553.55249 -12711081.27049  19533467.5564   19533473.9274
  21091440.126   -20757203.55349 -16159138.97649  21091442.9884   21091448.9974
  20956432.210    -1111168.73049   -865058.37049  20956435.4024   20956442.7184
  23765988.192    -5471201.764 9  -4261547.758 9  23765991.944    23765999.248
 96  2 19 20 34 29.9960000  0  7 27  2 16 12 19 31 18
  19947836.863   -24633285.86849 -19176297.90749  19947840.0064   19947846.1744
  21109725.806   -10585139.21349  -8226327.79849  21109726.3154   21109734.0844
  22768953.169   -11740216.86249  -9131525.87549  22768953.7394   22768961.4534
  22266257.911    -6858459.857 9  -5321120.935 9  22266262.933    22266272.245
  19530495.188   -16380149.49449 -12723233.94649  19530499.9124   19530506.1774
  21094472.827   -20741264.09549 -16146718.62049  21094476.4574   21094482.1534
  20968891.270    -1045701.22449   -814044.75249  20968893.4664   20968901.0934
 96  2 19 20 34 59.9960000  0  7 27  2 16 12 19 31 18
  19934168.474   -24705113.73649 -19232267.66949  19934171.6294   19934177.9234
  21094737.820   -10663883.88949  -8287687.25349  21094741.7584   21094748.8714
  22766371.632   -11753746.53749  -9142068.48249  22766378.1394   22766384.8654
  22250035.354    -6943730.774 9  -5387565.770 9  22250036.872    22250046.744
  19527585.134   -16395446.07549 -12735153.35749  19527588.9174   19527595.1054
  21097621.187   -20724727.27149 -16133832.77949  21097623.1534   21097629.1964
  20981416.361     -979878.56249   -762754.39749  20981419.0964   20981426.5324
 96  2 19 20 35 29.9960000  0  7 27  2 16 12 19 31 18
  19920539.410   -24776730.41249 -19288072.86749  19920543.3574   19920549.6724
  21079803.381   -10742365.47549  -8348841.71149  21079807.0824   21079814.4874
  22763899.302   -11766761.61149  -9152210.13049  22763902.3714   22763910.7664
  22233839.021    -7028845.832 9  -5453889.179 9  22233840.040    22233849.234
  19524725.893   -16410467.87449 -12746858.65749  19524730.0454   19524736.7344
  21100875.703   -20707620.13049 -16120502.54249  21100878.9764   21100884.3374
  20994000.901     -913739.91449   -711217.82149  20994004.7544   20994012.5394
 96  2 19 20 35 59.9960000  0  7 27  2 16 12 19 31 18
  19906939.542   -24848204.18149 -19343766.70549  19906942.4584   19906948.5984
  21064914.382   -10820606.66549  -8409808.83949  21064918.0244   21064925.8394
  22761509.501   -11779312.58449  -9161990.11449  22761515.2214   22761521.2794
  22217659.303    -7113849.525 9  -5520125.816 9  22217664.187    22217674.126
  19521911.632   -16425260.94849 -12758385.72949  19521914.9914   19521921.5524
  21104228.752   -20689988.37749 -16106763.51049  21104233.6104   21104239.6814
  21006640.801     -847332.15949   -659471.55449  21006641.8034   21006649.1224
 96  2 19 20 36 29.9960000  0  7 27  2 16 12 19 31 18
  19893377.290   -24919469.72749 -19399298.29149  19893381.2524   19893387.0324
  21050087.281   -10898527.14549  -8470526.05949  21050090.1154   21050098.0364
  22759222.648   -11791338.02149  -9171360.59949  22759225.0204   22759233.8114
  22201519.365    -7198676.431 9  -5586224.674 9  22201522.800    22201532.614
  19519152.664   -16439754.17949 -12769679.15049  19519157.0154   19519163.6324
  21107700.824   -20671761.22549 -16092560.53449  21107702.3624   21107707.7504
  21019340.204     -780581.25049   -607457.88749  21019343.9314   21019350.7674
 96  2 19 20 36 59.9960000  0  7 27  2 16 12 19 31 18
  19879849.678   -24990557.67149 -19454691.48949  19879853.6734   19879859.4014
  21035312.567   -10976174.48649  -8531030.44849  21035314.1064   21035322.1024
  22757024.578   -11802874.31149  -9180349.94549  22757029.1554   22757037.1874
  22185403.025    -7283366.113 9  -5652216.624 9  22185406.355    22185414.779
  19516444.889   -16453991.49549 -12780773.16049  19516447.6704   19516454.3634
  21111278.174   -20652962.81049 -16077912.43549  21111279.8314   21111285.5714
  21032102.837     -713527.24749   -555208.03749  21032104.1454   21032110.6534
 96  2 19 20 37 29.9960000  0  7 27  2 16 12 19 31 18
  19866368.084   -25061406.43249 -19509898.31249  19866371.6294   19866377.3404
  21020596.431   -11053507.74649  -8591290.10149  21020598.4224   21020605.8214
  22754935.358   -11813876.45449  -9188923.07249  22754936.1864   22754944.6364
  22169324.171    -7367867.827 9  -5718062.102 9  22169328.081    22169335.122
  19513794.913   -16467915.90749 -12791623.35349  19513798.3824   19513804.6874
  21114972.184   -20633534.00049 -16062773.11449  21114976.7214   21114983.3034
  21044931.254     -646108.25449   -502673.79749  21044933.7614   21044939.9884
 96  2 19 20 37 59.9960000  0  7 27  2 16 12 19 31 18
  19852952.224   -25131907.84149 -19564834.47249  19852955.4464   19852961.4474
  21005958.258   -11130432.11949  -8651231.14749  21005960.8414   21005967.8464
  22752963.127   -11824246.96949  -9197004.01149  22752962.5124   22752970.6204
  22153297.876    -7452086.312 9  -5783686.884 9  22153300.831    22153309.215
  19511226.156   -16481416.07549 -12802142.96949  19511229.4464   19511235.9564
  21118809.308   -20613381.15949 -16047069.61749  21118811.8024   21118817.9904
  21057850.764     -578213.62149   -449768.92449  21057854.1934   21057860.5594
 96  2 19 20 38 29.9960000  0  7 27  2 16 12 19 31 18
  19839601.361   -25202065.06549 -19619502.43149  19839604.5424   19839610.8854
  20991387.948   -11206990.08749  -8710886.67849  20991391.7234   20991399.3094
  22751100.087   -11834010.23349  -9204611.75849  22751103.5834   22751112.0574
  22137317.857    -7536047.568 9  -5849111.207 9  22137323.142    22137331.404
  19508732.504   -16494516.99349 -12812351.47849  19508736.5384   19508743.0634
  21122776.551   -20592529.83549 -16030821.85649  21122779.3724   21122786.1484
  21070854.189     -509865.00749   -396510.29449  21070859.9364   21070866.8234
 96  2 19 20 38 59.9960000  0  7 27  2 16 12 19 31 18
  19826305.880   -25271931.58949 -19673943.88049  19826309.7554   19826315.8024
  20976879.118   -11283239.61549  -8770301.87549  20976881.6894   20976889.0824
  22749356.832   -11843206.21149  -9211777.43449  22749355.3234   22749364.2124
  22121378.780    -7619801.728 9  -5914374.151 9  22121384.930    22121394.110
  19506305.661   -16507274.04349 -12822292.04049  19506308.5424   19506315.2534
  21126864.547   -20571051.97849 -16014085.88649  21126866.8144   21126872.4544
  21083938.618     -441116.55949   -342940.09949  21083942.3184   21083949.6704
 96  2 19 20 39 29.9960000  0  7 27  2 16 12 19 31 18
  19813086.960   -25341396.89349 -19728072.68449  19813091.0764   19813096.8484
  20962449.029   -11359074.34649  -8829393.85549  20962451.0914   20962458.8474
  22747730.960   -11851735.94749  -9218424.01149  22747731.0214   22747740.7604
  22105504.415    -7703249.487 9  -5979398.337 9  22105506.557    22105514.106
  19503962.097   -16519582.56049 -12831883.08949  19503966.4954   19503973.3434
  21131085.331   -20548873.58849 -15996804.02649  21131087.1704   21131093.7224
  21097115.881     -371872.37649   -288983.62849  21097119.2054   21097126.3234
 96  2 19 20 39 59.9960000  0  7 27  2 16 12 19 31 18
  19799947.887   -25410446.33749 -19781877.43549  19799951.3084   19799956.9684
  20948101.697   -11434474.30149  -8888147.04449  20948102.8664   20948110.5244
  22746237.500   -11859575.30349  -9224532.64449  22746241.1264   22746247.7594
  22089682.542    -7786367.311 9  -6044165.425 9  22089689.436    22089698.187
  19501707.494   -16531434.18349 -12841118.11749  19501711.0644   19501718.1844
  21135438.551   -20525982.30049 -15978966.67149  21135442.6604   21135449.7294
  21110388.964     -302126.62849   -234636.31449  21110391.5544   21110399.0444
 96  2 19 20 40 29.9960000  0  7 27  2 16 12 19 31 18
  19786858.623   -25479229.69049 -19835474.84849  19786861.9724   19786867.9504
  20933809.204   -11509571.73649  -8946664.50049  20933811.9334   20933819.6434
  22744849.185   -11866867.45249  -9230214.82149  22744852.0564   22744859.9054
  22073901.694    -7869289.813 9  -6108780.302 9  22073908.865    22073916.953
  19499513.077   -16542972.17949 -12850108.76649  19499515.9304   19499522.5174
  21139904.310   -20502521.77749 -15960685.76149  21139907.3674   21139914.3204
  21123728.951     -232026.03149   -180012.49249  21123730.5744   21123738.4714
 96  2 19 20 40 59.9960000  0  7 27  2 16 12 19 31 18
  19773798.805   -25547859.75349 -19888952.81149  19773802.1354   19773808.2154
  20919557.194   -11584466.98949  -9005024.43249  20919560.0584   20919567.4984
  22743545.935   -11873718.51949  -9235553.35349  22743549.6884   22743557.1614
  22058143.607    -7952118.935 9  -6173322.448 9  22058147.227    22058155.957
  19497357.635   -16554294.41049 -12858931.29049  19497361.1674   19497367.7534
  21144457.987   -20478594.53749 -15942041.16249  21144460.8324   21144467.0084
  21137112.382     -161678.53849   -125196.30349  21137117.5274   21137125.3904
 96  2 19 20 41 29.9960000  0  7 27  2 16 12 19 31 18
  19760780.716   -25616266.63549 -19942256.86549  19760784.7724   19760790.9064
  20905358.711   -11659088.50449  -9063171.06649  20905360.2644   20905367.4064
  22742335.101   -11880079.95649  -9240510.34249  22742337.9704   22742346.4884
  22042410.642    -8034792.005 9  -6237742.963 9  22042415.032    22042424.043
  19495256.125   -16565339.37849 -12867537.76649  19495259.3474   19495265.7894
  21149116.567   -20454111.94649 -15922963.80649  21149119.7214   21149125.7424
  21150559.037      -91024.81949    -70141.48149  21150563.0414   21150569.7774
 96  2 19 20 41 59.9960000  0  7 27  2 16 12 19 31 18
  19747804.719   -25684464.03249 -19995397.68849  19747807.8074   19747813.2254
  20891212.817   -11733417.03549  -9121089.38649  20891215.5724   20891223.1444
  22741219.655   -11885951.62249  -9245085.69449  22741222.2234   22741228.2224
  22026708.519    -8117303.617 9  -6302037.691 9  22026713.656    22026721.148
  19493208.908   -16576097.19049 -12875920.48749  19493211.9274   19493218.4874
  21153885.721   -20429050.36149 -15903435.31349  21153888.5504   21153894.8154
  21164063.855      -20060.20349    -14844.40449  21164066.6584   21164073.2004
 96  2 19 20 42 29.9960000  0  7 27  2 16 12 19 31 18
  19734873.354   -25752412.33349 -20048344.41149  19734877.1904   19734883.3774
  20877131.171   -11807407.39749  -9178744.20249  20877135.6734   20877142.9984
  22740199.686   -11891301.96049  -9249254.82549  22740202.2904   22740210.5684
  22011046.244    -8199620.772 9  -6366180.863 9  22011049.350    22011057.861
  19491223.384   -16586524.34549 -12884045.55549  19491227.9134   19491234.3394
  21158771.355   -20403370.21649 -15883424.80349  21158774.8484   21158781.6474
  21177634.028       51253.78749     40724.91449  21177637.0634   21177644.2684
 96  2 19 20 42 59.9960000  0  7 27  2 16 12 19 31 18
  19721995.762   -25820086.81549 -20101077.76449  19721999.3474   19722005.1814
  20863121.936   -11881037.96249  -9236118.65349  20863124.6444   20863132.1044
  22739285.062   -11896109.63749  -9253001.07149  22739288.6484   22739295.5734
  21995425.827    -8281723.897 9  -6430157.267 9  21995425.348    21995434.043
  19489304.161   -16596611.38849 -12891905.59149  19489308.4144   19489314.8674
  21163781.938   -20377043.29749 -15862910.32249  21163784.5044   21163791.1064
  21191274.987      122931.40049     96577.58049  21191277.5414   21191284.2904
 96  2 19 20 43 29.9960000  0  7 27  2 16 12 19 31 18
  19709158.349   -25887551.38549 -20153647.54749  19709161.3534   19709167.1474
  20849166.749   -11954372.09449  -9293262.12449  20849169.5054   20849177.0464
  22738458.580   -11900439.86549  -9256375.28949  22738464.8854   22738472.8324
  21979825.936    -8363678.834 9  -6494018.208 9  21979829.408    21979838.332
  19487435.971   -16606430.94249 -12899557.20349  19487439.6434   19487446.3244
  21168904.510   -20350132.70249 -15841941.03849  21168905.6234   21168912.2594
  21204968.895      194897.97749    152655.38949  21204971.9554   21204978.3864
 96  2 19 20 43 59.9960000  0  7 27  2 16 12 19 31 18
  19696361.285   -25954795.41049 -20206045.47849  19696365.1044   19696371.0024
  20835268.476   -12027411.07049  -9350175.59249  20835270.5184   20835277.6574
  22737728.176   -11904282.08349  -9259369.28949  22737731.5704   22737742.7504
  21964260.438    -8445477.354 9  -6557757.265 9  21964264.139    21964271.600
  19485618.960   -16615978.81349 -12906997.11249  19485623.1864   19485629.3974
  21174132.244   -20322652.12349 -15820527.61649  21174135.4084   21174141.5564
  21218717.811      267152.28749    208957.41949  21218721.3404   21218728.0044
 96  2 19 20 44 29.9960000  0  7 27  2 16 12 19 31 18
  19683602.360   -26021850.12049 -20258295.88949  19683605.2544   19683611.1014
  20821413.694   -12100216.99049  -9406907.46849  20821416.5374   20821423.1944
  22737081.570   -11907685.88549  -9262021.61449  22737084.9484   22737092.3944
  21948713.135    -8527169.572 9  -6621413.477 9  21948719.100    21948726.242
  19483843.161   -16625313.35249 -12914270.78449  19483846.7084   19483853.1454
  21179460.939   -20294658.44649 -15798714.37249  21179462.2254   21179468.1584
  21232511.785      339639.95449    265441.28449  21232515.3304   21232522.2064
 96  2 19 20 44 59.9960000  0  7 27  2 16 12 19 31 18
  19670872.342   -26088738.53549 -20310416.72349  19670877.0044   19670882.6084
  20807597.540   -12172819.41049  -9463480.78149  20807600.3314   20807607.6784
  22736514.296   -11910680.36349  -9264354.97349  22736516.2274   22736522.8574
  21933185.567    -8608784.194 9  -6685009.239 9  21933187.485    21933196.705
  19482102.597   -16634458.22149 -12921396.66749  19482106.3994   19482112.8274
  21184879.577   -20266177.16849 -15776521.18149  21184882.2314   21184888.3064
  21246344.334      412332.88549    322085.09149  21246348.6144   21246355.6474
 96  2 19 20 45 29.9960000  0  7 27  2 16 12 19 31 18
  19658178.936   -26155443.36649 -20362394.51249  19658183.3304   19658188.8474
  20793821.068   -12245216.47949  -9519894.06749  20793823.4504   20793830.8344
  22736019.474   -11913263.66649  -9266367.98949  22736023.4354   22736031.5184
  21917670.921    -8690316.716 9  -6748540.999 9  21917672.372    21917680.636
  19480403.028   -16643389.02649 -12928355.74849  19480406.5024   19480413.1604
  21190392.197   -20237216.19249 -15753954.21649  21190393.3954   21190399.8474
  21260220.020      485244.19449    378899.05049  21260223.4524   21260230.0114
 96  2 19 20 45 59.9960000  0  7 27  2 16 12 19 31 18
  19645519.024   -26221977.59349 -20414239.34849  19645522.1714   19645528.0714
  20780078.949   -12317423.89449  -9576159.57649  20780082.9744   20780090.6064
  22735603.293   -11915459.06049  -9268078.68449  22735605.7634   22735613.2054
  21902166.586    -8771787.156 9  -6812024.391 9  21902168.440    21902177.842
  19478744.214   -16652107.19749 -12935149.13049  19478747.8414   19478754.4684
  21195987.254   -20207804.84549 -15731036.30549  21195990.0574   21195996.1204
  21274131.564      558359.28549    435871.81449  21274136.5364   21274143.6404
 96  2 19 20 46 29.9960000  0  7 27  2 16 12 19 31 18
  19632891.747   -26288330.61649 -20465942.99849  19632895.4464   19632901.5604
  20766380.062   -12389421.03049  -9632261.22849  20766382.8164   20766390.3474
  22735262.778   -11917245.14749  -9269470.46149  22735265.7614   22735275.0434
  21886677.272    -8853180.496 9  -6875447.729 9  21886679.459    21886688.793
  19477131.131   -16660581.63549 -12941752.59549  19477135.2354   19477141.8304
  21201676.693   -20177913.86049 -15707744.63549  21201677.8774   21201684.2764
  21288089.866      631701.01949    493021.19049  21288093.6224   21288099.7504
 96  2 19 20 46 59.9960000  0  7 27  2 16 12 19 31 18
  19620306.047   -26354466.10749 -20517477.13449  19620310.2234   19620316.4954
  20752729.304   -12461161.54349  -9688162.91849  20752730.4414   20752738.0024
  22735012.436   -11918571.18949  -9270503.77349  22735013.0984   22735022.6154
  21871213.852    -8934450.797 9  -6938775.168 9  21871215.652    21871222.008
  19475575.226   -16668761.17649 -12948126.26649  19475579.0294   19475585.3584
  21207467.077   -20147498.49749 -15684044.37849  21207466.3504   21207471.8024
  21302100.677      705314.07649    550381.97249  21302101.6834   21302107.7914
 96  2 19 20 47 29.9960000  0  7 27  2 16 12 19 31 18
  19607742.488   -26420481.48849 -20568917.68549  19607747.8054   19607754.1054
  20739108.695   -12532737.59749  -9743936.44849  20739109.5334   20739117.3664
  22734828.716   -11919517.58049  -9271241.24249  22734834.2794   22734840.7934
  21855751.641    -9015682.203 9  -7002072.321 9  21855756.130    21855765.477
  19474055.902   -16676740.24949 -12954343.72749  19474060.3344   19474067.1904
  21213333.450   -20116646.53649 -15660003.90049  21213336.9364   21213343.3804
  21316140.467      779107.53049    607883.33949  21316143.5164   21316150.7374
 96  2 19 20 47 59.9960000  0  7 27  2 16 12 19 31 18
  19595206.008   -26486371.22249 -20620260.32449  19595209.4254   19595215.7054
  20725524.318   -12604117.25349  -9799556.93949  20725526.9604   20725534.0134
  22734728.325   -11920061.08949  -9271664.75949  22734730.6854   22734737.9354
  21840303.650    -9096853.421 9  -7065322.583 9  21840309.784    21840318.871
  19472579.181   -16684505.43949 -12960394.52649  19472582.7614   19472589.6654
  21219292.744   -20085333.46449 -15635604.10849  21219296.1884   21219302.0164
  21330221.073      853098.22149    665538.37249  21330223.5284   21330231.1694
 96  2 19 20 48 29.9960000  0  7 27  2 16 12 19 31 18
  19582706.122   -26552057.35549 -20671444.32549  19582709.9134   19582716.2954
  20711991.754   -12675227.45549  -9854967.49249  20711995.0294   20712002.3404
  22734716.052   -11920131.01549  -9271719.25549  22734716.4874   22734725.0784
  21824884.957    -9177894.606 9  -7128471.520 9  21824888.838    21824897.838
  19471152.110   -16692005.86149 -12966239.02249  19471155.5654   19471162.4694
  21225352.189   -20053493.88049 -15610794.04949  21225355.5604   21225361.0324
  21344348.397      927353.42049    723399.52149  21344354.1894   21344360.8934
 96  2 19 20 48 59.9960000  0  7 27  2 16 12 19 31 18
  19570231.562   -26617618.48549 -20722530.90949  19570233.9424   19570240.3774
  20698491.579   -12746156.45449  -9910236.82449  20698497.2084   20698504.8234
  22734774.614   -11919818.76349  -9271475.98849  22734775.4784   22734785.4194
  21809471.068    -9258895.245 9  -7191588.880 9  21809474.436    21809482.846
  19469756.167   -16699345.80149 -12971958.46249  19469758.8134   19469765.8344
  21231490.764   -20021230.88549 -15585654.04649  21231493.7404   21231501.0044
  21358515.907     1001786.86049    781399.56249  21358518.2144   21358525.2134
 96  2 19 20 49 29.9960000  0  7 27  2 16 12 19 31 18
  19557794.992   -26682973.33849 -20773456.75849  19557797.3204   19557803.7364
  20685045.944   -12816823.60949  -9965302.12549  20685050.0294   20685057.6714
  22734914.755   -11919063.56749  -9270887.56949  22734920.5184   22734927.9694
  21794079.507    -9339780.805 9  -7254616.537 9  21794082.529    21794091.593
  19468401.431   -16706455.96549 -12977498.85349  19468405.6874   19468412.4934
  21237721.437   -19988485.24149 -15560137.96549  21237725.7784   21237731.6574
  21372728.126     1076476.96249    839599.60649  21372731.4894   21372738.6354
 96  2 19 20 49 59.9960000  0  7 27  2 16 12 19 31 18
  19545402.512   -26748089.88549 -20824196.92149  19545406.0484   19545412.1154
  20671652.673   -12887213.17449 -10020151.12849  20671655.7074   20671663.0564
  22735150.639   -11917857.16949  -9269947.53649  22735148.9664   22735158.6654
  21778713.776    -9420535.399 9  -7317542.147 9  21778715.634    21778725.178
  19467096.614   -16713317.16549 -12982845.24849  19467099.8344   19467106.7174
  21244047.076   -19955247.92749 -15534238.75149  21244050.3644   21244056.7984
  21386995.417     1151439.88749    898012.24649  21386996.4594   21387002.9134
 96  2 19 20 50 29.9960000  0  7 27  2 16 12 19 31 18
  19533050.996   -26812995.34149 -20874772.59849  19533054.9354   19533061.0394
  20658299.553   -12957380.31449 -10074826.80849  20658303.3264   20658310.4444
  22735456.486   -11916234.88249  -9268683.45949  22735457.7194   22735467.3524
  21763361.544    -9501200.423 9  -7380397.961 9  21763365.784    21763374.665
  19465830.287   -16719968.25749 -12988027.92249  19465834.4064   19465841.2164
  21250458.115   -19921552.23249 -15507982.37749  21250462.0044   21250468.8404
  21401298.576     1226626.69049    956599.32849  21401303.5864   21401311.1464
 96  2 19 20 50 59.9960000  0  7 27  2 16 12 19 31 18
  19520733.596   -26877730.11849 -20925215.27549  19520736.4974   19520742.4304
  20644984.748   -13027357.45549 -10129354.44149  20644987.3714   20644994.7524
  22735835.118   -11914225.40949  -9267117.66949  22735840.6684   22735849.7394
  21748024.557    -9581796.463 9  -7443200.036 9  21748029.207    21748036.876
  19464604.091   -16726409.49149 -12993047.06249  19464608.5704   19464615.1994
  21256953.002   -19887416.05249 -15481382.77149  21256957.9264   21256964.8324
  21415646.875     1302015.13649   1015343.54449  21415649.8804   21415656.6434
 96  2 19 20 51 29.9960000  0  7 27  2 16 12 19 31 18
  19508466.978   -26942191.69349 -20975445.07849  19508469.8874   19508476.0084
  20631719.957   -13097054.61849 -10183663.90049  20631724.0274   20631731.3514
  22736311.397   -11911732.62049  -9265175.23749  22736315.4974   22736325.2554
  21732719.004    -9662221.829 9  -7505869.096 9  21732724.555    21732733.057
  19463439.928   -16732528.02949 -12997814.75949  19463444.4444   19463450.8634
  21263555.011   -19852725.63949 -15454351.28949  21263558.9624   21263566.0194
  21430046.524     1377684.94649   1074306.99549  21430049.2414   21430056.9144
 96  2 19 20 51 59.9960000  0  7 27  2 16 12 19 31 18
  19496247.423   -27006398.76249 -21025476.56049  19496251.3674   19496257.9184
  20618506.396   -13166498.64149 -10237776.10749  20618509.6584   20618516.7284
  22736875.346   -11908774.93449  -9262870.57549  22736879.3854   22736886.2204
  21717445.022    -9742504.012 9  -7568426.624 9  21717447.214    21717456.107
  19462334.073   -16738340.95749 -13002344.31849  19462338.2914   19462344.5184
  21270261.655   -19817489.32649 -15426894.42049  21270264.9814   21270270.7974
  21444489.788     1453594.53349   1133457.28649  21444494.8594   21444501.9644
 96  2 19 20 52 29.9960000  0  8 27  2 16 12 19  7 31 18
  19484082.398   -27070331.42849 -21075294.22349  19484085.3804   19484092.0014
  20605345.099   -13235656.15049 -10291665.05349  20605348.6834   20605356.0974
  22737530.735   -11905345.99249  -9260198.68549  22737530.3484   22737537.2064
  21702195.401    -9822625.634 9  -7630858.994 9  21702200.008    21702208.303
  19461290.873   -16743826.66649 -13006618.89949  19461294.1014   19461300.9304
  23451104.710    -5408182.66459  -4167505.58559  23451106.4124   23451115.0734
  21277074.679   -19781690.18149 -15398998.98749  21277077.5024   21277083.2744
  21458983.694     1529762.16049   1192808.64149  21458988.4924   21458996.3674
 96  2 19 20 52 59.9960000  0  8 27  2 16 12 19  7 31 18
  19471957.251   -27134046.66249 -21124942.45649  19471960.7374   19471967.5644
  20592231.819   -13304576.30349 -10345369.04449  20592233.7854   20592240.7754
  22738255.590   -11901514.40649  -9257213.06749  22738260.2714   22738266.9914
  21686972.159    -9902640.605 9  -7693208.285 9  21686973.932    21686982.678
  19460296.726   -16749044.93149 -13010685.09249  19460301.2454   19460308.3354
  23425644.327    -5541971.37249  -4271756.49849  23425648.6524   23425658.0074
  21283983.336   -19745390.11649 -15370713.22749  21283985.0604   21283990.8704
  21473520.497     1606140.14849   1252323.92749  21473522.6514   21473530.8234
 96  2 19 20 53 29.9960000  0  8 27  2 16 12 19  7 31 18
  19459887.735   -27197476.12449 -21174368.01149  19459890.8314   19459897.2574
  20579172.517   -13373195.33849 -10398838.39849  20579175.6624   20579183.3844
  22739072.457   -11897224.62949  -9253870.38449  22739075.9104   22739083.4894
  21671773.468    -9982497.972 9  -7755434.765 9  21671777.345    21671785.710
  19459362.290   -16753961.73949 -13014516.37549  19459365.7984   19459372.2084
  23400187.754    -5675740.40649  -4375992.21949  23400192.6504   23400202.7894
  21290995.117   -19708543.28749 -15342001.41049  21290997.0194   21291002.8324
  21488101.793     1682773.55849   1312038.21949  21488106.0694   21488113.3324
 96  2 19 20 53 59.9960000  0  8 27  2 16 12 19  7 31 18
  19447866.532   -27260641.29349 -21223587.62049  19447870.9184   19447877.2504
  20566172.351   -13441525.70149 -10452082.81849  20566172.8114   20566181.0264
  22739972.287   -11892499.59949  -9250188.55349  22739975.1674   22739981.8264
  21656604.781   -10062222.358 9  -7817557.629 9  21656606.818    21656616.294
  19458478.020   -16758599.11749 -13018129.92449  19458483.3284   19458489.7464
  23374734.986    -5809513.70449  -4480231.16549  23374733.4354   23374743.6334
  21298103.471   -19671190.91749 -15312895.68049  21298104.3934   21298110.6584
  21502733.756     1759663.73849   1371952.60349  21502737.8034   21502745.1714
 96  2 19 20 54 29.9960000  0  8 27  2 16 12 19  7 31 18
  19435902.518   -27323518.23349 -21272582.63349  19435905.6274   19435911.9434
  20553226.454   -13509539.60349 -10505080.64549  20553230.0024   20553238.5174
  22740962.850   -11887298.37249  -9246135.65449  22740964.6454   22740975.1894
  21641463.204   -10141778.018 9  -7879549.033 9  21641467.673    21641475.559
  19457659.412   -16762914.22449 -13021492.35349  19457662.3474   19457668.9584
  23349285.276    -5943249.84649  -4584441.17449  23349285.9154   23349297.6584
  21305307.825   -19633312.70549 -15283380.19549  21305312.4054   21305318.7664
  21517422.587     1836855.78749   1432102.22549  21517426.3764   21517434.4344
 96  2 19 20 54 59.9960000  0  8 27  2 16 12 19  7 31 18
  19423970.477   -27386211.49049 -21321434.51449  19423975.4294   19423981.6334
  20540320.177   -13577359.43649 -10557927.24949  20540325.1564   20540332.5454
  22742024.540   -11881702.94449  -9241775.61849  22742028.9474   22742038.6904
  21626340.446   -10221259.675 9  -7941482.767 9  21626342.604    21626351.243
  19456882.314   -16766995.66449 -13024672.70049  19456885.3524   19456891.9964
  23323827.909    -6077021.03149  -4688678.47149  23323830.1064   23323841.0784
  21312596.418   -19595009.86249 -15253533.84849  21312601.2514   21312607.7024
  21532151.921     1914247.39649   1492407.34649  21532154.1984   21532160.8434
 96  2 19 20 55 29.9960000  0  8 27  2 16 12 19  7 31 18
  19412078.719   -27448702.39949 -21370128.72249  19412083.6344   19412090.2564
  20527457.064   -13644970.09649 -10610610.86949  20527459.2354   20527466.9894
  22743168.373   -11875693.02549  -9237092.54249  22743174.6134   22743181.8594
  21611230.979   -10300649.899 9  -8003345.266 9  21611235.230    21611242.708
  19456155.328   -16770816.42849 -13027649.93149  19456158.4164   19456164.9704
  23298368.028    -6210801.82049  -4792923.17949  23298372.1914   23298381.7714
  21319971.476   -19556266.17049 -15223343.97949  21319974.4984   21319980.2634
  21546917.821     1991848.17949   1552875.45449  21546921.1444   21546928.5944
 96  2 19 20 55 59.9960000  0  8 27  2 16 12 19  7 31 18
  19400221.546   -27511023.83749 -21418690.87049  19400224.3544   19400230.7004
  20514623.054   -13712404.25549 -10663156.94849  20514626.9394   20514634.6294
  22744387.090   -11869304.41449  -9232114.43049  22744388.8074   22744397.1364
  21596139.644   -10379974.955 9  -8065156.979 9  21596140.445    21596148.968
  19455472.243   -16774397.67149 -13030440.50849  19455476.7164   19455483.5464
  23272908.785    -6344611.29049  -4897190.11649  23272910.0524   23272920.0114
  21327422.218   -19517111.33549 -15192833.72749  21327425.4734   21327431.6684
  21561721.675     2069631.71249   1613485.97449  21561723.5114   21561729.2234
 96  2 19 20 56 29.9960000  0  8 27  2 16 12 19  7 31 18
  19388397.271   -27573155.95449 -21467105.50549  19388401.2044   19388407.1574
  20501832.211   -13779627.69849 -10715538.83649  20501834.8634   20501842.0844
  22745675.479   -11862519.84649  -9226827.75549  22745680.0364   22745688.2014
  21581058.451   -10459203.296 9  -8126893.350 9  21581063.498    21581072.574
  19454840.790   -16777717.50749 -13033027.40649  19454845.1314   19454851.7094
  23247450.316    -6478413.66459  -5001451.54249  23247449.3524   23247458.4494
  21334959.933   -19477504.19549 -15161971.07349  21334962.1384   21334968.7854
  21576556.523     2147602.02449   1674242.01849  21576560.1304   21576567.0344
 96  2 19 20 56 59.9960000  0  8 27  2 16 12 19  7 31 18
  19376629.828   -27634999.16449 -21515295.00949  19376632.8254   19376638.9304
  20489093.145   -13846553.90549 -10767689.10249  20489098.8864   20489106.3804
  22747055.108   -11855273.06049  -9221180.89449  22747059.4994   22747067.8004
  21566017.142   -10538254.105 9  -8188491.362 9  21566020.906    21566029.266
  19454270.496   -16780717.86049 -13035365.35049  19454274.3074   19454280.7884
  23222001.585    -6612142.85249  -5105655.84949  23222002.0804   23222008.8744
  21342599.930   -19437352.34549 -15130683.95249  21342602.9364   21342609.6454
  21591443.558     2225838.46049   1735205.42749  21591448.6444   21591455.0644
 96  2 19 20 57 29.9960000  0  8 27  2 16 12 19  7 31 18
  19364910.282   -27696582.81249 -21563282.26249  19364913.8314   19364919.9144
  20476414.118   -13913203.84849 -10819624.10949  20476416.1204   20476423.0354
  22748508.889   -11847614.81449  -9215213.47649  22748517.7804   22748525.1054
  21550999.072   -10617176.593 9  -8249989.391 9  21551002.897    21551010.536
  19453748.838   -16783456.32249 -13037499.21849  19453753.1924   19453759.5174
  23196551.064    -6745871.36949  -5209859.61149  23196552.6394   23196563.6654
  21350338.088   -19396698.80649 -15099005.90949  21350339.5164   21350345.6704
  21606371.218     2304290.91349   1796337.16049  21606377.3094   21606384.3634
 96  2 19 20 57 59.9960000  0  8 27  2 16 12 19  7 31 18
  19353231.886   -27757958.05049 -21611107.11549  19353234.5584   19353240.7584
  20463772.361   -13979628.57249 -10871383.61749  20463775.5544   20463782.8794
  22750039.285   -11839592.94849  -9208962.66549  22750042.5174   22750051.3784
  21535994.380   -10696023.321 9  -8311428.378 9  21535998.731    21536006.274
  19453268.405   -16785983.34049 -13039468.32549  19453272.4534   19453278.5054
  23171091.024    -6879659.05449  -5314109.55749  23171092.3694   23171102.1294
  21358161.200   -19355595.94949 -15066977.74549  21358160.7754   21358167.3994
  21621332.175     2382906.64349   1857596.12449  21621337.4814   21621343.7674
 96  2 19 20 58 29.9960000  0  8 27  2 16 12 19  7 31 18
  19341592.558   -27819118.76249 -21658764.80449  19341595.7874   19341602.4184
  20451175.612   -14045835.29749 -10922973.24749  20451176.9494   20451184.5224
  22751638.358   -11831194.44649  -9202418.36949  22751640.2254   22751651.3844
  21521003.558   -10774794.690 9  -8372808.621 9  21521008.553    21521016.879
  19452831.723   -16788279.69549 -13041257.70049  19452835.2704   19452841.4724
  23145616.628    -7013523.50049  -5418419.16649  23145620.0514   23145627.1064
  21366064.143   -19314042.20249 -15034598.24149  21366067.7294   21366074.9884
  21636326.027     2461687.10049   1918983.45549  21636328.6664   21636334.8364
